<?xml version="1.0" encoding="UTF-8"?>
<gpx version="1.1" creator="https://www.youtrack.es" xsi:schemaLocation="http://www.topografix.com/GPX/1/1 http://www.topografix.com/GPX/1/1/gpx.xsd http://www.garmin.com/xmlschemas/GpxExtensions/v3 http://www.garmin.com/xmlschemas/GpxExtensionsv3.xsd http://www.garmin.com/xmlschemas/TrackPointExtension/v1 http://www.garmin.com/xmlschemas/TrackPointExtensionv1.xsd" xmlns:gpxtpx="http://www.garmin.com/xmlschemas/TrackPointExtension/v1" xmlns:gpxx="http://www.garmin.com/xmlschemas/GpxExtensions/v3" xmlns:xsi="http://www.w3.org/2001/XMLSchema-instance">
  <metadata>
    <link href="https://www.youtrack.es">
      <text>YouTrack.es</text>
    </link>
    <time>2026-05-09T03:34:28Z</time>
  </metadata>
  <trk>
    <src>https://www.youtrack.es</src>
    <link href="https://www.youtrack.es/ruta/15406-2020-08-26-246450999-caminho-mozarabe">
      <text>YouTrack.es</text>
    </link>
    <trkseg>
      <trkpt lat="37.173077" lon="-3.594345">
        <ele>0.000000</ele>
        <time>2020-08-26T10:42:05.794Z</time>
      </trkpt>
      <trkpt lat="37.173424" lon="-3.594880">
        <ele>0.000000</ele>
        <time>2020-08-26T10:42:05.794Z</time>
      </trkpt>
      <trkpt lat="37.173664" lon="-3.595576">
        <ele>0.000000</ele>
        <time>2020-08-26T10:42:05.794Z</time>
      </trkpt>
      <trkpt lat="37.174098" lon="-3.596476">
        <ele>0.000000</ele>
        <time>2020-08-26T10:42:05.794Z</time>
      </trkpt>
      <trkpt lat="37.174259" lon="-3.596679">
        <ele>0.000000</ele>
        <time>2020-08-26T10:42:05.794Z</time>
      </trkpt>
      <trkpt lat="37.174626" lon="-3.596604">
        <ele>0.000000</ele>
        <time>2020-08-26T10:42:05.794Z</time>
      </trkpt>
      <trkpt lat="37.175154" lon="-3.596587">
        <ele>0.000000</ele>
        <time>2020-08-26T10:42:05.794Z</time>
      </trkpt>
      <trkpt lat="37.175126" lon="-3.597300">
        <ele>0.000000</ele>
        <time>2020-08-26T10:42:05.794Z</time>
      </trkpt>
      <trkpt lat="37.175673" lon="-3.597751">
        <ele>0.000000</ele>
        <time>2020-08-26T10:42:05.794Z</time>
      </trkpt>
      <trkpt lat="37.175206" lon="-3.598345">
        <ele>0.000000</ele>
        <time>2020-08-26T10:42:05.794Z</time>
      </trkpt>
      <trkpt lat="37.176219" lon="-3.599859">
        <ele>0.000000</ele>
        <time>2020-08-26T10:42:05.794Z</time>
      </trkpt>
      <trkpt lat="37.176438" lon="-3.600007">
        <ele>0.000000</ele>
        <time>2020-08-26T10:42:05.794Z</time>
      </trkpt>
      <trkpt lat="37.176748" lon="-3.599625">
        <ele>0.000000</ele>
        <time>2020-08-26T10:42:05.794Z</time>
      </trkpt>
      <trkpt lat="37.177810" lon="-3.600823">
        <ele>0.000000</ele>
        <time>2020-08-26T10:42:05.794Z</time>
      </trkpt>
      <trkpt lat="37.178408" lon="-3.601413">
        <ele>0.000000</ele>
        <time>2020-08-26T10:42:05.794Z</time>
      </trkpt>
      <trkpt lat="37.179224" lon="-3.601911">
        <ele>0.000000</ele>
        <time>2020-08-26T10:42:05.794Z</time>
      </trkpt>
      <trkpt lat="37.179516" lon="-3.602410">
        <ele>0.000000</ele>
        <time>2020-08-26T10:42:05.794Z</time>
      </trkpt>
      <trkpt lat="37.180999" lon="-3.605202">
        <ele>0.000000</ele>
        <time>2020-08-26T10:42:05.794Z</time>
      </trkpt>
      <trkpt lat="37.181463" lon="-3.605933">
        <ele>0.000000</ele>
        <time>2020-08-26T10:42:05.794Z</time>
      </trkpt>
      <trkpt lat="37.184291" lon="-3.604753">
        <ele>0.000000</ele>
        <time>2020-08-26T10:42:05.794Z</time>
      </trkpt>
      <trkpt lat="37.185739" lon="-3.607949">
        <ele>0.000000</ele>
        <time>2020-08-26T10:42:05.794Z</time>
      </trkpt>
      <trkpt lat="37.186753" lon="-3.610098">
        <ele>0.000000</ele>
        <time>2020-08-26T10:42:05.794Z</time>
      </trkpt>
      <trkpt lat="37.187128" lon="-3.611089">
        <ele>0.000000</ele>
        <time>2020-08-26T10:42:05.794Z</time>
      </trkpt>
      <trkpt lat="37.187582" lon="-3.611462">
        <ele>0.000000</ele>
        <time>2020-08-26T10:42:05.794Z</time>
      </trkpt>
      <trkpt lat="37.188422" lon="-3.612966">
        <ele>0.000000</ele>
        <time>2020-08-26T10:42:05.794Z</time>
      </trkpt>
      <trkpt lat="37.189406" lon="-3.614072">
        <ele>0.000000</ele>
        <time>2020-08-26T10:42:05.794Z</time>
      </trkpt>
      <trkpt lat="37.189383" lon="-3.614546">
        <ele>0.000000</ele>
        <time>2020-08-26T10:42:05.794Z</time>
      </trkpt>
      <trkpt lat="37.189957" lon="-3.615549">
        <ele>0.000000</ele>
        <time>2020-08-26T10:42:05.794Z</time>
      </trkpt>
      <trkpt lat="37.190886" lon="-3.617478">
        <ele>0.000000</ele>
        <time>2020-08-26T10:42:05.794Z</time>
      </trkpt>
      <trkpt lat="37.191479" lon="-3.619066">
        <ele>0.000000</ele>
        <time>2020-08-26T10:42:05.794Z</time>
      </trkpt>
      <trkpt lat="37.192427" lon="-3.619787">
        <ele>0.000000</ele>
        <time>2020-08-26T10:42:05.794Z</time>
      </trkpt>
      <trkpt lat="37.195669" lon="-3.621686">
        <ele>0.000000</ele>
        <time>2020-08-26T10:42:05.794Z</time>
      </trkpt>
      <trkpt lat="37.195694" lon="-3.622266">
        <ele>0.000000</ele>
        <time>2020-08-26T10:42:05.794Z</time>
      </trkpt>
      <trkpt lat="37.196244" lon="-3.622718">
        <ele>0.000000</ele>
        <time>2020-08-26T10:42:05.794Z</time>
      </trkpt>
      <trkpt lat="37.196614" lon="-3.622585">
        <ele>0.000000</ele>
        <time>2020-08-26T10:42:05.794Z</time>
      </trkpt>
      <trkpt lat="37.197928" lon="-3.623309">
        <ele>0.000000</ele>
        <time>2020-08-26T10:42:05.794Z</time>
      </trkpt>
      <trkpt lat="37.199671" lon="-3.624015">
        <ele>0.000000</ele>
        <time>2020-08-26T10:42:05.794Z</time>
      </trkpt>
      <trkpt lat="37.200718" lon="-3.624522">
        <ele>0.000000</ele>
        <time>2020-08-26T10:42:05.794Z</time>
      </trkpt>
      <trkpt lat="37.202032" lon="-3.625546">
        <ele>0.000000</ele>
        <time>2020-08-26T10:42:05.794Z</time>
      </trkpt>
      <trkpt lat="37.202993" lon="-3.626243">
        <ele>0.000000</ele>
        <time>2020-08-26T10:42:05.794Z</time>
      </trkpt>
      <trkpt lat="37.203664" lon="-3.626687">
        <ele>0.000000</ele>
        <time>2020-08-26T10:42:05.794Z</time>
      </trkpt>
      <trkpt lat="37.205067" lon="-3.627747">
        <ele>0.000000</ele>
        <time>2020-08-26T10:42:05.794Z</time>
      </trkpt>
      <trkpt lat="37.206824" lon="-3.630008">
        <ele>0.000000</ele>
        <time>2020-08-26T10:42:05.794Z</time>
      </trkpt>
      <trkpt lat="37.207289" lon="-3.630671">
        <ele>0.000000</ele>
        <time>2020-08-26T10:42:05.794Z</time>
      </trkpt>
      <trkpt lat="37.207815" lon="-3.631170">
        <ele>0.000000</ele>
        <time>2020-08-26T10:42:05.794Z</time>
      </trkpt>
      <trkpt lat="37.208731" lon="-3.631946">
        <ele>0.000000</ele>
        <time>2020-08-26T10:42:05.794Z</time>
      </trkpt>
      <trkpt lat="37.209537" lon="-3.632459">
        <ele>0.000000</ele>
        <time>2020-08-26T10:42:05.794Z</time>
      </trkpt>
      <trkpt lat="37.209318" lon="-3.633152">
        <ele>0.000000</ele>
        <time>2020-08-26T10:42:05.794Z</time>
      </trkpt>
      <trkpt lat="37.208602" lon="-3.634073">
        <ele>0.000000</ele>
        <time>2020-08-26T10:42:05.794Z</time>
      </trkpt>
      <trkpt lat="37.209010" lon="-3.634565">
        <ele>0.000000</ele>
        <time>2020-08-26T10:42:05.794Z</time>
      </trkpt>
      <trkpt lat="37.209680" lon="-3.634892">
        <ele>0.000000</ele>
        <time>2020-08-26T10:42:05.794Z</time>
      </trkpt>
      <trkpt lat="37.208992" lon="-3.636508">
        <ele>0.000000</ele>
        <time>2020-08-26T10:42:05.794Z</time>
      </trkpt>
      <trkpt lat="37.208243" lon="-3.638085">
        <ele>0.000000</ele>
        <time>2020-08-26T10:42:05.794Z</time>
      </trkpt>
      <trkpt lat="37.207587" lon="-3.639315">
        <ele>0.000000</ele>
        <time>2020-08-26T10:42:05.794Z</time>
      </trkpt>
      <trkpt lat="37.208415" lon="-3.640519">
        <ele>0.000000</ele>
        <time>2020-08-26T10:42:05.794Z</time>
      </trkpt>
      <trkpt lat="37.208514" lon="-3.642413">
        <ele>0.000000</ele>
        <time>2020-08-26T10:42:05.794Z</time>
      </trkpt>
      <trkpt lat="37.208508" lon="-3.645009">
        <ele>0.000000</ele>
        <time>2020-08-26T10:42:05.794Z</time>
      </trkpt>
      <trkpt lat="37.208551" lon="-3.646312">
        <ele>0.000000</ele>
        <time>2020-08-26T10:42:05.794Z</time>
      </trkpt>
      <trkpt lat="37.208635" lon="-3.646972">
        <ele>0.000000</ele>
        <time>2020-08-26T10:42:05.794Z</time>
      </trkpt>
      <trkpt lat="37.210061" lon="-3.648414">
        <ele>0.000000</ele>
        <time>2020-08-26T10:42:05.794Z</time>
      </trkpt>
      <trkpt lat="37.212268" lon="-3.651927">
        <ele>0.000000</ele>
        <time>2020-08-26T10:42:05.794Z</time>
      </trkpt>
      <trkpt lat="37.212687" lon="-3.653120">
        <ele>0.000000</ele>
        <time>2020-08-26T10:42:05.794Z</time>
      </trkpt>
      <trkpt lat="37.212886" lon="-3.654151">
        <ele>0.000000</ele>
        <time>2020-08-26T10:42:05.794Z</time>
      </trkpt>
      <trkpt lat="37.213144" lon="-3.655229">
        <ele>0.000000</ele>
        <time>2020-08-26T10:42:05.794Z</time>
      </trkpt>
      <trkpt lat="37.213126" lon="-3.656617">
        <ele>0.000000</ele>
        <time>2020-08-26T10:42:05.794Z</time>
      </trkpt>
      <trkpt lat="37.213701" lon="-3.658110">
        <ele>0.000000</ele>
        <time>2020-08-26T10:42:05.794Z</time>
      </trkpt>
      <trkpt lat="37.214130" lon="-3.659755">
        <ele>0.000000</ele>
        <time>2020-08-26T10:42:05.794Z</time>
      </trkpt>
      <trkpt lat="37.214269" lon="-3.660941">
        <ele>0.000000</ele>
        <time>2020-08-26T10:42:05.794Z</time>
      </trkpt>
      <trkpt lat="37.214495" lon="-3.663307">
        <ele>0.000000</ele>
        <time>2020-08-26T10:42:05.794Z</time>
      </trkpt>
      <trkpt lat="37.216455" lon="-3.668908">
        <ele>0.000000</ele>
        <time>2020-08-26T10:42:05.794Z</time>
      </trkpt>
      <trkpt lat="37.217530" lon="-3.671030">
        <ele>0.000000</ele>
        <time>2020-08-26T10:42:05.794Z</time>
      </trkpt>
      <trkpt lat="37.218605" lon="-3.672925">
        <ele>0.000000</ele>
        <time>2020-08-26T10:42:05.794Z</time>
      </trkpt>
      <trkpt lat="37.219099" lon="-3.674118">
        <ele>0.000000</ele>
        <time>2020-08-26T10:42:05.794Z</time>
      </trkpt>
      <trkpt lat="37.219588" lon="-3.675550">
        <ele>0.000000</ele>
        <time>2020-08-26T10:42:05.794Z</time>
      </trkpt>
      <trkpt lat="37.219762" lon="-3.676444">
        <ele>0.000000</ele>
        <time>2020-08-26T10:42:05.794Z</time>
      </trkpt>
      <trkpt lat="37.220198" lon="-3.679070">
        <ele>0.000000</ele>
        <time>2020-08-26T10:42:05.794Z</time>
      </trkpt>
      <trkpt lat="37.220731" lon="-3.681282">
        <ele>0.000000</ele>
        <time>2020-08-26T10:42:05.794Z</time>
      </trkpt>
      <trkpt lat="37.220750" lon="-3.682370">
        <ele>0.000000</ele>
        <time>2020-08-26T10:42:05.794Z</time>
      </trkpt>
      <trkpt lat="37.220819" lon="-3.683158">
        <ele>0.000000</ele>
        <time>2020-08-26T10:42:05.794Z</time>
      </trkpt>
      <trkpt lat="37.221368" lon="-3.684371">
        <ele>0.000000</ele>
        <time>2020-08-26T10:42:05.794Z</time>
      </trkpt>
      <trkpt lat="37.221464" lon="-3.685061">
        <ele>0.000000</ele>
        <time>2020-08-26T10:42:05.794Z</time>
      </trkpt>
      <trkpt lat="37.221905" lon="-3.687064">
        <ele>0.000000</ele>
        <time>2020-08-26T10:42:05.794Z</time>
      </trkpt>
      <trkpt lat="37.222201" lon="-3.688085">
        <ele>0.000000</ele>
        <time>2020-08-26T10:42:05.794Z</time>
      </trkpt>
      <trkpt lat="37.222836" lon="-3.687903">
        <ele>0.000000</ele>
        <time>2020-08-26T10:42:05.794Z</time>
      </trkpt>
      <trkpt lat="37.222976" lon="-3.689790">
        <ele>0.000000</ele>
        <time>2020-08-26T10:42:05.794Z</time>
      </trkpt>
      <trkpt lat="37.222721" lon="-3.690974">
        <ele>0.000000</ele>
        <time>2020-08-26T10:42:05.794Z</time>
      </trkpt>
      <trkpt lat="37.222217" lon="-3.691921">
        <ele>0.000000</ele>
        <time>2020-08-26T10:42:05.794Z</time>
      </trkpt>
      <trkpt lat="37.221936" lon="-3.692802">
        <ele>0.000000</ele>
        <time>2020-08-26T10:42:05.794Z</time>
      </trkpt>
      <trkpt lat="37.221651" lon="-3.693328">
        <ele>0.000000</ele>
        <time>2020-08-26T10:42:05.794Z</time>
      </trkpt>
      <trkpt lat="37.220716" lon="-3.694118">
        <ele>0.000000</ele>
        <time>2020-08-26T10:42:05.794Z</time>
      </trkpt>
      <trkpt lat="37.219695" lon="-3.695143">
        <ele>0.000000</ele>
        <time>2020-08-26T10:42:05.794Z</time>
      </trkpt>
      <trkpt lat="37.218562" lon="-3.696037">
        <ele>0.000000</ele>
        <time>2020-08-26T10:42:05.794Z</time>
      </trkpt>
      <trkpt lat="37.218176" lon="-3.696269">
        <ele>0.000000</ele>
        <time>2020-08-26T10:42:05.794Z</time>
      </trkpt>
      <trkpt lat="37.218147" lon="-3.696456">
        <ele>0.000000</ele>
        <time>2020-08-26T10:42:05.794Z</time>
      </trkpt>
      <trkpt lat="37.217514" lon="-3.696979">
        <ele>0.000000</ele>
        <time>2020-08-26T10:42:05.794Z</time>
      </trkpt>
      <trkpt lat="37.216939" lon="-3.697291">
        <ele>0.000000</ele>
        <time>2020-08-26T10:42:05.794Z</time>
      </trkpt>
      <trkpt lat="37.217366" lon="-3.698200">
        <ele>0.000000</ele>
        <time>2020-08-26T10:42:05.794Z</time>
      </trkpt>
      <trkpt lat="37.218782" lon="-3.701688">
        <ele>0.000000</ele>
        <time>2020-08-26T10:42:05.794Z</time>
      </trkpt>
      <trkpt lat="37.219961" lon="-3.704335">
        <ele>0.000000</ele>
        <time>2020-08-26T10:42:05.794Z</time>
      </trkpt>
      <trkpt lat="37.220434" lon="-3.705496">
        <ele>0.000000</ele>
        <time>2020-08-26T10:42:05.794Z</time>
      </trkpt>
      <trkpt lat="37.220791" lon="-3.706481">
        <ele>0.000000</ele>
        <time>2020-08-26T10:42:05.794Z</time>
      </trkpt>
      <trkpt lat="37.220920" lon="-3.706467">
        <ele>0.000000</ele>
        <time>2020-08-26T10:42:05.794Z</time>
      </trkpt>
      <trkpt lat="37.221059" lon="-3.706791">
        <ele>0.000000</ele>
        <time>2020-08-26T10:42:05.794Z</time>
      </trkpt>
      <trkpt lat="37.221278" lon="-3.707407">
        <ele>0.000000</ele>
        <time>2020-08-26T10:42:05.794Z</time>
      </trkpt>
      <trkpt lat="37.221775" lon="-3.708627">
        <ele>0.000000</ele>
        <time>2020-08-26T10:42:05.794Z</time>
      </trkpt>
      <trkpt lat="37.222719" lon="-3.711330">
        <ele>0.000000</ele>
        <time>2020-08-26T10:42:05.794Z</time>
      </trkpt>
      <trkpt lat="37.223516" lon="-3.713212">
        <ele>0.000000</ele>
        <time>2020-08-26T10:42:05.794Z</time>
      </trkpt>
      <trkpt lat="37.224152" lon="-3.714565">
        <ele>0.000000</ele>
        <time>2020-08-26T10:42:05.794Z</time>
      </trkpt>
      <trkpt lat="37.224648" lon="-3.715815">
        <ele>0.000000</ele>
        <time>2020-08-26T10:42:05.794Z</time>
      </trkpt>
      <trkpt lat="37.224854" lon="-3.716608">
        <ele>0.000000</ele>
        <time>2020-08-26T10:42:05.794Z</time>
      </trkpt>
      <trkpt lat="37.225351" lon="-3.717681">
        <ele>0.000000</ele>
        <time>2020-08-26T10:42:05.794Z</time>
      </trkpt>
      <trkpt lat="37.226462" lon="-3.720198">
        <ele>0.000000</ele>
        <time>2020-08-26T10:42:05.794Z</time>
      </trkpt>
      <trkpt lat="37.226920" lon="-3.722078">
        <ele>0.000000</ele>
        <time>2020-08-26T10:42:05.794Z</time>
      </trkpt>
      <trkpt lat="37.227499" lon="-3.722506">
        <ele>0.000000</ele>
        <time>2020-08-26T10:42:05.794Z</time>
      </trkpt>
      <trkpt lat="37.228180" lon="-3.723611">
        <ele>0.000000</ele>
        <time>2020-08-26T10:42:05.794Z</time>
      </trkpt>
      <trkpt lat="37.229011" lon="-3.725028">
        <ele>0.000000</ele>
        <time>2020-08-26T10:42:05.794Z</time>
      </trkpt>
      <trkpt lat="37.230450" lon="-3.727327">
        <ele>0.000000</ele>
        <time>2020-08-26T10:42:05.794Z</time>
      </trkpt>
      <trkpt lat="37.231455" lon="-3.729172">
        <ele>0.000000</ele>
        <time>2020-08-26T10:42:05.794Z</time>
      </trkpt>
      <trkpt lat="37.232295" lon="-3.730571">
        <ele>0.000000</ele>
        <time>2020-08-26T10:42:05.794Z</time>
      </trkpt>
      <trkpt lat="37.233417" lon="-3.732571">
        <ele>0.000000</ele>
        <time>2020-08-26T10:42:05.794Z</time>
      </trkpt>
      <trkpt lat="37.235225" lon="-3.735870">
        <ele>0.000000</ele>
        <time>2020-08-26T10:42:05.794Z</time>
      </trkpt>
      <trkpt lat="37.236829" lon="-3.738488">
        <ele>0.000000</ele>
        <time>2020-08-26T10:42:05.794Z</time>
      </trkpt>
      <trkpt lat="37.237364" lon="-3.739555">
        <ele>0.000000</ele>
        <time>2020-08-26T10:42:05.794Z</time>
      </trkpt>
      <trkpt lat="37.238176" lon="-3.740845">
        <ele>0.000000</ele>
        <time>2020-08-26T10:42:05.794Z</time>
      </trkpt>
      <trkpt lat="37.239587" lon="-3.742829">
        <ele>0.000000</ele>
        <time>2020-08-26T10:42:05.794Z</time>
      </trkpt>
      <trkpt lat="37.241440" lon="-3.746305">
        <ele>0.000000</ele>
        <time>2020-08-26T10:42:05.794Z</time>
      </trkpt>
      <trkpt lat="37.242300" lon="-3.746177">
        <ele>0.000000</ele>
        <time>2020-08-26T10:42:05.794Z</time>
      </trkpt>
      <trkpt lat="37.242973" lon="-3.746221">
        <ele>0.000000</ele>
        <time>2020-08-26T10:42:05.794Z</time>
      </trkpt>
      <trkpt lat="37.243340" lon="-3.746114">
        <ele>0.000000</ele>
        <time>2020-08-26T10:42:05.794Z</time>
      </trkpt>
      <trkpt lat="37.243739" lon="-3.745800">
        <ele>0.000000</ele>
        <time>2020-08-26T10:42:05.794Z</time>
      </trkpt>
      <trkpt lat="37.244237" lon="-3.745537">
        <ele>0.000000</ele>
        <time>2020-08-26T10:42:05.794Z</time>
      </trkpt>
      <trkpt lat="37.244737" lon="-3.745158">
        <ele>0.000000</ele>
        <time>2020-08-26T10:42:05.794Z</time>
      </trkpt>
      <trkpt lat="37.245150" lon="-3.745110">
        <ele>0.000000</ele>
        <time>2020-08-26T10:42:05.794Z</time>
      </trkpt>
      <trkpt lat="37.245777" lon="-3.745113">
        <ele>0.000000</ele>
        <time>2020-08-26T10:42:05.794Z</time>
      </trkpt>
      <trkpt lat="37.246420" lon="-3.745302">
        <ele>0.000000</ele>
        <time>2020-08-26T10:42:05.794Z</time>
      </trkpt>
      <trkpt lat="37.247198" lon="-3.745126">
        <ele>0.000000</ele>
        <time>2020-08-26T10:42:05.794Z</time>
      </trkpt>
      <trkpt lat="37.247991" lon="-3.744695">
        <ele>0.000000</ele>
        <time>2020-08-26T10:42:05.794Z</time>
      </trkpt>
      <trkpt lat="37.248281" lon="-3.745119">
        <ele>0.000000</ele>
        <time>2020-08-26T10:42:05.794Z</time>
      </trkpt>
      <trkpt lat="37.248219" lon="-3.745582">
        <ele>0.000000</ele>
        <time>2020-08-26T10:42:05.794Z</time>
      </trkpt>
      <trkpt lat="37.248275" lon="-3.746034">
        <ele>0.000000</ele>
        <time>2020-08-26T10:42:05.794Z</time>
      </trkpt>
      <trkpt lat="37.248183" lon="-3.746858">
        <ele>0.000000</ele>
        <time>2020-08-26T10:42:05.794Z</time>
      </trkpt>
      <trkpt lat="37.250539" lon="-3.748076">
        <ele>0.000000</ele>
        <time>2020-08-26T10:42:05.794Z</time>
      </trkpt>
      <trkpt lat="37.250496" lon="-3.749169">
        <ele>0.000000</ele>
        <time>2020-08-26T10:42:05.794Z</time>
      </trkpt>
      <trkpt lat="37.250704" lon="-3.750624">
        <ele>0.000000</ele>
        <time>2020-08-26T10:42:05.794Z</time>
      </trkpt>
      <trkpt lat="37.250773" lon="-3.751699">
        <ele>0.000000</ele>
        <time>2020-08-26T10:42:05.794Z</time>
      </trkpt>
      <trkpt lat="37.250996" lon="-3.751750">
        <ele>0.000000</ele>
        <time>2020-08-26T10:42:05.794Z</time>
      </trkpt>
      <trkpt lat="37.251041" lon="-3.751747">
        <ele>0.000000</ele>
        <time>2020-08-26T10:42:05.794Z</time>
      </trkpt>
      <trkpt lat="37.251906" lon="-3.751421">
        <ele>0.000000</ele>
        <time>2020-08-26T10:42:05.794Z</time>
      </trkpt>
      <trkpt lat="37.253127" lon="-3.751433">
        <ele>0.000000</ele>
        <time>2020-08-26T10:42:05.794Z</time>
      </trkpt>
      <trkpt lat="37.254359" lon="-3.751735">
        <ele>0.000000</ele>
        <time>2020-08-26T10:42:05.794Z</time>
      </trkpt>
      <trkpt lat="37.255483" lon="-3.752259">
        <ele>0.000000</ele>
        <time>2020-08-26T10:42:05.794Z</time>
      </trkpt>
      <trkpt lat="37.257010" lon="-3.754077">
        <ele>0.000000</ele>
        <time>2020-08-26T10:42:05.794Z</time>
      </trkpt>
      <trkpt lat="37.257602" lon="-3.755137">
        <ele>0.000000</ele>
        <time>2020-08-26T10:42:05.794Z</time>
      </trkpt>
      <trkpt lat="37.258208" lon="-3.756590">
        <ele>0.000000</ele>
        <time>2020-08-26T10:42:05.794Z</time>
      </trkpt>
      <trkpt lat="37.259110" lon="-3.757442">
        <ele>0.000000</ele>
        <time>2020-08-26T10:42:05.794Z</time>
      </trkpt>
      <trkpt lat="37.260072" lon="-3.758165">
        <ele>0.000000</ele>
        <time>2020-08-26T10:42:05.794Z</time>
      </trkpt>
      <trkpt lat="37.261591" lon="-3.759224">
        <ele>0.000000</ele>
        <time>2020-08-26T10:42:05.794Z</time>
      </trkpt>
      <trkpt lat="37.262123" lon="-3.759713">
        <ele>0.000000</ele>
        <time>2020-08-26T10:42:05.794Z</time>
      </trkpt>
      <trkpt lat="37.263355" lon="-3.760297">
        <ele>0.000000</ele>
        <time>2020-08-26T10:42:05.794Z</time>
      </trkpt>
      <trkpt lat="37.264777" lon="-3.761096">
        <ele>0.000000</ele>
        <time>2020-08-26T10:42:05.794Z</time>
      </trkpt>
      <trkpt lat="37.265303" lon="-3.761991">
        <ele>0.000000</ele>
        <time>2020-08-26T10:42:05.794Z</time>
      </trkpt>
      <trkpt lat="37.265988" lon="-3.762511">
        <ele>0.000000</ele>
        <time>2020-08-26T10:42:05.794Z</time>
      </trkpt>
      <trkpt lat="37.266934" lon="-3.762783">
        <ele>0.000000</ele>
        <time>2020-08-26T10:42:05.794Z</time>
      </trkpt>
      <trkpt lat="37.267801" lon="-3.762969">
        <ele>0.000000</ele>
        <time>2020-08-26T10:42:05.794Z</time>
      </trkpt>
      <trkpt lat="37.268606" lon="-3.762977">
        <ele>0.000000</ele>
        <time>2020-08-26T10:42:05.794Z</time>
      </trkpt>
      <trkpt lat="37.270048" lon="-3.763409">
        <ele>0.000000</ele>
        <time>2020-08-26T10:42:05.794Z</time>
      </trkpt>
      <trkpt lat="37.271177" lon="-3.763919">
        <ele>0.000000</ele>
        <time>2020-08-26T10:42:05.794Z</time>
      </trkpt>
      <trkpt lat="37.272435" lon="-3.764023">
        <ele>0.000000</ele>
        <time>2020-08-26T10:42:05.794Z</time>
      </trkpt>
      <trkpt lat="37.273240" lon="-3.763846">
        <ele>0.000000</ele>
        <time>2020-08-26T10:42:05.794Z</time>
      </trkpt>
      <trkpt lat="37.273772" lon="-3.764041">
        <ele>0.000000</ele>
        <time>2020-08-26T10:42:05.794Z</time>
      </trkpt>
      <trkpt lat="37.274188" lon="-3.764426">
        <ele>0.000000</ele>
        <time>2020-08-26T10:42:05.794Z</time>
      </trkpt>
      <trkpt lat="37.275576" lon="-3.764345">
        <ele>0.000000</ele>
        <time>2020-08-26T10:42:05.794Z</time>
      </trkpt>
      <trkpt lat="37.277214" lon="-3.764004">
        <ele>0.000000</ele>
        <time>2020-08-26T10:42:05.794Z</time>
      </trkpt>
      <trkpt lat="37.278409" lon="-3.763863">
        <ele>0.000000</ele>
        <time>2020-08-26T10:42:05.794Z</time>
      </trkpt>
      <trkpt lat="37.279024" lon="-3.763523">
        <ele>0.000000</ele>
        <time>2020-08-26T10:42:05.794Z</time>
      </trkpt>
      <trkpt lat="37.280377" lon="-3.763108">
        <ele>0.000000</ele>
        <time>2020-08-26T10:42:05.794Z</time>
      </trkpt>
      <trkpt lat="37.281598" lon="-3.762359">
        <ele>0.000000</ele>
        <time>2020-08-26T10:42:05.794Z</time>
      </trkpt>
      <trkpt lat="37.282763" lon="-3.761728">
        <ele>0.000000</ele>
        <time>2020-08-26T10:42:05.794Z</time>
      </trkpt>
      <trkpt lat="37.283943" lon="-3.761502">
        <ele>0.000000</ele>
        <time>2020-08-26T10:42:05.794Z</time>
      </trkpt>
      <trkpt lat="37.284891" lon="-3.761582">
        <ele>0.000000</ele>
        <time>2020-08-26T10:42:05.794Z</time>
      </trkpt>
      <trkpt lat="37.285142" lon="-3.761760">
        <ele>0.000000</ele>
        <time>2020-08-26T10:42:05.794Z</time>
      </trkpt>
      <trkpt lat="37.285804" lon="-3.762000">
        <ele>0.000000</ele>
        <time>2020-08-26T10:42:05.794Z</time>
      </trkpt>
      <trkpt lat="37.286494" lon="-3.762124">
        <ele>0.000000</ele>
        <time>2020-08-26T10:42:05.794Z</time>
      </trkpt>
      <trkpt lat="37.287446" lon="-3.762145">
        <ele>0.000000</ele>
        <time>2020-08-26T10:42:05.794Z</time>
      </trkpt>
      <trkpt lat="37.288222" lon="-3.761908">
        <ele>0.000000</ele>
        <time>2020-08-26T10:42:05.794Z</time>
      </trkpt>
      <trkpt lat="37.289267" lon="-3.761977">
        <ele>0.000000</ele>
        <time>2020-08-26T10:42:05.794Z</time>
      </trkpt>
      <trkpt lat="37.290078" lon="-3.762172">
        <ele>0.000000</ele>
        <time>2020-08-26T10:42:05.794Z</time>
      </trkpt>
      <trkpt lat="37.290864" lon="-3.761934">
        <ele>0.000000</ele>
        <time>2020-08-26T10:42:05.794Z</time>
      </trkpt>
      <trkpt lat="37.291537" lon="-3.761871">
        <ele>0.000000</ele>
        <time>2020-08-26T10:42:05.794Z</time>
      </trkpt>
      <trkpt lat="37.292277" lon="-3.761492">
        <ele>0.000000</ele>
        <time>2020-08-26T10:42:05.794Z</time>
      </trkpt>
      <trkpt lat="37.293359" lon="-3.761597">
        <ele>0.000000</ele>
        <time>2020-08-26T10:42:05.794Z</time>
      </trkpt>
      <trkpt lat="37.294357" lon="-3.761759">
        <ele>0.000000</ele>
        <time>2020-08-26T10:42:05.794Z</time>
      </trkpt>
      <trkpt lat="37.295133" lon="-3.761743">
        <ele>0.000000</ele>
        <time>2020-08-26T10:42:05.794Z</time>
      </trkpt>
      <trkpt lat="37.296285" lon="-3.762079">
        <ele>0.000000</ele>
        <time>2020-08-26T10:42:05.794Z</time>
      </trkpt>
      <trkpt lat="37.296798" lon="-3.762403">
        <ele>0.000000</ele>
        <time>2020-08-26T10:42:05.794Z</time>
      </trkpt>
      <trkpt lat="37.297571" lon="-3.763655">
        <ele>0.000000</ele>
        <time>2020-08-26T10:42:05.794Z</time>
      </trkpt>
      <trkpt lat="37.298400" lon="-3.765854">
        <ele>0.000000</ele>
        <time>2020-08-26T10:42:05.794Z</time>
      </trkpt>
      <trkpt lat="37.298960" lon="-3.766000">
        <ele>0.000000</ele>
        <time>2020-08-26T10:42:05.794Z</time>
      </trkpt>
      <trkpt lat="37.299697" lon="-3.766595">
        <ele>0.000000</ele>
        <time>2020-08-26T10:42:05.794Z</time>
      </trkpt>
      <trkpt lat="37.300620" lon="-3.767629">
        <ele>0.000000</ele>
        <time>2020-08-26T10:42:05.794Z</time>
      </trkpt>
      <trkpt lat="37.301613" lon="-3.768586">
        <ele>0.000000</ele>
        <time>2020-08-26T10:42:05.794Z</time>
      </trkpt>
      <trkpt lat="37.302498" lon="-3.768875">
        <ele>0.000000</ele>
        <time>2020-08-26T10:42:05.794Z</time>
      </trkpt>
      <trkpt lat="37.303448" lon="-3.769154">
        <ele>0.000000</ele>
        <time>2020-08-26T10:42:05.794Z</time>
      </trkpt>
      <trkpt lat="37.303830" lon="-3.769380">
        <ele>0.000000</ele>
        <time>2020-08-26T10:42:05.794Z</time>
      </trkpt>
      <trkpt lat="37.305335" lon="-3.769071">
        <ele>0.000000</ele>
        <time>2020-08-26T10:42:05.794Z</time>
      </trkpt>
      <trkpt lat="37.306087" lon="-3.769636">
        <ele>0.000000</ele>
        <time>2020-08-26T10:42:05.794Z</time>
      </trkpt>
      <trkpt lat="37.306702" lon="-3.769912">
        <ele>0.000000</ele>
        <time>2020-08-26T10:42:05.794Z</time>
      </trkpt>
      <trkpt lat="37.307242" lon="-3.770022">
        <ele>0.000000</ele>
        <time>2020-08-26T10:42:05.794Z</time>
      </trkpt>
      <trkpt lat="37.307832" lon="-3.769806">
        <ele>0.000000</ele>
        <time>2020-08-26T10:42:05.794Z</time>
      </trkpt>
      <trkpt lat="37.308628" lon="-3.769428">
        <ele>0.000000</ele>
        <time>2020-08-26T10:42:05.794Z</time>
      </trkpt>
      <trkpt lat="37.309700" lon="-3.769626">
        <ele>0.000000</ele>
        <time>2020-08-26T10:42:05.794Z</time>
      </trkpt>
      <trkpt lat="37.310056" lon="-3.769548">
        <ele>0.000000</ele>
        <time>2020-08-26T10:42:05.794Z</time>
      </trkpt>
      <trkpt lat="37.310588" lon="-3.769300">
        <ele>0.000000</ele>
        <time>2020-08-26T10:42:05.794Z</time>
      </trkpt>
      <trkpt lat="37.311791" lon="-3.769753">
        <ele>0.000000</ele>
        <time>2020-08-26T10:42:05.794Z</time>
      </trkpt>
      <trkpt lat="37.312751" lon="-3.769891">
        <ele>0.000000</ele>
        <time>2020-08-26T10:42:05.794Z</time>
      </trkpt>
      <trkpt lat="37.313624" lon="-3.769833">
        <ele>0.000000</ele>
        <time>2020-08-26T10:42:05.794Z</time>
      </trkpt>
      <trkpt lat="37.315510" lon="-3.769646">
        <ele>0.000000</ele>
        <time>2020-08-26T10:42:05.794Z</time>
      </trkpt>
      <trkpt lat="37.317301" lon="-3.769516">
        <ele>0.000000</ele>
        <time>2020-08-26T10:42:05.794Z</time>
      </trkpt>
      <trkpt lat="37.317933" lon="-3.769734">
        <ele>0.000000</ele>
        <time>2020-08-26T10:42:05.794Z</time>
      </trkpt>
      <trkpt lat="37.318081" lon="-3.769981">
        <ele>0.000000</ele>
        <time>2020-08-26T10:42:05.794Z</time>
      </trkpt>
      <trkpt lat="37.318649" lon="-3.770267">
        <ele>0.000000</ele>
        <time>2020-08-26T10:42:05.794Z</time>
      </trkpt>
      <trkpt lat="37.319157" lon="-3.770449">
        <ele>0.000000</ele>
        <time>2020-08-26T10:42:05.794Z</time>
      </trkpt>
      <trkpt lat="37.319861" lon="-3.770571">
        <ele>0.000000</ele>
        <time>2020-08-26T10:42:05.794Z</time>
      </trkpt>
      <trkpt lat="37.320796" lon="-3.770347">
        <ele>0.000000</ele>
        <time>2020-08-26T10:42:05.794Z</time>
      </trkpt>
      <trkpt lat="37.321841" lon="-3.770381">
        <ele>0.000000</ele>
        <time>2020-08-26T10:42:05.794Z</time>
      </trkpt>
      <trkpt lat="37.322527" lon="-3.770218">
        <ele>0.000000</ele>
        <time>2020-08-26T10:42:05.794Z</time>
      </trkpt>
      <trkpt lat="37.323396" lon="-3.769754">
        <ele>0.000000</ele>
        <time>2020-08-26T10:42:05.794Z</time>
      </trkpt>
      <trkpt lat="37.323867" lon="-3.769034">
        <ele>0.000000</ele>
        <time>2020-08-26T10:42:05.794Z</time>
      </trkpt>
      <trkpt lat="37.324224" lon="-3.768734">
        <ele>0.000000</ele>
        <time>2020-08-26T10:42:05.794Z</time>
      </trkpt>
      <trkpt lat="37.324804" lon="-3.768553">
        <ele>0.000000</ele>
        <time>2020-08-26T10:42:05.794Z</time>
      </trkpt>
      <trkpt lat="37.325555" lon="-3.768479">
        <ele>0.000000</ele>
        <time>2020-08-26T10:42:05.794Z</time>
      </trkpt>
      <trkpt lat="37.326979" lon="-3.768425">
        <ele>0.000000</ele>
        <time>2020-08-26T10:42:05.794Z</time>
      </trkpt>
      <trkpt lat="37.327504" lon="-3.768357">
        <ele>0.000000</ele>
        <time>2020-08-26T10:42:05.794Z</time>
      </trkpt>
      <trkpt lat="37.328668" lon="-3.767950">
        <ele>0.000000</ele>
        <time>2020-08-26T10:42:05.794Z</time>
      </trkpt>
      <trkpt lat="37.329501" lon="-3.767736">
        <ele>0.000000</ele>
        <time>2020-08-26T10:42:05.794Z</time>
      </trkpt>
      <trkpt lat="37.330141" lon="-3.767932">
        <ele>0.000000</ele>
        <time>2020-08-26T10:42:05.794Z</time>
      </trkpt>
      <trkpt lat="37.330478" lon="-3.768198">
        <ele>0.000000</ele>
        <time>2020-08-26T10:42:05.794Z</time>
      </trkpt>
      <trkpt lat="37.330686" lon="-3.768419">
        <ele>0.000000</ele>
        <time>2020-08-26T10:42:05.794Z</time>
      </trkpt>
      <trkpt lat="37.330811" lon="-3.768871">
        <ele>0.000000</ele>
        <time>2020-08-26T10:42:05.794Z</time>
      </trkpt>
      <trkpt lat="37.330844" lon="-3.769180">
        <ele>0.000000</ele>
        <time>2020-08-26T10:42:05.794Z</time>
      </trkpt>
      <trkpt lat="37.330982" lon="-3.769502">
        <ele>0.000000</ele>
        <time>2020-08-26T10:42:05.794Z</time>
      </trkpt>
      <trkpt lat="37.331286" lon="-3.769490">
        <ele>0.000000</ele>
        <time>2020-08-26T10:42:05.794Z</time>
      </trkpt>
      <trkpt lat="37.331588" lon="-3.769567">
        <ele>0.000000</ele>
        <time>2020-08-26T10:42:05.794Z</time>
      </trkpt>
      <trkpt lat="37.331842" lon="-3.769915">
        <ele>0.000000</ele>
        <time>2020-08-26T10:42:05.794Z</time>
      </trkpt>
      <trkpt lat="37.332249" lon="-3.770143">
        <ele>0.000000</ele>
        <time>2020-08-26T10:42:05.794Z</time>
      </trkpt>
      <trkpt lat="37.332608" lon="-3.770482">
        <ele>0.000000</ele>
        <time>2020-08-26T10:42:05.794Z</time>
      </trkpt>
      <trkpt lat="37.332530" lon="-3.770072">
        <ele>0.000000</ele>
        <time>2020-08-26T10:42:05.794Z</time>
      </trkpt>
      <trkpt lat="37.332264" lon="-3.769646">
        <ele>0.000000</ele>
        <time>2020-08-26T10:42:05.794Z</time>
      </trkpt>
      <trkpt lat="37.332186" lon="-3.769076">
        <ele>0.000000</ele>
        <time>2020-08-26T10:42:05.794Z</time>
      </trkpt>
      <trkpt lat="37.332096" lon="-3.768681">
        <ele>0.000000</ele>
        <time>2020-08-26T10:42:05.794Z</time>
      </trkpt>
      <trkpt lat="37.332527" lon="-3.768671">
        <ele>0.000000</ele>
        <time>2020-08-26T10:42:05.794Z</time>
      </trkpt>
      <trkpt lat="37.333191" lon="-3.768721">
        <ele>0.000000</ele>
        <time>2020-08-26T10:42:05.794Z</time>
      </trkpt>
      <trkpt lat="37.333437" lon="-3.768636">
        <ele>0.000000</ele>
        <time>2020-08-26T10:42:05.794Z</time>
      </trkpt>
      <trkpt lat="37.334133" lon="-3.769140">
        <ele>0.000000</ele>
        <time>2020-08-26T10:42:05.794Z</time>
      </trkpt>
      <trkpt lat="37.334957" lon="-3.769688">
        <ele>0.000000</ele>
        <time>2020-08-26T10:42:05.794Z</time>
      </trkpt>
      <trkpt lat="37.335365" lon="-3.769809">
        <ele>0.000000</ele>
        <time>2020-08-26T10:42:05.794Z</time>
      </trkpt>
      <trkpt lat="37.335478" lon="-3.769646">
        <ele>0.000000</ele>
        <time>2020-08-26T10:42:05.794Z</time>
      </trkpt>
      <trkpt lat="37.335630" lon="-3.769296">
        <ele>0.000000</ele>
        <time>2020-08-26T10:42:05.794Z</time>
      </trkpt>
      <trkpt lat="37.335819" lon="-3.768970">
        <ele>0.000000</ele>
        <time>2020-08-26T10:42:05.794Z</time>
      </trkpt>
      <trkpt lat="37.336061" lon="-3.769253">
        <ele>0.000000</ele>
        <time>2020-08-26T10:42:05.794Z</time>
      </trkpt>
      <trkpt lat="37.336076" lon="-3.769816">
        <ele>0.000000</ele>
        <time>2020-08-26T10:42:05.794Z</time>
      </trkpt>
      <trkpt lat="37.335654" lon="-3.771476">
        <ele>0.000000</ele>
        <time>2020-08-26T10:42:05.794Z</time>
      </trkpt>
      <trkpt lat="37.335447" lon="-3.771614">
        <ele>0.000000</ele>
        <time>2020-08-26T10:42:05.794Z</time>
      </trkpt>
      <trkpt lat="37.335133" lon="-3.771369">
        <ele>0.000000</ele>
        <time>2020-08-26T10:42:05.794Z</time>
      </trkpt>
      <trkpt lat="37.335148" lon="-3.771681">
        <ele>0.000000</ele>
        <time>2020-08-26T10:42:05.794Z</time>
      </trkpt>
      <trkpt lat="37.334936" lon="-3.772687">
        <ele>0.000000</ele>
        <time>2020-08-26T10:42:05.794Z</time>
      </trkpt>
      <trkpt lat="37.334799" lon="-3.773576">
        <ele>0.000000</ele>
        <time>2020-08-26T10:42:05.794Z</time>
      </trkpt>
      <trkpt lat="37.334533" lon="-3.774253">
        <ele>0.000000</ele>
        <time>2020-08-26T10:42:05.794Z</time>
      </trkpt>
      <trkpt lat="37.334566" lon="-3.774980">
        <ele>0.000000</ele>
        <time>2020-08-26T10:42:05.794Z</time>
      </trkpt>
      <trkpt lat="37.334479" lon="-3.775202">
        <ele>0.000000</ele>
        <time>2020-08-26T10:42:05.794Z</time>
      </trkpt>
      <trkpt lat="37.334314" lon="-3.775360">
        <ele>0.000000</ele>
        <time>2020-08-26T10:42:05.794Z</time>
      </trkpt>
      <trkpt lat="37.334117" lon="-3.775212">
        <ele>0.000000</ele>
        <time>2020-08-26T10:42:05.794Z</time>
      </trkpt>
      <trkpt lat="37.334254" lon="-3.775680">
        <ele>0.000000</ele>
        <time>2020-08-26T10:42:05.794Z</time>
      </trkpt>
      <trkpt lat="37.334580" lon="-3.775824">
        <ele>0.000000</ele>
        <time>2020-08-26T10:42:05.794Z</time>
      </trkpt>
      <trkpt lat="37.334601" lon="-3.776136">
        <ele>0.000000</ele>
        <time>2020-08-26T10:42:05.794Z</time>
      </trkpt>
      <trkpt lat="37.334951" lon="-3.776184">
        <ele>0.000000</ele>
        <time>2020-08-26T10:42:05.794Z</time>
      </trkpt>
      <trkpt lat="37.335405" lon="-3.775692">
        <ele>0.000000</ele>
        <time>2020-08-26T10:42:05.794Z</time>
      </trkpt>
      <trkpt lat="37.336260" lon="-3.775584">
        <ele>0.000000</ele>
        <time>2020-08-26T10:42:05.794Z</time>
      </trkpt>
      <trkpt lat="37.336526" lon="-3.775923">
        <ele>0.000000</ele>
        <time>2020-08-26T10:42:05.794Z</time>
      </trkpt>
      <trkpt lat="37.336942" lon="-3.776598">
        <ele>0.000000</ele>
        <time>2020-08-26T10:42:05.794Z</time>
      </trkpt>
      <trkpt lat="37.337172" lon="-3.777112">
        <ele>0.000000</ele>
        <time>2020-08-26T10:42:05.794Z</time>
      </trkpt>
      <trkpt lat="37.337603" lon="-3.777058">
        <ele>0.000000</ele>
        <time>2020-08-26T10:42:05.794Z</time>
      </trkpt>
      <trkpt lat="37.337869" lon="-3.776748">
        <ele>0.000000</ele>
        <time>2020-08-26T10:42:05.794Z</time>
      </trkpt>
      <trkpt lat="37.337913" lon="-3.775764">
        <ele>0.000000</ele>
        <time>2020-08-26T10:42:05.794Z</time>
      </trkpt>
      <trkpt lat="37.338276" lon="-3.775795">
        <ele>0.000000</ele>
        <time>2020-08-26T10:42:05.794Z</time>
      </trkpt>
      <trkpt lat="37.338718" lon="-3.775889">
        <ele>0.000000</ele>
        <time>2020-08-26T10:42:05.794Z</time>
      </trkpt>
      <trkpt lat="37.339130" lon="-3.775893">
        <ele>0.000000</ele>
        <time>2020-08-26T10:42:05.794Z</time>
      </trkpt>
      <trkpt lat="37.339166" lon="-3.776128">
        <ele>0.000000</ele>
        <time>2020-08-26T10:42:05.794Z</time>
      </trkpt>
      <trkpt lat="37.339007" lon="-3.776328">
        <ele>0.000000</ele>
        <time>2020-08-26T10:42:05.794Z</time>
      </trkpt>
      <trkpt lat="37.338797" lon="-3.776340">
        <ele>0.000000</ele>
        <time>2020-08-26T10:42:05.794Z</time>
      </trkpt>
      <trkpt lat="37.338493" lon="-3.776425">
        <ele>0.000000</ele>
        <time>2020-08-26T10:42:05.794Z</time>
      </trkpt>
      <trkpt lat="37.338725" lon="-3.776660">
        <ele>0.000000</ele>
        <time>2020-08-26T10:42:05.794Z</time>
      </trkpt>
      <trkpt lat="37.339050" lon="-3.776824">
        <ele>0.000000</ele>
        <time>2020-08-26T10:42:05.794Z</time>
      </trkpt>
      <trkpt lat="37.339459" lon="-3.777162">
        <ele>0.000000</ele>
        <time>2020-08-26T10:42:05.794Z</time>
      </trkpt>
      <trkpt lat="37.339570" lon="-3.777633">
        <ele>0.000000</ele>
        <time>2020-08-26T10:42:05.794Z</time>
      </trkpt>
      <trkpt lat="37.339809" lon="-3.778080">
        <ele>0.000000</ele>
        <time>2020-08-26T10:42:05.794Z</time>
      </trkpt>
      <trkpt lat="37.339680" lon="-3.778626">
        <ele>0.000000</ele>
        <time>2020-08-26T10:42:05.794Z</time>
      </trkpt>
      <trkpt lat="37.339582" lon="-3.779297">
        <ele>0.000000</ele>
        <time>2020-08-26T10:42:05.794Z</time>
      </trkpt>
      <trkpt lat="37.339544" lon="-3.779851">
        <ele>0.000000</ele>
        <time>2020-08-26T10:42:05.794Z</time>
      </trkpt>
      <trkpt lat="37.339005" lon="-3.780861">
        <ele>0.000000</ele>
        <time>2020-08-26T10:42:05.794Z</time>
      </trkpt>
      <trkpt lat="37.338528" lon="-3.781957">
        <ele>0.000000</ele>
        <time>2020-08-26T10:42:05.794Z</time>
      </trkpt>
      <trkpt lat="37.338938" lon="-3.782595">
        <ele>0.000000</ele>
        <time>2020-08-26T10:42:05.794Z</time>
      </trkpt>
      <trkpt lat="37.339249" lon="-3.783770">
        <ele>0.000000</ele>
        <time>2020-08-26T10:42:05.794Z</time>
      </trkpt>
      <trkpt lat="37.339488" lon="-3.784843">
        <ele>0.000000</ele>
        <time>2020-08-26T10:42:05.794Z</time>
      </trkpt>
      <trkpt lat="37.339985" lon="-3.785770">
        <ele>0.000000</ele>
        <time>2020-08-26T10:42:05.794Z</time>
      </trkpt>
      <trkpt lat="37.340148" lon="-3.786686">
        <ele>0.000000</ele>
        <time>2020-08-26T10:42:05.794Z</time>
      </trkpt>
      <trkpt lat="37.340122" lon="-3.786733">
        <ele>0.000000</ele>
        <time>2020-08-26T10:42:05.794Z</time>
      </trkpt>
      <trkpt lat="37.340249" lon="-3.787479">
        <ele>0.000000</ele>
        <time>2020-08-26T10:42:05.794Z</time>
      </trkpt>
      <trkpt lat="37.340444" lon="-3.788033">
        <ele>0.000000</ele>
        <time>2020-08-26T10:42:05.794Z</time>
      </trkpt>
      <trkpt lat="37.340655" lon="-3.788265">
        <ele>0.000000</ele>
        <time>2020-08-26T10:42:05.794Z</time>
      </trkpt>
      <trkpt lat="37.340843" lon="-3.788625">
        <ele>0.000000</ele>
        <time>2020-08-26T10:42:05.794Z</time>
      </trkpt>
      <trkpt lat="37.340907" lon="-3.789030">
        <ele>0.000000</ele>
        <time>2020-08-26T10:42:05.794Z</time>
      </trkpt>
      <trkpt lat="37.341877" lon="-3.790033">
        <ele>0.000000</ele>
        <time>2020-08-26T10:42:05.794Z</time>
      </trkpt>
      <trkpt lat="37.342372" lon="-3.790655">
        <ele>0.000000</ele>
        <time>2020-08-26T10:42:05.794Z</time>
      </trkpt>
      <trkpt lat="37.342773" lon="-3.791027">
        <ele>0.000000</ele>
        <time>2020-08-26T10:42:05.794Z</time>
      </trkpt>
      <trkpt lat="37.342998" lon="-3.791351">
        <ele>0.000000</ele>
        <time>2020-08-26T10:42:05.794Z</time>
      </trkpt>
      <trkpt lat="37.343049" lon="-3.791581">
        <ele>0.000000</ele>
        <time>2020-08-26T10:42:05.794Z</time>
      </trkpt>
      <trkpt lat="37.343283" lon="-3.791629">
        <ele>0.000000</ele>
        <time>2020-08-26T10:42:05.794Z</time>
      </trkpt>
      <trkpt lat="37.343495" lon="-3.791834">
        <ele>0.000000</ele>
        <time>2020-08-26T10:42:05.794Z</time>
      </trkpt>
      <trkpt lat="37.343469" lon="-3.792191">
        <ele>0.000000</ele>
        <time>2020-08-26T10:42:05.794Z</time>
      </trkpt>
      <trkpt lat="37.343507" lon="-3.792358">
        <ele>0.000000</ele>
        <time>2020-08-26T10:42:05.794Z</time>
      </trkpt>
      <trkpt lat="37.343658" lon="-3.792783">
        <ele>0.000000</ele>
        <time>2020-08-26T10:42:05.794Z</time>
      </trkpt>
      <trkpt lat="37.344044" lon="-3.793237">
        <ele>0.000000</ele>
        <time>2020-08-26T10:42:05.794Z</time>
      </trkpt>
      <trkpt lat="37.344421" lon="-3.793912">
        <ele>0.000000</ele>
        <time>2020-08-26T10:42:05.794Z</time>
      </trkpt>
      <trkpt lat="37.344582" lon="-3.793997">
        <ele>0.000000</ele>
        <time>2020-08-26T10:42:05.794Z</time>
      </trkpt>
      <trkpt lat="37.345293" lon="-3.794216">
        <ele>0.000000</ele>
        <time>2020-08-26T10:42:05.794Z</time>
      </trkpt>
      <trkpt lat="37.345490" lon="-3.794466">
        <ele>0.000000</ele>
        <time>2020-08-26T10:42:05.794Z</time>
      </trkpt>
      <trkpt lat="37.345826" lon="-3.794755">
        <ele>0.000000</ele>
        <time>2020-08-26T10:42:05.794Z</time>
      </trkpt>
      <trkpt lat="37.346438" lon="-3.795404">
        <ele>0.000000</ele>
        <time>2020-08-26T10:42:05.794Z</time>
      </trkpt>
      <trkpt lat="37.347249" lon="-3.795937">
        <ele>0.000000</ele>
        <time>2020-08-26T10:42:05.794Z</time>
      </trkpt>
      <trkpt lat="37.347521" lon="-3.796023">
        <ele>0.000000</ele>
        <time>2020-08-26T10:42:05.794Z</time>
      </trkpt>
      <trkpt lat="37.347908" lon="-3.796339">
        <ele>0.000000</ele>
        <time>2020-08-26T10:42:05.794Z</time>
      </trkpt>
      <trkpt lat="37.348222" lon="-3.796508">
        <ele>0.000000</ele>
        <time>2020-08-26T10:42:05.794Z</time>
      </trkpt>
      <trkpt lat="37.348466" lon="-3.796327">
        <ele>0.000000</ele>
        <time>2020-08-26T10:42:05.794Z</time>
      </trkpt>
      <trkpt lat="37.348876" lon="-3.796414">
        <ele>0.000000</ele>
        <time>2020-08-26T10:42:05.794Z</time>
      </trkpt>
      <trkpt lat="37.349190" lon="-3.796675">
        <ele>0.000000</ele>
        <time>2020-08-26T10:42:05.794Z</time>
      </trkpt>
      <trkpt lat="37.349982" lon="-3.797111">
        <ele>0.000000</ele>
        <time>2020-08-26T10:42:05.794Z</time>
      </trkpt>
      <trkpt lat="37.350339" lon="-3.797229">
        <ele>0.000000</ele>
        <time>2020-08-26T10:42:05.794Z</time>
      </trkpt>
      <trkpt lat="37.350788" lon="-3.797115">
        <ele>0.000000</ele>
        <time>2020-08-26T10:42:05.794Z</time>
      </trkpt>
      <trkpt lat="37.351109" lon="-3.796958">
        <ele>0.000000</ele>
        <time>2020-08-26T10:42:05.794Z</time>
      </trkpt>
      <trkpt lat="37.351476" lon="-3.796929">
        <ele>0.000000</ele>
        <time>2020-08-26T10:42:05.794Z</time>
      </trkpt>
      <trkpt lat="37.352003" lon="-3.797688">
        <ele>0.000000</ele>
        <time>2020-08-26T10:42:05.794Z</time>
      </trkpt>
      <trkpt lat="37.352418" lon="-3.798180">
        <ele>0.000000</ele>
        <time>2020-08-26T10:42:05.794Z</time>
      </trkpt>
      <trkpt lat="37.352951" lon="-3.798673">
        <ele>0.000000</ele>
        <time>2020-08-26T10:42:05.794Z</time>
      </trkpt>
      <trkpt lat="37.353636" lon="-3.799388">
        <ele>0.000000</ele>
        <time>2020-08-26T10:42:05.794Z</time>
      </trkpt>
      <trkpt lat="37.354128" lon="-3.799412">
        <ele>0.000000</ele>
        <time>2020-08-26T10:42:05.794Z</time>
      </trkpt>
      <trkpt lat="37.354573" lon="-3.799650">
        <ele>0.000000</ele>
        <time>2020-08-26T10:42:05.794Z</time>
      </trkpt>
      <trkpt lat="37.355059" lon="-3.799661">
        <ele>0.000000</ele>
        <time>2020-08-26T10:42:05.794Z</time>
      </trkpt>
      <trkpt lat="37.355747" lon="-3.799871">
        <ele>0.000000</ele>
        <time>2020-08-26T10:42:05.794Z</time>
      </trkpt>
      <trkpt lat="37.356260" lon="-3.800106">
        <ele>0.000000</ele>
        <time>2020-08-26T10:42:05.794Z</time>
      </trkpt>
      <trkpt lat="37.356568" lon="-3.800072">
        <ele>0.000000</ele>
        <time>2020-08-26T10:42:05.794Z</time>
      </trkpt>
      <trkpt lat="37.357084" lon="-3.799939">
        <ele>0.000000</ele>
        <time>2020-08-26T10:42:05.794Z</time>
      </trkpt>
      <trkpt lat="37.357663" lon="-3.799946">
        <ele>0.000000</ele>
        <time>2020-08-26T10:42:05.794Z</time>
      </trkpt>
      <trkpt lat="37.358770" lon="-3.800187">
        <ele>0.000000</ele>
        <time>2020-08-26T10:42:05.794Z</time>
      </trkpt>
      <trkpt lat="37.359283" lon="-3.800276">
        <ele>0.000000</ele>
        <time>2020-08-26T10:42:05.794Z</time>
      </trkpt>
      <trkpt lat="37.360015" lon="-3.800706">
        <ele>0.000000</ele>
        <time>2020-08-26T10:42:05.794Z</time>
      </trkpt>
      <trkpt lat="37.360596" lon="-3.800556">
        <ele>0.000000</ele>
        <time>2020-08-26T10:42:05.794Z</time>
      </trkpt>
      <trkpt lat="37.360890" lon="-3.800541">
        <ele>0.000000</ele>
        <time>2020-08-26T10:42:05.794Z</time>
      </trkpt>
      <trkpt lat="37.361534" lon="-3.800833">
        <ele>0.000000</ele>
        <time>2020-08-26T10:42:05.794Z</time>
      </trkpt>
      <trkpt lat="37.361759" lon="-3.801083">
        <ele>0.000000</ele>
        <time>2020-08-26T10:42:05.794Z</time>
      </trkpt>
      <trkpt lat="37.362176" lon="-3.801474">
        <ele>0.000000</ele>
        <time>2020-08-26T10:42:05.794Z</time>
      </trkpt>
      <trkpt lat="37.362496" lon="-3.801864">
        <ele>0.000000</ele>
        <time>2020-08-26T10:42:05.794Z</time>
      </trkpt>
      <trkpt lat="37.362949" lon="-3.802144">
        <ele>0.000000</ele>
        <time>2020-08-26T10:42:05.794Z</time>
      </trkpt>
      <trkpt lat="37.363253" lon="-3.802801">
        <ele>0.000000</ele>
        <time>2020-08-26T10:42:05.794Z</time>
      </trkpt>
      <trkpt lat="37.363835" lon="-3.803598">
        <ele>0.000000</ele>
        <time>2020-08-26T10:42:05.794Z</time>
      </trkpt>
      <trkpt lat="37.364093" lon="-3.803591">
        <ele>0.000000</ele>
        <time>2020-08-26T10:42:05.794Z</time>
      </trkpt>
      <trkpt lat="37.364232" lon="-3.803752">
        <ele>0.000000</ele>
        <time>2020-08-26T10:42:05.794Z</time>
      </trkpt>
      <trkpt lat="37.364397" lon="-3.804229">
        <ele>0.000000</ele>
        <time>2020-08-26T10:42:05.794Z</time>
      </trkpt>
      <trkpt lat="37.364387" lon="-3.804624">
        <ele>0.000000</ele>
        <time>2020-08-26T10:42:05.794Z</time>
      </trkpt>
      <trkpt lat="37.364421" lon="-3.804937">
        <ele>0.000000</ele>
        <time>2020-08-26T10:42:05.794Z</time>
      </trkpt>
      <trkpt lat="37.363881" lon="-3.805453">
        <ele>0.000000</ele>
        <time>2020-08-26T10:42:05.794Z</time>
      </trkpt>
      <trkpt lat="37.363564" lon="-3.805942">
        <ele>0.000000</ele>
        <time>2020-08-26T10:42:05.794Z</time>
      </trkpt>
      <trkpt lat="37.363678" lon="-3.807468">
        <ele>0.000000</ele>
        <time>2020-08-26T10:42:05.794Z</time>
      </trkpt>
      <trkpt lat="37.363579" lon="-3.808028">
        <ele>0.000000</ele>
        <time>2020-08-26T10:42:05.794Z</time>
      </trkpt>
      <trkpt lat="37.363317" lon="-3.808715">
        <ele>0.000000</ele>
        <time>2020-08-26T10:42:05.794Z</time>
      </trkpt>
      <trkpt lat="37.363278" lon="-3.809610">
        <ele>0.000000</ele>
        <time>2020-08-26T10:42:05.794Z</time>
      </trkpt>
      <trkpt lat="37.363484" lon="-3.810137">
        <ele>0.000000</ele>
        <time>2020-08-26T10:42:05.794Z</time>
      </trkpt>
      <trkpt lat="37.363604" lon="-3.811712">
        <ele>0.000000</ele>
        <time>2020-08-26T10:42:05.794Z</time>
      </trkpt>
      <trkpt lat="37.363961" lon="-3.813126">
        <ele>0.000000</ele>
        <time>2020-08-26T10:42:05.794Z</time>
      </trkpt>
      <trkpt lat="37.364395" lon="-3.814704">
        <ele>0.000000</ele>
        <time>2020-08-26T10:42:05.794Z</time>
      </trkpt>
      <trkpt lat="37.364447" lon="-3.815247">
        <ele>0.000000</ele>
        <time>2020-08-26T10:42:05.794Z</time>
      </trkpt>
      <trkpt lat="37.364309" lon="-3.819246">
        <ele>0.000000</ele>
        <time>2020-08-26T10:42:05.794Z</time>
      </trkpt>
      <trkpt lat="37.364107" lon="-3.822407">
        <ele>0.000000</ele>
        <time>2020-08-26T10:42:05.794Z</time>
      </trkpt>
      <trkpt lat="37.364231" lon="-3.823155">
        <ele>0.000000</ele>
        <time>2020-08-26T10:42:05.794Z</time>
      </trkpt>
      <trkpt lat="37.364841" lon="-3.825083">
        <ele>0.000000</ele>
        <time>2020-08-26T10:42:05.794Z</time>
      </trkpt>
      <trkpt lat="37.365445" lon="-3.824814">
        <ele>0.000000</ele>
        <time>2020-08-26T10:42:05.794Z</time>
      </trkpt>
      <trkpt lat="37.365733" lon="-3.824596">
        <ele>0.000000</ele>
        <time>2020-08-26T10:42:05.794Z</time>
      </trkpt>
      <trkpt lat="37.365926" lon="-3.824361">
        <ele>0.000000</ele>
        <time>2020-08-26T10:42:05.794Z</time>
      </trkpt>
      <trkpt lat="37.366332" lon="-3.823996">
        <ele>0.000000</ele>
        <time>2020-08-26T10:42:05.794Z</time>
      </trkpt>
      <trkpt lat="37.367631" lon="-3.823063">
        <ele>0.000000</ele>
        <time>2020-08-26T10:42:05.794Z</time>
      </trkpt>
      <trkpt lat="37.368838" lon="-3.823637">
        <ele>0.000000</ele>
        <time>2020-08-26T10:42:05.794Z</time>
      </trkpt>
      <trkpt lat="37.370045" lon="-3.823319">
        <ele>0.000000</ele>
        <time>2020-08-26T10:42:05.794Z</time>
      </trkpt>
      <trkpt lat="37.370701" lon="-3.823359">
        <ele>0.000000</ele>
        <time>2020-08-26T10:42:05.794Z</time>
      </trkpt>
      <trkpt lat="37.371218" lon="-3.823589">
        <ele>0.000000</ele>
        <time>2020-08-26T10:42:05.794Z</time>
      </trkpt>
      <trkpt lat="37.371406" lon="-3.823950">
        <ele>0.000000</ele>
        <time>2020-08-26T10:42:05.794Z</time>
      </trkpt>
      <trkpt lat="37.371931" lon="-3.824498">
        <ele>0.000000</ele>
        <time>2020-08-26T10:42:05.794Z</time>
      </trkpt>
      <trkpt lat="37.372672" lon="-3.824644">
        <ele>0.000000</ele>
        <time>2020-08-26T10:42:05.794Z</time>
      </trkpt>
      <trkpt lat="37.373374" lon="-3.824900">
        <ele>0.000000</ele>
        <time>2020-08-26T10:42:05.794Z</time>
      </trkpt>
      <trkpt lat="37.373857" lon="-3.825209">
        <ele>0.000000</ele>
        <time>2020-08-26T10:42:05.794Z</time>
      </trkpt>
      <trkpt lat="37.374230" lon="-3.825644">
        <ele>0.000000</ele>
        <time>2020-08-26T10:42:05.794Z</time>
      </trkpt>
      <trkpt lat="37.374458" lon="-3.826347">
        <ele>0.000000</ele>
        <time>2020-08-26T10:42:05.794Z</time>
      </trkpt>
      <trkpt lat="37.374831" lon="-3.826673">
        <ele>0.000000</ele>
        <time>2020-08-26T10:42:05.794Z</time>
      </trkpt>
      <trkpt lat="37.375211" lon="-3.826888">
        <ele>0.000000</ele>
        <time>2020-08-26T10:42:05.794Z</time>
      </trkpt>
      <trkpt lat="37.375434" lon="-3.827553">
        <ele>0.000000</ele>
        <time>2020-08-26T10:42:05.794Z</time>
      </trkpt>
      <trkpt lat="37.375670" lon="-3.828481">
        <ele>0.000000</ele>
        <time>2020-08-26T10:42:05.794Z</time>
      </trkpt>
      <trkpt lat="37.375593" lon="-3.829290">
        <ele>0.000000</ele>
        <time>2020-08-26T10:42:05.794Z</time>
      </trkpt>
      <trkpt lat="37.375611" lon="-3.829916">
        <ele>0.000000</ele>
        <time>2020-08-26T10:42:05.794Z</time>
      </trkpt>
      <trkpt lat="37.375681" lon="-3.830413">
        <ele>0.000000</ele>
        <time>2020-08-26T10:42:05.794Z</time>
      </trkpt>
      <trkpt lat="37.375937" lon="-3.830637">
        <ele>0.000000</ele>
        <time>2020-08-26T10:42:05.794Z</time>
      </trkpt>
      <trkpt lat="37.376118" lon="-3.830943">
        <ele>0.000000</ele>
        <time>2020-08-26T10:42:05.794Z</time>
      </trkpt>
      <trkpt lat="37.376236" lon="-3.831946">
        <ele>0.000000</ele>
        <time>2020-08-26T10:42:05.794Z</time>
      </trkpt>
      <trkpt lat="37.376350" lon="-3.832380">
        <ele>0.000000</ele>
        <time>2020-08-26T10:42:05.794Z</time>
      </trkpt>
      <trkpt lat="37.377214" lon="-3.833797">
        <ele>0.000000</ele>
        <time>2020-08-26T10:42:05.794Z</time>
      </trkpt>
      <trkpt lat="37.377936" lon="-3.834559">
        <ele>0.000000</ele>
        <time>2020-08-26T10:42:05.794Z</time>
      </trkpt>
      <trkpt lat="37.378450" lon="-3.835558">
        <ele>0.000000</ele>
        <time>2020-08-26T10:42:05.794Z</time>
      </trkpt>
      <trkpt lat="37.379068" lon="-3.836338">
        <ele>0.000000</ele>
        <time>2020-08-26T10:42:05.794Z</time>
      </trkpt>
      <trkpt lat="37.379571" lon="-3.837354">
        <ele>0.000000</ele>
        <time>2020-08-26T10:42:05.794Z</time>
      </trkpt>
      <trkpt lat="37.380104" lon="-3.838614">
        <ele>0.000000</ele>
        <time>2020-08-26T10:42:05.794Z</time>
      </trkpt>
      <trkpt lat="37.380596" lon="-3.839344">
        <ele>0.000000</ele>
        <time>2020-08-26T10:42:05.794Z</time>
      </trkpt>
      <trkpt lat="37.381483" lon="-3.840458">
        <ele>0.000000</ele>
        <time>2020-08-26T10:42:05.794Z</time>
      </trkpt>
      <trkpt lat="37.382074" lon="-3.841127">
        <ele>0.000000</ele>
        <time>2020-08-26T10:42:05.794Z</time>
      </trkpt>
      <trkpt lat="37.382608" lon="-3.841445">
        <ele>0.000000</ele>
        <time>2020-08-26T10:42:05.794Z</time>
      </trkpt>
      <trkpt lat="37.382979" lon="-3.841799">
        <ele>0.000000</ele>
        <time>2020-08-26T10:42:05.794Z</time>
      </trkpt>
      <trkpt lat="37.383482" lon="-3.842357">
        <ele>0.000000</ele>
        <time>2020-08-26T10:42:05.794Z</time>
      </trkpt>
      <trkpt lat="37.383830" lon="-3.842470">
        <ele>0.000000</ele>
        <time>2020-08-26T10:42:05.794Z</time>
      </trkpt>
      <trkpt lat="37.384742" lon="-3.843264">
        <ele>0.000000</ele>
        <time>2020-08-26T10:42:05.794Z</time>
      </trkpt>
      <trkpt lat="37.385139" lon="-3.843700">
        <ele>0.000000</ele>
        <time>2020-08-26T10:42:05.794Z</time>
      </trkpt>
      <trkpt lat="37.385452" lon="-3.844182">
        <ele>0.000000</ele>
        <time>2020-08-26T10:42:05.794Z</time>
      </trkpt>
      <trkpt lat="37.386351" lon="-3.845682">
        <ele>0.000000</ele>
        <time>2020-08-26T10:42:05.794Z</time>
      </trkpt>
      <trkpt lat="37.386276" lon="-3.845948">
        <ele>0.000000</ele>
        <time>2020-08-26T10:42:05.794Z</time>
      </trkpt>
      <trkpt lat="37.386213" lon="-3.846518">
        <ele>0.000000</ele>
        <time>2020-08-26T10:42:05.794Z</time>
      </trkpt>
      <trkpt lat="37.386201" lon="-3.847162">
        <ele>0.000000</ele>
        <time>2020-08-26T10:42:05.794Z</time>
      </trkpt>
      <trkpt lat="37.386855" lon="-3.851125">
        <ele>0.000000</ele>
        <time>2020-08-26T10:42:05.794Z</time>
      </trkpt>
      <trkpt lat="37.387329" lon="-3.853669">
        <ele>0.000000</ele>
        <time>2020-08-26T10:42:05.794Z</time>
      </trkpt>
      <trkpt lat="37.387596" lon="-3.854390">
        <ele>0.000000</ele>
        <time>2020-08-26T10:42:05.794Z</time>
      </trkpt>
      <trkpt lat="37.388034" lon="-3.855138">
        <ele>0.000000</ele>
        <time>2020-08-26T10:42:05.794Z</time>
      </trkpt>
      <trkpt lat="37.391842" lon="-3.857454">
        <ele>0.000000</ele>
        <time>2020-08-26T10:42:05.794Z</time>
      </trkpt>
      <trkpt lat="37.391650" lon="-3.857608">
        <ele>0.000000</ele>
        <time>2020-08-26T10:42:05.794Z</time>
      </trkpt>
      <trkpt lat="37.391859" lon="-3.858180">
        <ele>0.000000</ele>
        <time>2020-08-26T10:42:05.794Z</time>
      </trkpt>
      <trkpt lat="37.392598" lon="-3.858547">
        <ele>0.000000</ele>
        <time>2020-08-26T10:42:05.794Z</time>
      </trkpt>
      <trkpt lat="37.393057" lon="-3.858668">
        <ele>0.000000</ele>
        <time>2020-08-26T10:42:05.794Z</time>
      </trkpt>
      <trkpt lat="37.394531" lon="-3.859250">
        <ele>0.000000</ele>
        <time>2020-08-26T10:42:05.794Z</time>
      </trkpt>
      <trkpt lat="37.395555" lon="-3.859832">
        <ele>0.000000</ele>
        <time>2020-08-26T10:42:05.794Z</time>
      </trkpt>
      <trkpt lat="37.395853" lon="-3.860176">
        <ele>0.000000</ele>
        <time>2020-08-26T10:42:05.794Z</time>
      </trkpt>
      <trkpt lat="37.396011" lon="-3.860739">
        <ele>0.000000</ele>
        <time>2020-08-26T10:42:05.794Z</time>
      </trkpt>
      <trkpt lat="37.396081" lon="-3.861126">
        <ele>0.000000</ele>
        <time>2020-08-26T10:42:05.794Z</time>
      </trkpt>
      <trkpt lat="37.396467" lon="-3.861600">
        <ele>0.000000</ele>
        <time>2020-08-26T10:42:05.794Z</time>
      </trkpt>
      <trkpt lat="37.396841" lon="-3.861751">
        <ele>0.000000</ele>
        <time>2020-08-26T10:42:05.794Z</time>
      </trkpt>
      <trkpt lat="37.397560" lon="-3.863821">
        <ele>0.000000</ele>
        <time>2020-08-26T10:42:05.794Z</time>
      </trkpt>
      <trkpt lat="37.397749" lon="-3.864099">
        <ele>0.000000</ele>
        <time>2020-08-26T10:42:05.794Z</time>
      </trkpt>
      <trkpt lat="37.397932" lon="-3.864147">
        <ele>0.000000</ele>
        <time>2020-08-26T10:42:05.794Z</time>
      </trkpt>
      <trkpt lat="37.398297" lon="-3.864510">
        <ele>0.000000</ele>
        <time>2020-08-26T10:42:05.794Z</time>
      </trkpt>
      <trkpt lat="37.398603" lon="-3.864480">
        <ele>0.000000</ele>
        <time>2020-08-26T10:42:05.794Z</time>
      </trkpt>
      <trkpt lat="37.398845" lon="-3.864829">
        <ele>0.000000</ele>
        <time>2020-08-26T10:42:05.794Z</time>
      </trkpt>
      <trkpt lat="37.399170" lon="-3.864639">
        <ele>0.000000</ele>
        <time>2020-08-26T10:42:05.794Z</time>
      </trkpt>
      <trkpt lat="37.399513" lon="-3.864965">
        <ele>0.000000</ele>
        <time>2020-08-26T10:42:05.794Z</time>
      </trkpt>
      <trkpt lat="37.400076" lon="-3.865330">
        <ele>0.000000</ele>
        <time>2020-08-26T10:42:05.794Z</time>
      </trkpt>
      <trkpt lat="37.400677" lon="-3.865402">
        <ele>0.000000</ele>
        <time>2020-08-26T10:42:05.794Z</time>
      </trkpt>
      <trkpt lat="37.401066" lon="-3.865508">
        <ele>0.000000</ele>
        <time>2020-08-26T10:42:05.794Z</time>
      </trkpt>
      <trkpt lat="37.401350" lon="-3.865805">
        <ele>0.000000</ele>
        <time>2020-08-26T10:42:05.794Z</time>
      </trkpt>
      <trkpt lat="37.401788" lon="-3.866178">
        <ele>0.000000</ele>
        <time>2020-08-26T10:42:05.794Z</time>
      </trkpt>
      <trkpt lat="37.402271" lon="-3.866414">
        <ele>0.000000</ele>
        <time>2020-08-26T10:42:05.794Z</time>
      </trkpt>
      <trkpt lat="37.402549" lon="-3.866500">
        <ele>0.000000</ele>
        <time>2020-08-26T10:42:05.794Z</time>
      </trkpt>
      <trkpt lat="37.402881" lon="-3.866365">
        <ele>0.000000</ele>
        <time>2020-08-26T10:42:05.794Z</time>
      </trkpt>
      <trkpt lat="37.403249" lon="-3.866121">
        <ele>0.000000</ele>
        <time>2020-08-26T10:42:05.794Z</time>
      </trkpt>
      <trkpt lat="37.403758" lon="-3.865897">
        <ele>0.000000</ele>
        <time>2020-08-26T10:42:05.794Z</time>
      </trkpt>
      <trkpt lat="37.404140" lon="-3.865902">
        <ele>0.000000</ele>
        <time>2020-08-26T10:42:05.794Z</time>
      </trkpt>
      <trkpt lat="37.404426" lon="-3.865997">
        <ele>0.000000</ele>
        <time>2020-08-26T10:42:05.794Z</time>
      </trkpt>
      <trkpt lat="37.404650" lon="-3.866450">
        <ele>0.000000</ele>
        <time>2020-08-26T10:42:05.794Z</time>
      </trkpt>
      <trkpt lat="37.405076" lon="-3.866372">
        <ele>0.000000</ele>
        <time>2020-08-26T10:42:05.794Z</time>
      </trkpt>
      <trkpt lat="37.405340" lon="-3.866513">
        <ele>0.000000</ele>
        <time>2020-08-26T10:42:05.794Z</time>
      </trkpt>
      <trkpt lat="37.405634" lon="-3.866964">
        <ele>0.000000</ele>
        <time>2020-08-26T10:42:05.794Z</time>
      </trkpt>
      <trkpt lat="37.405853" lon="-3.867605">
        <ele>0.000000</ele>
        <time>2020-08-26T10:42:05.794Z</time>
      </trkpt>
      <trkpt lat="37.406165" lon="-3.868262">
        <ele>0.000000</ele>
        <time>2020-08-26T10:42:05.794Z</time>
      </trkpt>
      <trkpt lat="37.406440" lon="-3.868716">
        <ele>0.000000</ele>
        <time>2020-08-26T10:42:05.794Z</time>
      </trkpt>
      <trkpt lat="37.407679" lon="-3.867994">
        <ele>0.000000</ele>
        <time>2020-08-26T10:42:05.794Z</time>
      </trkpt>
      <trkpt lat="37.408231" lon="-3.867890">
        <ele>0.000000</ele>
        <time>2020-08-26T10:42:05.794Z</time>
      </trkpt>
      <trkpt lat="37.408540" lon="-3.867773">
        <ele>0.000000</ele>
        <time>2020-08-26T10:42:05.794Z</time>
      </trkpt>
      <trkpt lat="37.408968" lon="-3.867438">
        <ele>0.000000</ele>
        <time>2020-08-26T10:42:05.794Z</time>
      </trkpt>
      <trkpt lat="37.409338" lon="-3.867102">
        <ele>0.000000</ele>
        <time>2020-08-26T10:42:05.794Z</time>
      </trkpt>
      <trkpt lat="37.410111" lon="-3.866843">
        <ele>0.000000</ele>
        <time>2020-08-26T10:42:05.794Z</time>
      </trkpt>
      <trkpt lat="37.410493" lon="-3.866884">
        <ele>0.000000</ele>
        <time>2020-08-26T10:42:05.794Z</time>
      </trkpt>
      <trkpt lat="37.410919" lon="-3.866853">
        <ele>0.000000</ele>
        <time>2020-08-26T10:42:05.794Z</time>
      </trkpt>
      <trkpt lat="37.411242" lon="-3.866783">
        <ele>0.000000</ele>
        <time>2020-08-26T10:42:05.794Z</time>
      </trkpt>
      <trkpt lat="37.412202" lon="-3.867097">
        <ele>0.000000</ele>
        <time>2020-08-26T10:42:05.794Z</time>
      </trkpt>
      <trkpt lat="37.413007" lon="-3.867429">
        <ele>0.000000</ele>
        <time>2020-08-26T10:42:05.794Z</time>
      </trkpt>
      <trkpt lat="37.414111" lon="-3.867975">
        <ele>0.000000</ele>
        <time>2020-08-26T10:42:05.794Z</time>
      </trkpt>
      <trkpt lat="37.415010" lon="-3.868630">
        <ele>0.000000</ele>
        <time>2020-08-26T10:42:05.794Z</time>
      </trkpt>
      <trkpt lat="37.416179" lon="-3.869380">
        <ele>0.000000</ele>
        <time>2020-08-26T10:42:05.794Z</time>
      </trkpt>
      <trkpt lat="37.417102" lon="-3.869648">
        <ele>0.000000</ele>
        <time>2020-08-26T10:42:05.794Z</time>
      </trkpt>
      <trkpt lat="37.418026" lon="-3.870735">
        <ele>0.000000</ele>
        <time>2020-08-26T10:42:05.794Z</time>
      </trkpt>
      <trkpt lat="37.418498" lon="-3.871468">
        <ele>0.000000</ele>
        <time>2020-08-26T10:42:05.794Z</time>
      </trkpt>
      <trkpt lat="37.419421" lon="-3.872804">
        <ele>0.000000</ele>
        <time>2020-08-26T10:42:05.794Z</time>
      </trkpt>
      <trkpt lat="37.419695" lon="-3.873424">
        <ele>0.000000</ele>
        <time>2020-08-26T10:42:05.794Z</time>
      </trkpt>
      <trkpt lat="37.419854" lon="-3.873858">
        <ele>0.000000</ele>
        <time>2020-08-26T10:42:05.794Z</time>
      </trkpt>
      <trkpt lat="37.419945" lon="-3.874365">
        <ele>0.000000</ele>
        <time>2020-08-26T10:42:05.794Z</time>
      </trkpt>
      <trkpt lat="37.419861" lon="-3.874778">
        <ele>0.000000</ele>
        <time>2020-08-26T10:42:05.794Z</time>
      </trkpt>
      <trkpt lat="37.419933" lon="-3.874991">
        <ele>0.000000</ele>
        <time>2020-08-26T10:42:05.794Z</time>
      </trkpt>
      <trkpt lat="37.421196" lon="-3.875990">
        <ele>0.000000</ele>
        <time>2020-08-26T10:42:05.794Z</time>
      </trkpt>
      <trkpt lat="37.422188" lon="-3.876839">
        <ele>0.000000</ele>
        <time>2020-08-26T10:42:05.794Z</time>
      </trkpt>
      <trkpt lat="37.423137" lon="-3.877568">
        <ele>0.000000</ele>
        <time>2020-08-26T10:42:05.794Z</time>
      </trkpt>
      <trkpt lat="37.424146" lon="-3.878224">
        <ele>0.000000</ele>
        <time>2020-08-26T10:42:05.794Z</time>
      </trkpt>
      <trkpt lat="37.425213" lon="-3.878872">
        <ele>0.000000</ele>
        <time>2020-08-26T10:42:05.794Z</time>
      </trkpt>
      <trkpt lat="37.425723" lon="-3.879320">
        <ele>0.000000</ele>
        <time>2020-08-26T10:42:05.794Z</time>
      </trkpt>
      <trkpt lat="37.426470" lon="-3.880379">
        <ele>0.000000</ele>
        <time>2020-08-26T10:42:05.794Z</time>
      </trkpt>
      <trkpt lat="37.426798" lon="-3.880013">
        <ele>0.000000</ele>
        <time>2020-08-26T10:42:05.794Z</time>
      </trkpt>
      <trkpt lat="37.427066" lon="-3.879427">
        <ele>0.000000</ele>
        <time>2020-08-26T10:42:05.794Z</time>
      </trkpt>
      <trkpt lat="37.427303" lon="-3.879172">
        <ele>0.000000</ele>
        <time>2020-08-26T10:42:05.794Z</time>
      </trkpt>
      <trkpt lat="37.427833" lon="-3.879068">
        <ele>0.000000</ele>
        <time>2020-08-26T10:42:05.794Z</time>
      </trkpt>
      <trkpt lat="37.428774" lon="-3.878831">
        <ele>0.000000</ele>
        <time>2020-08-26T10:42:05.794Z</time>
      </trkpt>
      <trkpt lat="37.429657" lon="-3.878666">
        <ele>0.000000</ele>
        <time>2020-08-26T10:42:05.794Z</time>
      </trkpt>
      <trkpt lat="37.430026" lon="-3.878403">
        <ele>0.000000</ele>
        <time>2020-08-26T10:42:05.794Z</time>
      </trkpt>
      <trkpt lat="37.430441" lon="-3.877837">
        <ele>0.000000</ele>
        <time>2020-08-26T10:42:05.794Z</time>
      </trkpt>
      <trkpt lat="37.430707" lon="-3.877711">
        <ele>0.000000</ele>
        <time>2020-08-26T10:42:05.794Z</time>
      </trkpt>
      <trkpt lat="37.431300" lon="-3.877875">
        <ele>0.000000</ele>
        <time>2020-08-26T10:42:05.794Z</time>
      </trkpt>
      <trkpt lat="37.431907" lon="-3.878195">
        <ele>0.000000</ele>
        <time>2020-08-26T10:42:05.794Z</time>
      </trkpt>
      <trkpt lat="37.432476" lon="-3.878735">
        <ele>0.000000</ele>
        <time>2020-08-26T10:42:05.794Z</time>
      </trkpt>
      <trkpt lat="37.433237" lon="-3.879039">
        <ele>0.000000</ele>
        <time>2020-08-26T10:42:05.794Z</time>
      </trkpt>
      <trkpt lat="37.434207" lon="-3.879980">
        <ele>0.000000</ele>
        <time>2020-08-26T10:42:05.794Z</time>
      </trkpt>
      <trkpt lat="37.434763" lon="-3.880244">
        <ele>0.000000</ele>
        <time>2020-08-26T10:42:05.794Z</time>
      </trkpt>
      <trkpt lat="37.435248" lon="-3.881096">
        <ele>0.000000</ele>
        <time>2020-08-26T10:42:05.794Z</time>
      </trkpt>
      <trkpt lat="37.435773" lon="-3.881683">
        <ele>0.000000</ele>
        <time>2020-08-26T10:42:05.794Z</time>
      </trkpt>
      <trkpt lat="37.436368" lon="-3.882619">
        <ele>0.000000</ele>
        <time>2020-08-26T10:42:05.794Z</time>
      </trkpt>
      <trkpt lat="37.436693" lon="-3.883323">
        <ele>0.000000</ele>
        <time>2020-08-26T10:42:05.794Z</time>
      </trkpt>
      <trkpt lat="37.437573" lon="-3.884438">
        <ele>0.000000</ele>
        <time>2020-08-26T10:42:05.794Z</time>
      </trkpt>
      <trkpt lat="37.437737" lon="-3.885139">
        <ele>0.000000</ele>
        <time>2020-08-26T10:42:05.794Z</time>
      </trkpt>
      <trkpt lat="37.438364" lon="-3.885681">
        <ele>0.000000</ele>
        <time>2020-08-26T10:42:05.794Z</time>
      </trkpt>
      <trkpt lat="37.438798" lon="-3.885612">
        <ele>0.000000</ele>
        <time>2020-08-26T10:42:05.794Z</time>
      </trkpt>
      <trkpt lat="37.439193" lon="-3.885883">
        <ele>0.000000</ele>
        <time>2020-08-26T10:42:05.794Z</time>
      </trkpt>
      <trkpt lat="37.439706" lon="-3.885972">
        <ele>0.000000</ele>
        <time>2020-08-26T10:42:05.794Z</time>
      </trkpt>
      <trkpt lat="37.439896" lon="-3.886085">
        <ele>0.000000</ele>
        <time>2020-08-26T10:42:05.794Z</time>
      </trkpt>
      <trkpt lat="37.439806" lon="-3.886323">
        <ele>0.000000</ele>
        <time>2020-08-26T10:42:05.794Z</time>
      </trkpt>
      <trkpt lat="37.439830" lon="-3.887152">
        <ele>0.000000</ele>
        <time>2020-08-26T10:42:05.794Z</time>
      </trkpt>
      <trkpt lat="37.439974" lon="-3.887439">
        <ele>0.000000</ele>
        <time>2020-08-26T10:42:05.794Z</time>
      </trkpt>
      <trkpt lat="37.440132" lon="-3.888951">
        <ele>0.000000</ele>
        <time>2020-08-26T10:42:05.794Z</time>
      </trkpt>
      <trkpt lat="37.440526" lon="-3.888366">
        <ele>0.000000</ele>
        <time>2020-08-26T10:42:05.794Z</time>
      </trkpt>
      <trkpt lat="37.440919" lon="-3.888813">
        <ele>0.000000</ele>
        <time>2020-08-26T10:42:05.794Z</time>
      </trkpt>
      <trkpt lat="37.441475" lon="-3.889040">
        <ele>0.000000</ele>
        <time>2020-08-26T10:42:05.794Z</time>
      </trkpt>
      <trkpt lat="37.441818" lon="-3.889330">
        <ele>0.000000</ele>
        <time>2020-08-26T10:42:05.794Z</time>
      </trkpt>
      <trkpt lat="37.442153" lon="-3.889794">
        <ele>0.000000</ele>
        <time>2020-08-26T10:42:05.794Z</time>
      </trkpt>
      <trkpt lat="37.442357" lon="-3.889794">
        <ele>0.000000</ele>
        <time>2020-08-26T10:42:05.794Z</time>
      </trkpt>
      <trkpt lat="37.442397" lon="-3.889612">
        <ele>0.000000</ele>
        <time>2020-08-26T10:42:05.794Z</time>
      </trkpt>
      <trkpt lat="37.442208" lon="-3.888468">
        <ele>0.000000</ele>
        <time>2020-08-26T10:42:05.794Z</time>
      </trkpt>
      <trkpt lat="37.442152" lon="-3.887998">
        <ele>0.000000</ele>
        <time>2020-08-26T10:42:05.794Z</time>
      </trkpt>
      <trkpt lat="37.442322" lon="-3.887926">
        <ele>0.000000</ele>
        <time>2020-08-26T10:42:05.794Z</time>
      </trkpt>
      <trkpt lat="37.442461" lon="-3.888029">
        <ele>0.000000</ele>
        <time>2020-08-26T10:42:05.794Z</time>
      </trkpt>
      <trkpt lat="37.442938" lon="-3.888035">
        <ele>0.000000</ele>
        <time>2020-08-26T10:42:05.794Z</time>
      </trkpt>
      <trkpt lat="37.443751" lon="-3.888293">
        <ele>0.000000</ele>
        <time>2020-08-26T10:42:05.794Z</time>
      </trkpt>
      <trkpt lat="37.444070" lon="-3.888886">
        <ele>0.000000</ele>
        <time>2020-08-26T10:42:05.794Z</time>
      </trkpt>
      <trkpt lat="37.444551" lon="-3.889370">
        <ele>0.000000</ele>
        <time>2020-08-26T10:42:05.794Z</time>
      </trkpt>
      <trkpt lat="37.444728" lon="-3.890274">
        <ele>0.000000</ele>
        <time>2020-08-26T10:42:05.794Z</time>
      </trkpt>
      <trkpt lat="37.444793" lon="-3.890413">
        <ele>0.000000</ele>
        <time>2020-08-26T10:42:05.794Z</time>
      </trkpt>
      <trkpt lat="37.445306" lon="-3.890612">
        <ele>0.000000</ele>
        <time>2020-08-26T10:42:05.794Z</time>
      </trkpt>
      <trkpt lat="37.445400" lon="-3.890807">
        <ele>0.000000</ele>
        <time>2020-08-26T10:42:05.794Z</time>
      </trkpt>
      <trkpt lat="37.445684" lon="-3.891105">
        <ele>0.000000</ele>
        <time>2020-08-26T10:42:05.794Z</time>
      </trkpt>
      <trkpt lat="37.446225" lon="-3.892400">
        <ele>0.000000</ele>
        <time>2020-08-26T10:42:05.794Z</time>
      </trkpt>
      <trkpt lat="37.447098" lon="-3.893497">
        <ele>0.000000</ele>
        <time>2020-08-26T10:42:05.794Z</time>
      </trkpt>
      <trkpt lat="37.447738" lon="-3.894241">
        <ele>0.000000</ele>
        <time>2020-08-26T10:42:05.794Z</time>
      </trkpt>
      <trkpt lat="37.447803" lon="-3.894417">
        <ele>0.000000</ele>
        <time>2020-08-26T10:42:05.794Z</time>
      </trkpt>
      <trkpt lat="37.448904" lon="-3.895461">
        <ele>0.000000</ele>
        <time>2020-08-26T10:42:05.794Z</time>
      </trkpt>
      <trkpt lat="37.449078" lon="-3.895767">
        <ele>0.000000</ele>
        <time>2020-08-26T10:42:05.794Z</time>
      </trkpt>
      <trkpt lat="37.450280" lon="-3.897006">
        <ele>0.000000</ele>
        <time>2020-08-26T10:42:05.794Z</time>
      </trkpt>
      <trkpt lat="37.452857" lon="-3.898952">
        <ele>0.000000</ele>
        <time>2020-08-26T10:42:05.794Z</time>
      </trkpt>
      <trkpt lat="37.453570" lon="-3.899826">
        <ele>0.000000</ele>
        <time>2020-08-26T10:42:05.794Z</time>
      </trkpt>
      <trkpt lat="37.454011" lon="-3.900687">
        <ele>0.000000</ele>
        <time>2020-08-26T10:42:05.794Z</time>
      </trkpt>
      <trkpt lat="37.454495" lon="-3.901715">
        <ele>0.000000</ele>
        <time>2020-08-26T10:42:05.794Z</time>
      </trkpt>
      <trkpt lat="37.455130" lon="-3.904200">
        <ele>0.000000</ele>
        <time>2020-08-26T10:42:05.794Z</time>
      </trkpt>
      <trkpt lat="37.455350" lon="-3.905197">
        <ele>0.000000</ele>
        <time>2020-08-26T10:42:05.794Z</time>
      </trkpt>
      <trkpt lat="37.455182" lon="-3.906070">
        <ele>0.000000</ele>
        <time>2020-08-26T10:42:05.794Z</time>
      </trkpt>
      <trkpt lat="37.455286" lon="-3.906844">
        <ele>0.000000</ele>
        <time>2020-08-26T10:42:05.794Z</time>
      </trkpt>
      <trkpt lat="37.455542" lon="-3.907980">
        <ele>0.000000</ele>
        <time>2020-08-26T10:42:05.794Z</time>
      </trkpt>
      <trkpt lat="37.455368" lon="-3.909737">
        <ele>0.000000</ele>
        <time>2020-08-26T10:42:05.794Z</time>
      </trkpt>
      <trkpt lat="37.455464" lon="-3.910557">
        <ele>0.000000</ele>
        <time>2020-08-26T10:42:05.794Z</time>
      </trkpt>
      <trkpt lat="37.455664" lon="-3.911352">
        <ele>0.000000</ele>
        <time>2020-08-26T10:42:05.794Z</time>
      </trkpt>
      <trkpt lat="37.455433" lon="-3.911846">
        <ele>0.000000</ele>
        <time>2020-08-26T10:42:05.794Z</time>
      </trkpt>
      <trkpt lat="37.455063" lon="-3.913167">
        <ele>0.000000</ele>
        <time>2020-08-26T10:42:05.794Z</time>
      </trkpt>
      <trkpt lat="37.455079" lon="-3.913897">
        <ele>0.000000</ele>
        <time>2020-08-26T10:42:05.794Z</time>
      </trkpt>
      <trkpt lat="37.455102" lon="-3.914834">
        <ele>0.000000</ele>
        <time>2020-08-26T10:42:05.794Z</time>
      </trkpt>
      <trkpt lat="37.455195" lon="-3.916152">
        <ele>0.000000</ele>
        <time>2020-08-26T10:42:05.794Z</time>
      </trkpt>
      <trkpt lat="37.455624" lon="-3.917557">
        <ele>0.000000</ele>
        <time>2020-08-26T10:42:05.794Z</time>
      </trkpt>
      <trkpt lat="37.455952" lon="-3.917872">
        <ele>0.000000</ele>
        <time>2020-08-26T10:42:05.794Z</time>
      </trkpt>
      <trkpt lat="37.457328" lon="-3.919373">
        <ele>0.000000</ele>
        <time>2020-08-26T10:42:05.794Z</time>
      </trkpt>
      <trkpt lat="37.458313" lon="-3.920168">
        <ele>0.000000</ele>
        <time>2020-08-26T10:42:05.794Z</time>
      </trkpt>
      <trkpt lat="37.459096" lon="-3.920573">
        <ele>0.000000</ele>
        <time>2020-08-26T10:42:05.794Z</time>
      </trkpt>
      <trkpt lat="37.460977" lon="-3.921186">
        <ele>0.000000</ele>
        <time>2020-08-26T10:42:05.794Z</time>
      </trkpt>
      <trkpt lat="37.460974" lon="-3.921150">
        <ele>0.000000</ele>
        <time>2020-08-26T10:42:05.794Z</time>
      </trkpt>
      <trkpt lat="37.462581" lon="-3.922596">
        <ele>0.000000</ele>
        <time>2020-08-26T10:42:05.794Z</time>
      </trkpt>
      <trkpt lat="37.464209" lon="-3.924125">
        <ele>0.000000</ele>
        <time>2020-08-26T10:42:05.794Z</time>
      </trkpt>
      <trkpt lat="37.464465" lon="-3.924897">
        <ele>0.000000</ele>
        <time>2020-08-26T10:42:05.794Z</time>
      </trkpt>
      <trkpt lat="37.465443" lon="-3.925275">
        <ele>0.000000</ele>
        <time>2020-08-26T10:42:05.794Z</time>
      </trkpt>
      <trkpt lat="37.465676" lon="-3.925924">
        <ele>0.000000</ele>
        <time>2020-08-26T10:42:05.794Z</time>
      </trkpt>
      <trkpt lat="37.466165" lon="-3.928374">
        <ele>0.000000</ele>
        <time>2020-08-26T10:42:05.794Z</time>
      </trkpt>
      <trkpt lat="37.466814" lon="-3.929315">
        <ele>0.000000</ele>
        <time>2020-08-26T10:42:05.794Z</time>
      </trkpt>
      <trkpt lat="37.467867" lon="-3.929831">
        <ele>0.000000</ele>
        <time>2020-08-26T10:42:05.794Z</time>
      </trkpt>
      <trkpt lat="37.468372" lon="-3.931130">
        <ele>0.000000</ele>
        <time>2020-08-26T10:42:05.794Z</time>
      </trkpt>
      <trkpt lat="37.468594" lon="-3.933172">
        <ele>0.000000</ele>
        <time>2020-08-26T10:42:05.794Z</time>
      </trkpt>
      <trkpt lat="37.468767" lon="-3.934031">
        <ele>0.000000</ele>
        <time>2020-08-26T10:42:05.794Z</time>
      </trkpt>
      <trkpt lat="37.468823" lon="-3.935211">
        <ele>0.000000</ele>
        <time>2020-08-26T10:42:05.794Z</time>
      </trkpt>
      <trkpt lat="37.469235" lon="-3.935737">
        <ele>0.000000</ele>
        <time>2020-08-26T10:42:05.794Z</time>
      </trkpt>
      <trkpt lat="37.469647" lon="-3.936154">
        <ele>0.000000</ele>
        <time>2020-08-26T10:42:05.794Z</time>
      </trkpt>
      <trkpt lat="37.470280" lon="-3.936272">
        <ele>0.000000</ele>
        <time>2020-08-26T10:42:05.794Z</time>
      </trkpt>
      <trkpt lat="37.470540" lon="-3.936632">
        <ele>0.000000</ele>
        <time>2020-08-26T10:42:05.794Z</time>
      </trkpt>
      <trkpt lat="37.470906" lon="-3.936683">
        <ele>0.000000</ele>
        <time>2020-08-26T10:42:05.794Z</time>
      </trkpt>
      <trkpt lat="37.472173" lon="-3.940273">
        <ele>0.000000</ele>
        <time>2020-08-26T10:42:05.794Z</time>
      </trkpt>
      <trkpt lat="37.473140" lon="-3.942453">
        <ele>0.000000</ele>
        <time>2020-08-26T10:42:05.794Z</time>
      </trkpt>
      <trkpt lat="37.474220" lon="-3.944141">
        <ele>0.000000</ele>
        <time>2020-08-26T10:42:05.794Z</time>
      </trkpt>
      <trkpt lat="37.475023" lon="-3.944891">
        <ele>0.000000</ele>
        <time>2020-08-26T10:42:05.794Z</time>
      </trkpt>
      <trkpt lat="37.477325" lon="-3.947210">
        <ele>0.000000</ele>
        <time>2020-08-26T10:42:05.794Z</time>
      </trkpt>
      <trkpt lat="37.479802" lon="-3.949878">
        <ele>0.000000</ele>
        <time>2020-08-26T10:42:05.794Z</time>
      </trkpt>
      <trkpt lat="37.480684" lon="-3.950670">
        <ele>0.000000</ele>
        <time>2020-08-26T10:42:05.794Z</time>
      </trkpt>
      <trkpt lat="37.481178" lon="-3.951288">
        <ele>0.000000</ele>
        <time>2020-08-26T10:42:05.794Z</time>
      </trkpt>
      <trkpt lat="37.483104" lon="-3.953452">
        <ele>0.000000</ele>
        <time>2020-08-26T10:42:05.794Z</time>
      </trkpt>
      <trkpt lat="37.483971" lon="-3.954109">
        <ele>0.000000</ele>
        <time>2020-08-26T10:42:05.794Z</time>
      </trkpt>
      <trkpt lat="37.485355" lon="-3.954674">
        <ele>0.000000</ele>
        <time>2020-08-26T10:42:05.794Z</time>
      </trkpt>
      <trkpt lat="37.486613" lon="-3.955984">
        <ele>0.000000</ele>
        <time>2020-08-26T10:42:05.794Z</time>
      </trkpt>
      <trkpt lat="37.487234" lon="-3.957366">
        <ele>0.000000</ele>
        <time>2020-08-26T10:42:05.794Z</time>
      </trkpt>
      <trkpt lat="37.489782" lon="-3.960204">
        <ele>0.000000</ele>
        <time>2020-08-26T10:42:05.794Z</time>
      </trkpt>
      <trkpt lat="37.490801" lon="-3.961259">
        <ele>0.000000</ele>
        <time>2020-08-26T10:42:05.794Z</time>
      </trkpt>
      <trkpt lat="37.491876" lon="-3.962543">
        <ele>0.000000</ele>
        <time>2020-08-26T10:42:05.794Z</time>
      </trkpt>
      <trkpt lat="37.492368" lon="-3.963739">
        <ele>0.000000</ele>
        <time>2020-08-26T10:42:05.794Z</time>
      </trkpt>
      <trkpt lat="37.492966" lon="-3.963922">
        <ele>0.000000</ele>
        <time>2020-08-26T10:42:05.794Z</time>
      </trkpt>
      <trkpt lat="37.493230" lon="-3.964082">
        <ele>0.000000</ele>
        <time>2020-08-26T10:42:05.794Z</time>
      </trkpt>
      <trkpt lat="37.493340" lon="-3.964277">
        <ele>0.000000</ele>
        <time>2020-08-26T10:42:05.794Z</time>
      </trkpt>
      <trkpt lat="37.494709" lon="-3.965712">
        <ele>0.000000</ele>
        <time>2020-08-26T10:42:05.794Z</time>
      </trkpt>
      <trkpt lat="37.495288" lon="-3.966524">
        <ele>0.000000</ele>
        <time>2020-08-26T10:42:05.794Z</time>
      </trkpt>
      <trkpt lat="37.495496" lon="-3.966719">
        <ele>0.000000</ele>
        <time>2020-08-26T10:42:05.794Z</time>
      </trkpt>
      <trkpt lat="37.495661" lon="-3.967001">
        <ele>0.000000</ele>
        <time>2020-08-26T10:42:05.794Z</time>
      </trkpt>
      <trkpt lat="37.496448" lon="-3.967904">
        <ele>0.000000</ele>
        <time>2020-08-26T10:42:05.794Z</time>
      </trkpt>
      <trkpt lat="37.496874" lon="-3.968679">
        <ele>0.000000</ele>
        <time>2020-08-26T10:42:05.794Z</time>
      </trkpt>
      <trkpt lat="37.498292" lon="-3.970938">
        <ele>0.000000</ele>
        <time>2020-08-26T10:42:05.794Z</time>
      </trkpt>
      <trkpt lat="37.499154" lon="-3.971246">
        <ele>0.000000</ele>
        <time>2020-08-26T10:42:05.794Z</time>
      </trkpt>
      <trkpt lat="37.499707" lon="-3.971475">
        <ele>0.000000</ele>
        <time>2020-08-26T10:42:05.794Z</time>
      </trkpt>
      <trkpt lat="37.499970" lon="-3.972184">
        <ele>0.000000</ele>
        <time>2020-08-26T10:42:05.794Z</time>
      </trkpt>
      <trkpt lat="37.500316" lon="-3.972434">
        <ele>0.000000</ele>
        <time>2020-08-26T10:42:05.794Z</time>
      </trkpt>
      <trkpt lat="37.500743" lon="-3.973104">
        <ele>0.000000</ele>
        <time>2020-08-26T10:42:05.794Z</time>
      </trkpt>
      <trkpt lat="37.502104" lon="-3.973839">
        <ele>0.000000</ele>
        <time>2020-08-26T10:42:05.794Z</time>
      </trkpt>
      <trkpt lat="37.502477" lon="-3.974177">
        <ele>0.000000</ele>
        <time>2020-08-26T10:42:05.794Z</time>
      </trkpt>
      <trkpt lat="37.502584" lon="-3.974756">
        <ele>0.000000</ele>
        <time>2020-08-26T10:42:05.794Z</time>
      </trkpt>
      <trkpt lat="37.502527" lon="-3.975035">
        <ele>0.000000</ele>
        <time>2020-08-26T10:42:05.794Z</time>
      </trkpt>
      <trkpt lat="37.502996" lon="-3.975618">
        <ele>0.000000</ele>
        <time>2020-08-26T10:42:05.794Z</time>
      </trkpt>
      <trkpt lat="37.503601" lon="-3.976676">
        <ele>0.000000</ele>
        <time>2020-08-26T10:42:05.794Z</time>
      </trkpt>
      <trkpt lat="37.504045" lon="-3.976980">
        <ele>0.000000</ele>
        <time>2020-08-26T10:42:05.794Z</time>
      </trkpt>
      <trkpt lat="37.504458" lon="-3.977615">
        <ele>0.000000</ele>
        <time>2020-08-26T10:42:05.794Z</time>
      </trkpt>
      <trkpt lat="37.505365" lon="-3.977609">
        <ele>0.000000</ele>
        <time>2020-08-26T10:42:05.794Z</time>
      </trkpt>
      <trkpt lat="37.505795" lon="-3.977842">
        <ele>0.000000</ele>
        <time>2020-08-26T10:42:05.794Z</time>
      </trkpt>
      <trkpt lat="37.506325" lon="-3.977814">
        <ele>0.000000</ele>
        <time>2020-08-26T10:42:05.794Z</time>
      </trkpt>
      <trkpt lat="37.507579" lon="-3.977971">
        <ele>0.000000</ele>
        <time>2020-08-26T10:42:05.794Z</time>
      </trkpt>
      <trkpt lat="37.508216" lon="-3.978469">
        <ele>0.000000</ele>
        <time>2020-08-26T10:42:05.794Z</time>
      </trkpt>
      <trkpt lat="37.508965" lon="-3.978598">
        <ele>0.000000</ele>
        <time>2020-08-26T10:42:05.794Z</time>
      </trkpt>
      <trkpt lat="37.509470" lon="-3.978660">
        <ele>0.000000</ele>
        <time>2020-08-26T10:42:05.794Z</time>
      </trkpt>
      <trkpt lat="37.511049" lon="-3.978208">
        <ele>0.000000</ele>
        <time>2020-08-26T10:42:05.794Z</time>
      </trkpt>
      <trkpt lat="37.511592" lon="-3.978303">
        <ele>0.000000</ele>
        <time>2020-08-26T10:42:05.794Z</time>
      </trkpt>
      <trkpt lat="37.511912" lon="-3.978412">
        <ele>0.000000</ele>
        <time>2020-08-26T10:42:05.794Z</time>
      </trkpt>
      <trkpt lat="37.512164" lon="-3.978380">
        <ele>0.000000</ele>
        <time>2020-08-26T10:42:05.794Z</time>
      </trkpt>
      <trkpt lat="37.512764" lon="-3.978353">
        <ele>0.000000</ele>
        <time>2020-08-26T10:42:05.794Z</time>
      </trkpt>
      <trkpt lat="37.513320" lon="-3.978553">
        <ele>0.000000</ele>
        <time>2020-08-26T10:42:05.794Z</time>
      </trkpt>
      <trkpt lat="37.513711" lon="-3.978540">
        <ele>0.000000</ele>
        <time>2020-08-26T10:42:05.794Z</time>
      </trkpt>
      <trkpt lat="37.513919" lon="-3.978648">
        <ele>0.000000</ele>
        <time>2020-08-26T10:42:05.794Z</time>
      </trkpt>
      <trkpt lat="37.514267" lon="-3.978705">
        <ele>0.000000</ele>
        <time>2020-08-26T10:42:05.794Z</time>
      </trkpt>
      <trkpt lat="37.514811" lon="-3.978712">
        <ele>0.000000</ele>
        <time>2020-08-26T10:42:05.794Z</time>
      </trkpt>
      <trkpt lat="37.515856" lon="-3.978627">
        <ele>0.000000</ele>
        <time>2020-08-26T10:42:05.794Z</time>
      </trkpt>
      <trkpt lat="37.517506" lon="-3.978222">
        <ele>0.000000</ele>
        <time>2020-08-26T10:42:05.794Z</time>
      </trkpt>
      <trkpt lat="37.517797" lon="-3.978436">
        <ele>0.000000</ele>
        <time>2020-08-26T10:42:05.794Z</time>
      </trkpt>
      <trkpt lat="37.518272" lon="-3.978372">
        <ele>0.000000</ele>
        <time>2020-08-26T10:42:05.794Z</time>
      </trkpt>
      <trkpt lat="37.518946" lon="-3.977890">
        <ele>0.000000</ele>
        <time>2020-08-26T10:42:05.794Z</time>
      </trkpt>
      <trkpt lat="37.519309" lon="-3.977895">
        <ele>0.000000</ele>
        <time>2020-08-26T10:42:05.794Z</time>
      </trkpt>
      <trkpt lat="37.519644" lon="-3.977794">
        <ele>0.000000</ele>
        <time>2020-08-26T10:42:05.794Z</time>
      </trkpt>
      <trkpt lat="37.521055" lon="-3.977720">
        <ele>0.000000</ele>
        <time>2020-08-26T10:42:05.794Z</time>
      </trkpt>
      <trkpt lat="37.521413" lon="-3.978097">
        <ele>0.000000</ele>
        <time>2020-08-26T10:42:05.794Z</time>
      </trkpt>
      <trkpt lat="37.521914" lon="-3.978192">
        <ele>0.000000</ele>
        <time>2020-08-26T10:42:05.794Z</time>
      </trkpt>
      <trkpt lat="37.522611" lon="-3.978253">
        <ele>0.000000</ele>
        <time>2020-08-26T10:42:05.794Z</time>
      </trkpt>
      <trkpt lat="37.523495" lon="-3.979228">
        <ele>0.000000</ele>
        <time>2020-08-26T10:42:05.794Z</time>
      </trkpt>
      <trkpt lat="37.523996" lon="-3.979322">
        <ele>0.000000</ele>
        <time>2020-08-26T10:42:05.794Z</time>
      </trkpt>
      <trkpt lat="37.524189" lon="-3.979604">
        <ele>0.000000</ele>
        <time>2020-08-26T10:42:05.794Z</time>
      </trkpt>
      <trkpt lat="37.524770" lon="-3.980207">
        <ele>0.000000</ele>
        <time>2020-08-26T10:42:05.794Z</time>
      </trkpt>
      <trkpt lat="37.525256" lon="-3.980528">
        <ele>0.000000</ele>
        <time>2020-08-26T10:42:05.794Z</time>
      </trkpt>
      <trkpt lat="37.525574" lon="-3.980795">
        <ele>0.000000</ele>
        <time>2020-08-26T10:42:05.794Z</time>
      </trkpt>
      <trkpt lat="37.526219" lon="-3.981199">
        <ele>0.000000</ele>
        <time>2020-08-26T10:42:05.794Z</time>
      </trkpt>
      <trkpt lat="37.526514" lon="-3.981840">
        <ele>0.000000</ele>
        <time>2020-08-26T10:42:05.794Z</time>
      </trkpt>
      <trkpt lat="37.526772" lon="-3.982684">
        <ele>0.000000</ele>
        <time>2020-08-26T10:42:05.794Z</time>
      </trkpt>
      <trkpt lat="37.526824" lon="-3.983122">
        <ele>0.000000</ele>
        <time>2020-08-26T10:42:05.794Z</time>
      </trkpt>
      <trkpt lat="37.526725" lon="-3.983383">
        <ele>0.000000</ele>
        <time>2020-08-26T10:42:05.794Z</time>
      </trkpt>
      <trkpt lat="37.526877" lon="-3.983561">
        <ele>0.000000</ele>
        <time>2020-08-26T10:42:05.794Z</time>
      </trkpt>
      <trkpt lat="37.527212" lon="-3.983547">
        <ele>0.000000</ele>
        <time>2020-08-26T10:42:05.794Z</time>
      </trkpt>
      <trkpt lat="37.527506" lon="-3.983446">
        <ele>0.000000</ele>
        <time>2020-08-26T10:42:05.794Z</time>
      </trkpt>
      <trkpt lat="37.527827" lon="-3.983380">
        <ele>0.000000</ele>
        <time>2020-08-26T10:42:05.794Z</time>
      </trkpt>
      <trkpt lat="37.529146" lon="-3.984080">
        <ele>0.000000</ele>
        <time>2020-08-26T10:42:05.794Z</time>
      </trkpt>
      <trkpt lat="37.529550" lon="-3.984155">
        <ele>0.000000</ele>
        <time>2020-08-26T10:42:05.794Z</time>
      </trkpt>
      <trkpt lat="37.529788" lon="-3.984018">
        <ele>0.000000</ele>
        <time>2020-08-26T10:42:05.794Z</time>
      </trkpt>
      <trkpt lat="37.530514" lon="-3.984057">
        <ele>0.000000</ele>
        <time>2020-08-26T10:42:05.794Z</time>
      </trkpt>
      <trkpt lat="37.530873" lon="-3.984453">
        <ele>0.000000</ele>
        <time>2020-08-26T10:42:05.794Z</time>
      </trkpt>
      <trkpt lat="37.531076" lon="-3.985226">
        <ele>0.000000</ele>
        <time>2020-08-26T10:42:05.794Z</time>
      </trkpt>
      <trkpt lat="37.531615" lon="-3.985758">
        <ele>0.000000</ele>
        <time>2020-08-26T10:42:05.794Z</time>
      </trkpt>
      <trkpt lat="37.532195" lon="-3.986483">
        <ele>0.000000</ele>
        <time>2020-08-26T10:42:05.794Z</time>
      </trkpt>
      <trkpt lat="37.532694" lon="-3.986823">
        <ele>0.000000</ele>
        <time>2020-08-26T10:42:05.794Z</time>
      </trkpt>
      <trkpt lat="37.533486" lon="-3.987166">
        <ele>0.000000</ele>
        <time>2020-08-26T10:42:05.794Z</time>
      </trkpt>
      <trkpt lat="37.534267" lon="-3.987124">
        <ele>0.000000</ele>
        <time>2020-08-26T10:42:05.794Z</time>
      </trkpt>
      <trkpt lat="37.535506" lon="-3.987437">
        <ele>0.000000</ele>
        <time>2020-08-26T10:42:05.794Z</time>
      </trkpt>
      <trkpt lat="37.536104" lon="-3.987638">
        <ele>0.000000</ele>
        <time>2020-08-26T10:42:05.794Z</time>
      </trkpt>
      <trkpt lat="37.536951" lon="-3.988069">
        <ele>0.000000</ele>
        <time>2020-08-26T10:42:05.794Z</time>
      </trkpt>
      <trkpt lat="37.537810" lon="-3.988711">
        <ele>0.000000</ele>
        <time>2020-08-26T10:42:05.794Z</time>
      </trkpt>
      <trkpt lat="37.538749" lon="-3.989792">
        <ele>0.000000</ele>
        <time>2020-08-26T10:42:05.794Z</time>
      </trkpt>
      <trkpt lat="37.539188" lon="-3.990673">
        <ele>0.000000</ele>
        <time>2020-08-26T10:42:05.794Z</time>
      </trkpt>
      <trkpt lat="37.539628" lon="-3.991396">
        <ele>0.000000</ele>
        <time>2020-08-26T10:42:05.794Z</time>
      </trkpt>
      <trkpt lat="37.540133" lon="-3.992699">
        <ele>0.000000</ele>
        <time>2020-08-26T10:42:05.794Z</time>
      </trkpt>
      <trkpt lat="37.540364" lon="-3.993437">
        <ele>0.000000</ele>
        <time>2020-08-26T10:42:05.794Z</time>
      </trkpt>
      <trkpt lat="37.540705" lon="-3.994282">
        <ele>0.000000</ele>
        <time>2020-08-26T10:42:05.794Z</time>
      </trkpt>
      <trkpt lat="37.540939" lon="-3.994723">
        <ele>0.000000</ele>
        <time>2020-08-26T10:42:05.794Z</time>
      </trkpt>
      <trkpt lat="37.541110" lon="-3.995166">
        <ele>0.000000</ele>
        <time>2020-08-26T10:42:05.794Z</time>
      </trkpt>
      <trkpt lat="37.542007" lon="-3.995255">
        <ele>0.000000</ele>
        <time>2020-08-26T10:42:05.794Z</time>
      </trkpt>
      <trkpt lat="37.542382" lon="-3.995513">
        <ele>0.000000</ele>
        <time>2020-08-26T10:42:05.794Z</time>
      </trkpt>
      <trkpt lat="37.542561" lon="-3.995883">
        <ele>0.000000</ele>
        <time>2020-08-26T10:42:05.794Z</time>
      </trkpt>
      <trkpt lat="37.543340" lon="-3.996033">
        <ele>0.000000</ele>
        <time>2020-08-26T10:42:05.794Z</time>
      </trkpt>
      <trkpt lat="37.543840" lon="-3.996320">
        <ele>0.000000</ele>
        <time>2020-08-26T10:42:05.794Z</time>
      </trkpt>
      <trkpt lat="37.544072" lon="-3.998147">
        <ele>0.000000</ele>
        <time>2020-08-26T10:42:05.794Z</time>
      </trkpt>
      <trkpt lat="37.544062" lon="-3.999216">
        <ele>0.000000</ele>
        <time>2020-08-26T10:42:05.794Z</time>
      </trkpt>
      <trkpt lat="37.543722" lon="-4.000340">
        <ele>0.000000</ele>
        <time>2020-08-26T10:42:05.794Z</time>
      </trkpt>
      <trkpt lat="37.542958" lon="-4.001279">
        <ele>0.000000</ele>
        <time>2020-08-26T10:42:05.794Z</time>
      </trkpt>
      <trkpt lat="37.542801" lon="-4.002137">
        <ele>0.000000</ele>
        <time>2020-08-26T10:42:05.794Z</time>
      </trkpt>
      <trkpt lat="37.542407" lon="-4.002622">
        <ele>0.000000</ele>
        <time>2020-08-26T10:42:05.794Z</time>
      </trkpt>
      <trkpt lat="37.542605" lon="-4.003887">
        <ele>0.000000</ele>
        <time>2020-08-26T10:42:05.794Z</time>
      </trkpt>
      <trkpt lat="37.542258" lon="-4.005387">
        <ele>0.000000</ele>
        <time>2020-08-26T10:42:05.794Z</time>
      </trkpt>
      <trkpt lat="37.542388" lon="-4.006457">
        <ele>0.000000</ele>
        <time>2020-08-26T10:42:05.794Z</time>
      </trkpt>
      <trkpt lat="37.542409" lon="-4.007280">
        <ele>0.000000</ele>
        <time>2020-08-26T10:42:05.794Z</time>
      </trkpt>
      <trkpt lat="37.542811" lon="-4.007618">
        <ele>0.000000</ele>
        <time>2020-08-26T10:42:05.794Z</time>
      </trkpt>
      <trkpt lat="37.543362" lon="-4.007869">
        <ele>0.000000</ele>
        <time>2020-08-26T10:42:05.794Z</time>
      </trkpt>
      <trkpt lat="37.543835" lon="-4.008525">
        <ele>0.000000</ele>
        <time>2020-08-26T10:42:05.794Z</time>
      </trkpt>
      <trkpt lat="37.543958" lon="-4.008824">
        <ele>0.000000</ele>
        <time>2020-08-26T10:42:05.794Z</time>
      </trkpt>
      <trkpt lat="37.544525" lon="-4.009357">
        <ele>0.000000</ele>
        <time>2020-08-26T10:42:05.794Z</time>
      </trkpt>
      <trkpt lat="37.544828" lon="-4.009816">
        <ele>0.000000</ele>
        <time>2020-08-26T10:42:05.794Z</time>
      </trkpt>
      <trkpt lat="37.545154" lon="-4.009862">
        <ele>0.000000</ele>
        <time>2020-08-26T10:42:05.794Z</time>
      </trkpt>
      <trkpt lat="37.545062" lon="-4.010152">
        <ele>0.000000</ele>
        <time>2020-08-26T10:42:05.794Z</time>
      </trkpt>
      <trkpt lat="37.545840" lon="-4.010583">
        <ele>0.000000</ele>
        <time>2020-08-26T10:42:05.794Z</time>
      </trkpt>
      <trkpt lat="37.546911" lon="-4.010842">
        <ele>0.000000</ele>
        <time>2020-08-26T10:42:05.794Z</time>
      </trkpt>
      <trkpt lat="37.547341" lon="-4.011093">
        <ele>0.000000</ele>
        <time>2020-08-26T10:42:05.794Z</time>
      </trkpt>
      <trkpt lat="37.547898" lon="-4.011153">
        <ele>0.000000</ele>
        <time>2020-08-26T10:42:05.794Z</time>
      </trkpt>
      <trkpt lat="37.549604" lon="-4.012350">
        <ele>0.000000</ele>
        <time>2020-08-26T10:42:05.794Z</time>
      </trkpt>
      <trkpt lat="37.551370" lon="-4.012934">
        <ele>0.000000</ele>
        <time>2020-08-26T10:42:05.794Z</time>
      </trkpt>
      <trkpt lat="37.553335" lon="-4.013083">
        <ele>0.000000</ele>
        <time>2020-08-26T10:42:05.794Z</time>
      </trkpt>
      <trkpt lat="37.554171" lon="-4.013112">
        <ele>0.000000</ele>
        <time>2020-08-26T10:42:05.794Z</time>
      </trkpt>
      <trkpt lat="37.554532" lon="-4.013309">
        <ele>0.000000</ele>
        <time>2020-08-26T10:42:05.794Z</time>
      </trkpt>
      <trkpt lat="37.555680" lon="-4.014498">
        <ele>0.000000</ele>
        <time>2020-08-26T10:42:05.794Z</time>
      </trkpt>
      <trkpt lat="37.557044" lon="-4.016321">
        <ele>0.000000</ele>
        <time>2020-08-26T10:42:05.794Z</time>
      </trkpt>
      <trkpt lat="37.557527" lon="-4.016993">
        <ele>0.000000</ele>
        <time>2020-08-26T10:42:05.794Z</time>
      </trkpt>
      <trkpt lat="37.558047" lon="-4.018121">
        <ele>0.000000</ele>
        <time>2020-08-26T10:42:05.794Z</time>
      </trkpt>
      <trkpt lat="37.558818" lon="-4.019182">
        <ele>0.000000</ele>
        <time>2020-08-26T10:42:05.794Z</time>
      </trkpt>
      <trkpt lat="37.559203" lon="-4.019905">
        <ele>0.000000</ele>
        <time>2020-08-26T10:42:05.794Z</time>
      </trkpt>
      <trkpt lat="37.559339" lon="-4.020293">
        <ele>0.000000</ele>
        <time>2020-08-26T10:42:05.794Z</time>
      </trkpt>
      <trkpt lat="37.560087" lon="-4.020933">
        <ele>0.000000</ele>
        <time>2020-08-26T10:42:05.794Z</time>
      </trkpt>
      <trkpt lat="37.560260" lon="-4.021829">
        <ele>0.000000</ele>
        <time>2020-08-26T10:42:05.794Z</time>
      </trkpt>
      <trkpt lat="37.561041" lon="-4.023486">
        <ele>0.000000</ele>
        <time>2020-08-26T10:42:05.794Z</time>
      </trkpt>
      <trkpt lat="37.561216" lon="-4.024137">
        <ele>0.000000</ele>
        <time>2020-08-26T10:42:05.794Z</time>
      </trkpt>
      <trkpt lat="37.561918" lon="-4.025232">
        <ele>0.000000</ele>
        <time>2020-08-26T10:42:05.794Z</time>
      </trkpt>
      <trkpt lat="37.562440" lon="-4.026167">
        <ele>0.000000</ele>
        <time>2020-08-26T10:42:05.794Z</time>
      </trkpt>
      <trkpt lat="37.562686" lon="-4.026749">
        <ele>0.000000</ele>
        <time>2020-08-26T10:42:05.794Z</time>
      </trkpt>
      <trkpt lat="37.562623" lon="-4.027536">
        <ele>0.000000</ele>
        <time>2020-08-26T10:42:05.794Z</time>
      </trkpt>
      <trkpt lat="37.562834" lon="-4.028975">
        <ele>0.000000</ele>
        <time>2020-08-26T10:42:05.794Z</time>
      </trkpt>
      <trkpt lat="37.563338" lon="-4.030418">
        <ele>0.000000</ele>
        <time>2020-08-26T10:42:05.794Z</time>
      </trkpt>
      <trkpt lat="37.563682" lon="-4.030914">
        <ele>0.000000</ele>
        <time>2020-08-26T10:42:05.794Z</time>
      </trkpt>
      <trkpt lat="37.564231" lon="-4.031920">
        <ele>0.000000</ele>
        <time>2020-08-26T10:42:05.794Z</time>
      </trkpt>
      <trkpt lat="37.564535" lon="-4.032257">
        <ele>0.000000</ele>
        <time>2020-08-26T10:42:05.794Z</time>
      </trkpt>
      <trkpt lat="37.564603" lon="-4.032503">
        <ele>0.000000</ele>
        <time>2020-08-26T10:42:05.794Z</time>
      </trkpt>
      <trkpt lat="37.564851" lon="-4.032769">
        <ele>0.000000</ele>
        <time>2020-08-26T10:42:05.794Z</time>
      </trkpt>
      <trkpt lat="37.565193" lon="-4.033632">
        <ele>0.000000</ele>
        <time>2020-08-26T10:42:05.794Z</time>
      </trkpt>
      <trkpt lat="37.565324" lon="-4.034597">
        <ele>0.000000</ele>
        <time>2020-08-26T10:42:05.794Z</time>
      </trkpt>
      <trkpt lat="37.565150" lon="-4.035330">
        <ele>0.000000</ele>
        <time>2020-08-26T10:42:05.794Z</time>
      </trkpt>
      <trkpt lat="37.565433" lon="-4.036490">
        <ele>0.000000</ele>
        <time>2020-08-26T10:42:05.794Z</time>
      </trkpt>
      <trkpt lat="37.565913" lon="-4.037442">
        <ele>0.000000</ele>
        <time>2020-08-26T10:42:05.794Z</time>
      </trkpt>
      <trkpt lat="37.565910" lon="-4.037740">
        <ele>0.000000</ele>
        <time>2020-08-26T10:42:05.794Z</time>
      </trkpt>
      <trkpt lat="37.566334" lon="-4.038710">
        <ele>0.000000</ele>
        <time>2020-08-26T10:42:05.794Z</time>
      </trkpt>
      <trkpt lat="37.566732" lon="-4.039161">
        <ele>0.000000</ele>
        <time>2020-08-26T10:42:05.794Z</time>
      </trkpt>
      <trkpt lat="37.567163" lon="-4.039579">
        <ele>0.000000</ele>
        <time>2020-08-26T10:42:05.794Z</time>
      </trkpt>
      <trkpt lat="37.567213" lon="-4.040281">
        <ele>0.000000</ele>
        <time>2020-08-26T10:42:05.794Z</time>
      </trkpt>
      <trkpt lat="37.567207" lon="-4.040999">
        <ele>0.000000</ele>
        <time>2020-08-26T10:42:05.794Z</time>
      </trkpt>
      <trkpt lat="37.567519" lon="-4.041984">
        <ele>0.000000</ele>
        <time>2020-08-26T10:42:05.794Z</time>
      </trkpt>
      <trkpt lat="37.567530" lon="-4.042282">
        <ele>0.000000</ele>
        <time>2020-08-26T10:42:05.794Z</time>
      </trkpt>
      <trkpt lat="37.568036" lon="-4.043515">
        <ele>0.000000</ele>
        <time>2020-08-26T10:42:05.794Z</time>
      </trkpt>
      <trkpt lat="37.568045" lon="-4.044110">
        <ele>0.000000</ele>
        <time>2020-08-26T10:42:05.794Z</time>
      </trkpt>
      <trkpt lat="37.568328" lon="-4.045201">
        <ele>0.000000</ele>
        <time>2020-08-26T10:42:05.794Z</time>
      </trkpt>
      <trkpt lat="37.568293" lon="-4.045936">
        <ele>0.000000</ele>
        <time>2020-08-26T10:42:05.794Z</time>
      </trkpt>
      <trkpt lat="37.568613" lon="-4.047604">
        <ele>0.000000</ele>
        <time>2020-08-26T10:42:05.794Z</time>
      </trkpt>
      <trkpt lat="37.568880" lon="-4.048621">
        <ele>0.000000</ele>
        <time>2020-08-26T10:42:05.794Z</time>
      </trkpt>
      <trkpt lat="37.569249" lon="-4.049768">
        <ele>0.000000</ele>
        <time>2020-08-26T10:42:05.794Z</time>
      </trkpt>
      <trkpt lat="37.569782" lon="-4.051089">
        <ele>0.000000</ele>
        <time>2020-08-26T10:42:05.794Z</time>
      </trkpt>
      <trkpt lat="37.570194" lon="-4.051831">
        <ele>0.000000</ele>
        <time>2020-08-26T10:42:05.794Z</time>
      </trkpt>
      <trkpt lat="37.570872" lon="-4.052435">
        <ele>0.000000</ele>
        <time>2020-08-26T10:42:05.794Z</time>
      </trkpt>
      <trkpt lat="37.571344" lon="-4.052652">
        <ele>0.000000</ele>
        <time>2020-08-26T10:42:05.794Z</time>
      </trkpt>
      <trkpt lat="37.571912" lon="-4.053116">
        <ele>0.000000</ele>
        <time>2020-08-26T10:42:05.794Z</time>
      </trkpt>
      <trkpt lat="37.573264" lon="-4.053205">
        <ele>0.000000</ele>
        <time>2020-08-26T10:42:05.794Z</time>
      </trkpt>
      <trkpt lat="37.573905" lon="-4.053161">
        <ele>0.000000</ele>
        <time>2020-08-26T10:42:05.794Z</time>
      </trkpt>
      <trkpt lat="37.575465" lon="-4.054053">
        <ele>0.000000</ele>
        <time>2020-08-26T10:42:05.794Z</time>
      </trkpt>
      <trkpt lat="37.576497" lon="-4.054967">
        <ele>0.000000</ele>
        <time>2020-08-26T10:42:05.794Z</time>
      </trkpt>
      <trkpt lat="37.576772" lon="-4.055426">
        <ele>0.000000</ele>
        <time>2020-08-26T10:42:05.794Z</time>
      </trkpt>
      <trkpt lat="37.577060" lon="-4.055991">
        <ele>0.000000</ele>
        <time>2020-08-26T10:42:05.794Z</time>
      </trkpt>
      <trkpt lat="37.577433" lon="-4.056417">
        <ele>0.000000</ele>
        <time>2020-08-26T10:42:05.794Z</time>
      </trkpt>
      <trkpt lat="37.577876" lon="-4.056756">
        <ele>0.000000</ele>
        <time>2020-08-26T10:42:05.794Z</time>
      </trkpt>
      <trkpt lat="37.578401" lon="-4.057324">
        <ele>0.000000</ele>
        <time>2020-08-26T10:42:05.794Z</time>
      </trkpt>
      <trkpt lat="37.579652" lon="-4.057938">
        <ele>0.000000</ele>
        <time>2020-08-26T10:42:05.794Z</time>
      </trkpt>
      <trkpt lat="37.583190" lon="-4.060109">
        <ele>0.000000</ele>
        <time>2020-08-26T10:42:05.794Z</time>
      </trkpt>
      <trkpt lat="37.584044" lon="-4.060890">
        <ele>0.000000</ele>
        <time>2020-08-26T10:42:05.794Z</time>
      </trkpt>
      <trkpt lat="37.584566" lon="-4.061721">
        <ele>0.000000</ele>
        <time>2020-08-26T10:42:05.794Z</time>
      </trkpt>
      <trkpt lat="37.585560" lon="-4.062909">
        <ele>0.000000</ele>
        <time>2020-08-26T10:42:05.794Z</time>
      </trkpt>
      <trkpt lat="37.586445" lon="-4.063710">
        <ele>0.000000</ele>
        <time>2020-08-26T10:42:05.794Z</time>
      </trkpt>
      <trkpt lat="37.586300" lon="-4.064444">
        <ele>0.000000</ele>
        <time>2020-08-26T10:42:05.794Z</time>
      </trkpt>
      <trkpt lat="37.586363" lon="-4.065128">
        <ele>0.000000</ele>
        <time>2020-08-26T10:42:05.794Z</time>
      </trkpt>
      <trkpt lat="37.586546" lon="-4.065762">
        <ele>0.000000</ele>
        <time>2020-08-26T10:42:05.794Z</time>
      </trkpt>
      <trkpt lat="37.586650" lon="-4.067374">
        <ele>0.000000</ele>
        <time>2020-08-26T10:42:05.794Z</time>
      </trkpt>
      <trkpt lat="37.586847" lon="-4.068779">
        <ele>0.000000</ele>
        <time>2020-08-26T10:42:05.794Z</time>
      </trkpt>
      <trkpt lat="37.587179" lon="-4.069219">
        <ele>0.000000</ele>
        <time>2020-08-26T10:42:05.794Z</time>
      </trkpt>
      <trkpt lat="37.587914" lon="-4.070984">
        <ele>0.000000</ele>
        <time>2020-08-26T10:42:05.794Z</time>
      </trkpt>
      <trkpt lat="37.588297" lon="-4.071796">
        <ele>0.000000</ele>
        <time>2020-08-26T10:42:05.794Z</time>
      </trkpt>
      <trkpt lat="37.588385" lon="-4.072953">
        <ele>0.000000</ele>
        <time>2020-08-26T10:42:05.794Z</time>
      </trkpt>
      <trkpt lat="37.588515" lon="-4.073989">
        <ele>0.000000</ele>
        <time>2020-08-26T10:42:05.794Z</time>
      </trkpt>
      <trkpt lat="37.588758" lon="-4.074620">
        <ele>0.000000</ele>
        <time>2020-08-26T10:42:05.794Z</time>
      </trkpt>
      <trkpt lat="37.589279" lon="-4.076977">
        <ele>0.000000</ele>
        <time>2020-08-26T10:42:05.794Z</time>
      </trkpt>
      <trkpt lat="37.589238" lon="-4.078188">
        <ele>0.000000</ele>
        <time>2020-08-26T10:42:05.794Z</time>
      </trkpt>
      <trkpt lat="37.589079" lon="-4.079171">
        <ele>0.000000</ele>
        <time>2020-08-26T10:42:05.794Z</time>
      </trkpt>
      <trkpt lat="37.588879" lon="-4.080004">
        <ele>0.000000</ele>
        <time>2020-08-26T10:42:05.794Z</time>
      </trkpt>
      <trkpt lat="37.588730" lon="-4.081000">
        <ele>0.000000</ele>
        <time>2020-08-26T10:42:05.794Z</time>
      </trkpt>
      <trkpt lat="37.589597" lon="-4.082292">
        <ele>0.000000</ele>
        <time>2020-08-26T10:42:05.794Z</time>
      </trkpt>
      <trkpt lat="37.590176" lon="-4.082966">
        <ele>0.000000</ele>
        <time>2020-08-26T10:42:05.794Z</time>
      </trkpt>
      <trkpt lat="37.590543" lon="-4.084005">
        <ele>0.000000</ele>
        <time>2020-08-26T10:42:05.794Z</time>
      </trkpt>
      <trkpt lat="37.590889" lon="-4.084326">
        <ele>0.000000</ele>
        <time>2020-08-26T10:42:05.794Z</time>
      </trkpt>
      <trkpt lat="37.590998" lon="-4.084555">
        <ele>0.000000</ele>
        <time>2020-08-26T10:42:05.794Z</time>
      </trkpt>
      <trkpt lat="37.591012" lon="-4.086132">
        <ele>0.000000</ele>
        <time>2020-08-26T10:42:05.794Z</time>
      </trkpt>
      <trkpt lat="37.590996" lon="-4.086219">
        <ele>0.000000</ele>
        <time>2020-08-26T10:42:05.794Z</time>
      </trkpt>
      <trkpt lat="37.591349" lon="-4.086939">
        <ele>0.000000</ele>
        <time>2020-08-26T10:42:05.794Z</time>
      </trkpt>
      <trkpt lat="37.591595" lon="-4.088834">
        <ele>0.000000</ele>
        <time>2020-08-26T10:42:05.794Z</time>
      </trkpt>
      <trkpt lat="37.591445" lon="-4.089434">
        <ele>0.000000</ele>
        <time>2020-08-26T10:42:05.794Z</time>
      </trkpt>
      <trkpt lat="37.591254" lon="-4.089599">
        <ele>0.000000</ele>
        <time>2020-08-26T10:42:05.794Z</time>
      </trkpt>
      <trkpt lat="37.590995" lon="-4.089875">
        <ele>0.000000</ele>
        <time>2020-08-26T10:42:05.794Z</time>
      </trkpt>
      <trkpt lat="37.590761" lon="-4.089997">
        <ele>0.000000</ele>
        <time>2020-08-26T10:42:05.794Z</time>
      </trkpt>
      <trkpt lat="37.590360" lon="-4.090019">
        <ele>0.000000</ele>
        <time>2020-08-26T10:42:05.794Z</time>
      </trkpt>
      <trkpt lat="37.590513" lon="-4.090329">
        <ele>0.000000</ele>
        <time>2020-08-26T10:42:05.794Z</time>
      </trkpt>
      <trkpt lat="37.590936" lon="-4.090349">
        <ele>0.000000</ele>
        <time>2020-08-26T10:42:05.794Z</time>
      </trkpt>
      <trkpt lat="37.591323" lon="-4.090663">
        <ele>0.000000</ele>
        <time>2020-08-26T10:42:05.794Z</time>
      </trkpt>
      <trkpt lat="37.591767" lon="-4.090823">
        <ele>0.000000</ele>
        <time>2020-08-26T10:42:05.794Z</time>
      </trkpt>
      <trkpt lat="37.590962" lon="-4.091231">
        <ele>0.000000</ele>
        <time>2020-08-26T10:42:05.794Z</time>
      </trkpt>
      <trkpt lat="37.590459" lon="-4.091419">
        <ele>0.000000</ele>
        <time>2020-08-26T10:42:05.794Z</time>
      </trkpt>
      <trkpt lat="37.590542" lon="-4.092064">
        <ele>0.000000</ele>
        <time>2020-08-26T10:42:05.794Z</time>
      </trkpt>
      <trkpt lat="37.590097" lon="-4.092941">
        <ele>0.000000</ele>
        <time>2020-08-26T10:42:05.794Z</time>
      </trkpt>
      <trkpt lat="37.589354" lon="-4.091851">
        <ele>0.000000</ele>
        <time>2020-08-26T10:42:05.794Z</time>
      </trkpt>
      <trkpt lat="37.589129" lon="-4.092030">
        <ele>0.000000</ele>
        <time>2020-08-26T10:42:05.794Z</time>
      </trkpt>
      <trkpt lat="37.588984" lon="-4.092097">
        <ele>0.000000</ele>
        <time>2020-08-26T10:42:05.794Z</time>
      </trkpt>
      <trkpt lat="37.588995" lon="-4.092537">
        <ele>0.000000</ele>
        <time>2020-08-26T10:42:05.794Z</time>
      </trkpt>
      <trkpt lat="37.589302" lon="-4.094998">
        <ele>0.000000</ele>
        <time>2020-08-26T10:42:05.794Z</time>
      </trkpt>
      <trkpt lat="37.589331" lon="-4.095530">
        <ele>0.000000</ele>
        <time>2020-08-26T10:42:05.794Z</time>
      </trkpt>
      <trkpt lat="37.589091" lon="-4.096268">
        <ele>0.000000</ele>
        <time>2020-08-26T10:42:05.794Z</time>
      </trkpt>
      <trkpt lat="37.588750" lon="-4.096499">
        <ele>0.000000</ele>
        <time>2020-08-26T10:42:05.794Z</time>
      </trkpt>
      <trkpt lat="37.585957" lon="-4.099189">
        <ele>0.000000</ele>
        <time>2020-08-26T10:42:05.794Z</time>
      </trkpt>
      <trkpt lat="37.585107" lon="-4.100972">
        <ele>0.000000</ele>
        <time>2020-08-26T10:42:05.794Z</time>
      </trkpt>
      <trkpt lat="37.584435" lon="-4.103587">
        <ele>0.000000</ele>
        <time>2020-08-26T10:42:05.794Z</time>
      </trkpt>
      <trkpt lat="37.583397" lon="-4.105585">
        <ele>0.000000</ele>
        <time>2020-08-26T10:42:05.794Z</time>
      </trkpt>
      <trkpt lat="37.581450" lon="-4.110120">
        <ele>0.000000</ele>
        <time>2020-08-26T10:42:05.794Z</time>
      </trkpt>
      <trkpt lat="37.580747" lon="-4.112164">
        <ele>0.000000</ele>
        <time>2020-08-26T10:42:05.794Z</time>
      </trkpt>
      <trkpt lat="37.580346" lon="-4.113445">
        <ele>0.000000</ele>
        <time>2020-08-26T10:42:05.794Z</time>
      </trkpt>
      <trkpt lat="37.579783" lon="-4.114038">
        <ele>0.000000</ele>
        <time>2020-08-26T10:42:05.794Z</time>
      </trkpt>
      <trkpt lat="37.578739" lon="-4.115030">
        <ele>0.000000</ele>
        <time>2020-08-26T10:42:05.794Z</time>
      </trkpt>
      <trkpt lat="37.577753" lon="-4.115673">
        <ele>0.000000</ele>
        <time>2020-08-26T10:42:05.794Z</time>
      </trkpt>
      <trkpt lat="37.576623" lon="-4.116230">
        <ele>0.000000</ele>
        <time>2020-08-26T10:42:05.794Z</time>
      </trkpt>
      <trkpt lat="37.575451" lon="-4.118147">
        <ele>0.000000</ele>
        <time>2020-08-26T10:42:05.794Z</time>
      </trkpt>
      <trkpt lat="37.574663" lon="-4.119631">
        <ele>0.000000</ele>
        <time>2020-08-26T10:42:05.794Z</time>
      </trkpt>
      <trkpt lat="37.574203" lon="-4.121157">
        <ele>0.000000</ele>
        <time>2020-08-26T10:42:05.794Z</time>
      </trkpt>
      <trkpt lat="37.573712" lon="-4.123866">
        <ele>0.000000</ele>
        <time>2020-08-26T10:42:05.794Z</time>
      </trkpt>
      <trkpt lat="37.573488" lon="-4.125150">
        <ele>0.000000</ele>
        <time>2020-08-26T10:42:05.794Z</time>
      </trkpt>
      <trkpt lat="37.573627" lon="-4.125375">
        <ele>0.000000</ele>
        <time>2020-08-26T10:42:05.794Z</time>
      </trkpt>
      <trkpt lat="37.573981" lon="-4.129563">
        <ele>0.000000</ele>
        <time>2020-08-26T10:42:05.794Z</time>
      </trkpt>
      <trkpt lat="37.573882" lon="-4.131688">
        <ele>0.000000</ele>
        <time>2020-08-26T10:42:05.794Z</time>
      </trkpt>
      <trkpt lat="37.573697" lon="-4.133716">
        <ele>0.000000</ele>
        <time>2020-08-26T10:42:05.794Z</time>
      </trkpt>
      <trkpt lat="37.573475" lon="-4.134689">
        <ele>0.000000</ele>
        <time>2020-08-26T10:42:05.794Z</time>
      </trkpt>
      <trkpt lat="37.573341" lon="-4.135960">
        <ele>0.000000</ele>
        <time>2020-08-26T10:42:05.794Z</time>
      </trkpt>
      <trkpt lat="37.572939" lon="-4.137283">
        <ele>0.000000</ele>
        <time>2020-08-26T10:42:05.794Z</time>
      </trkpt>
      <trkpt lat="37.572906" lon="-4.138318">
        <ele>0.000000</ele>
        <time>2020-08-26T10:42:05.794Z</time>
      </trkpt>
      <trkpt lat="37.572988" lon="-4.139316">
        <ele>0.000000</ele>
        <time>2020-08-26T10:42:05.794Z</time>
      </trkpt>
      <trkpt lat="37.572875" lon="-4.139744">
        <ele>0.000000</ele>
        <time>2020-08-26T10:42:05.794Z</time>
      </trkpt>
      <trkpt lat="37.572443" lon="-4.140280">
        <ele>0.000000</ele>
        <time>2020-08-26T10:42:05.794Z</time>
      </trkpt>
      <trkpt lat="37.572521" lon="-4.140606">
        <ele>0.000000</ele>
        <time>2020-08-26T10:42:05.794Z</time>
      </trkpt>
      <trkpt lat="37.572483" lon="-4.141123">
        <ele>0.000000</ele>
        <time>2020-08-26T10:42:05.794Z</time>
      </trkpt>
      <trkpt lat="37.572372" lon="-4.141550">
        <ele>0.000000</ele>
        <time>2020-08-26T10:42:05.794Z</time>
      </trkpt>
      <trkpt lat="37.572407" lon="-4.142129">
        <ele>0.000000</ele>
        <time>2020-08-26T10:42:05.794Z</time>
      </trkpt>
      <trkpt lat="37.572402" lon="-4.142605">
        <ele>0.000000</ele>
        <time>2020-08-26T10:42:05.794Z</time>
      </trkpt>
      <trkpt lat="37.572682" lon="-4.143350">
        <ele>0.000000</ele>
        <time>2020-08-26T10:42:05.794Z</time>
      </trkpt>
      <trkpt lat="37.572743" lon="-4.144260">
        <ele>0.000000</ele>
        <time>2020-08-26T10:42:05.794Z</time>
      </trkpt>
      <trkpt lat="37.572888" lon="-4.145452">
        <ele>0.000000</ele>
        <time>2020-08-26T10:42:05.794Z</time>
      </trkpt>
      <trkpt lat="37.572892" lon="-4.146137">
        <ele>0.000000</ele>
        <time>2020-08-26T10:42:05.794Z</time>
      </trkpt>
      <trkpt lat="37.573098" lon="-4.146573">
        <ele>0.000000</ele>
        <time>2020-08-26T10:42:05.794Z</time>
      </trkpt>
      <trkpt lat="37.573218" lon="-4.147037">
        <ele>0.000000</ele>
        <time>2020-08-26T10:42:05.794Z</time>
      </trkpt>
      <trkpt lat="37.573057" lon="-4.147538">
        <ele>0.000000</ele>
        <time>2020-08-26T10:42:05.794Z</time>
      </trkpt>
      <trkpt lat="37.573087" lon="-4.147916">
        <ele>0.000000</ele>
        <time>2020-08-26T10:42:05.794Z</time>
      </trkpt>
      <trkpt lat="37.573464" lon="-4.148062">
        <ele>0.000000</ele>
        <time>2020-08-26T10:42:05.794Z</time>
      </trkpt>
      <trkpt lat="37.573962" lon="-4.148391">
        <ele>0.000000</ele>
        <time>2020-08-26T10:42:05.794Z</time>
      </trkpt>
      <trkpt lat="37.574351" lon="-4.148509">
        <ele>0.000000</ele>
        <time>2020-08-26T10:42:05.794Z</time>
      </trkpt>
      <trkpt lat="37.574595" lon="-4.148840">
        <ele>0.000000</ele>
        <time>2020-08-26T10:42:05.794Z</time>
      </trkpt>
      <trkpt lat="37.574687" lon="-4.149451">
        <ele>0.000000</ele>
        <time>2020-08-26T10:42:05.794Z</time>
      </trkpt>
      <trkpt lat="37.574861" lon="-4.149944">
        <ele>0.000000</ele>
        <time>2020-08-26T10:42:05.794Z</time>
      </trkpt>
      <trkpt lat="37.574902" lon="-4.151014">
        <ele>0.000000</ele>
        <time>2020-08-26T10:42:05.794Z</time>
      </trkpt>
      <trkpt lat="37.574848" lon="-4.151259">
        <ele>0.000000</ele>
        <time>2020-08-26T10:42:05.794Z</time>
      </trkpt>
      <trkpt lat="37.575289" lon="-4.151685">
        <ele>0.000000</ele>
        <time>2020-08-26T10:42:05.794Z</time>
      </trkpt>
      <trkpt lat="37.575779" lon="-4.151734">
        <ele>0.000000</ele>
        <time>2020-08-26T10:42:05.794Z</time>
      </trkpt>
      <trkpt lat="37.575584" lon="-4.152305">
        <ele>0.000000</ele>
        <time>2020-08-26T10:42:05.794Z</time>
      </trkpt>
      <trkpt lat="37.575281" lon="-4.152566">
        <ele>0.000000</ele>
        <time>2020-08-26T10:42:05.794Z</time>
      </trkpt>
      <trkpt lat="37.575164" lon="-4.153207">
        <ele>0.000000</ele>
        <time>2020-08-26T10:42:05.794Z</time>
      </trkpt>
      <trkpt lat="37.575191" lon="-4.153851">
        <ele>0.000000</ele>
        <time>2020-08-26T10:42:05.794Z</time>
      </trkpt>
      <trkpt lat="37.575277" lon="-4.154216">
        <ele>0.000000</ele>
        <time>2020-08-26T10:42:05.794Z</time>
      </trkpt>
      <trkpt lat="37.575317" lon="-4.154594">
        <ele>0.000000</ele>
        <time>2020-08-26T10:42:05.794Z</time>
      </trkpt>
      <trkpt lat="37.575547" lon="-4.155138">
        <ele>0.000000</ele>
        <time>2020-08-26T10:42:05.794Z</time>
      </trkpt>
      <trkpt lat="37.575739" lon="-4.156861">
        <ele>0.000000</ele>
        <time>2020-08-26T10:42:05.794Z</time>
      </trkpt>
      <trkpt lat="37.576001" lon="-4.157557">
        <ele>0.000000</ele>
        <time>2020-08-26T10:42:05.794Z</time>
      </trkpt>
      <trkpt lat="37.576551" lon="-4.158237">
        <ele>0.000000</ele>
        <time>2020-08-26T10:42:05.794Z</time>
      </trkpt>
      <trkpt lat="37.578925" lon="-4.159865">
        <ele>0.000000</ele>
        <time>2020-08-26T10:42:05.794Z</time>
      </trkpt>
      <trkpt lat="37.579259" lon="-4.160335">
        <ele>0.000000</ele>
        <time>2020-08-26T10:42:05.794Z</time>
      </trkpt>
      <trkpt lat="37.579599" lon="-4.160960">
        <ele>0.000000</ele>
        <time>2020-08-26T10:42:05.794Z</time>
      </trkpt>
      <trkpt lat="37.579738" lon="-4.161972">
        <ele>0.000000</ele>
        <time>2020-08-26T10:42:05.794Z</time>
      </trkpt>
      <trkpt lat="37.579489" lon="-4.162941">
        <ele>0.000000</ele>
        <time>2020-08-26T10:42:05.794Z</time>
      </trkpt>
      <trkpt lat="37.579062" lon="-4.163354">
        <ele>0.000000</ele>
        <time>2020-08-26T10:42:05.794Z</time>
      </trkpt>
      <trkpt lat="37.578470" lon="-4.163540">
        <ele>0.000000</ele>
        <time>2020-08-26T10:42:05.794Z</time>
      </trkpt>
      <trkpt lat="37.577344" lon="-4.163788">
        <ele>0.000000</ele>
        <time>2020-08-26T10:42:05.794Z</time>
      </trkpt>
      <trkpt lat="37.576613" lon="-4.164490">
        <ele>0.000000</ele>
        <time>2020-08-26T10:42:05.794Z</time>
      </trkpt>
      <trkpt lat="37.576093" lon="-4.165294">
        <ele>0.000000</ele>
        <time>2020-08-26T10:42:05.794Z</time>
      </trkpt>
      <trkpt lat="37.575515" lon="-4.166306">
        <ele>0.000000</ele>
        <time>2020-08-26T10:42:05.794Z</time>
      </trkpt>
      <trkpt lat="37.574118" lon="-4.168033">
        <ele>0.000000</ele>
        <time>2020-08-26T10:42:05.794Z</time>
      </trkpt>
      <trkpt lat="37.573347" lon="-4.170510">
        <ele>0.000000</ele>
        <time>2020-08-26T10:42:05.794Z</time>
      </trkpt>
      <trkpt lat="37.572951" lon="-4.171189">
        <ele>0.000000</ele>
        <time>2020-08-26T10:42:05.794Z</time>
      </trkpt>
      <trkpt lat="37.572662" lon="-4.172220">
        <ele>0.000000</ele>
        <time>2020-08-26T10:42:05.794Z</time>
      </trkpt>
      <trkpt lat="37.572829" lon="-4.173398">
        <ele>0.000000</ele>
        <time>2020-08-26T10:42:05.794Z</time>
      </trkpt>
      <trkpt lat="37.572830" lon="-4.174377">
        <ele>0.000000</ele>
        <time>2020-08-26T10:42:05.794Z</time>
      </trkpt>
      <trkpt lat="37.572743" lon="-4.175285">
        <ele>0.000000</ele>
        <time>2020-08-26T10:42:05.794Z</time>
      </trkpt>
      <trkpt lat="37.572875" lon="-4.175853">
        <ele>0.000000</ele>
        <time>2020-08-26T10:42:05.794Z</time>
      </trkpt>
      <trkpt lat="37.572944" lon="-4.176393">
        <ele>0.000000</ele>
        <time>2020-08-26T10:42:05.794Z</time>
      </trkpt>
      <trkpt lat="37.573134" lon="-4.176867">
        <ele>0.000000</ele>
        <time>2020-08-26T10:42:05.794Z</time>
      </trkpt>
      <trkpt lat="37.573267" lon="-4.177517">
        <ele>0.000000</ele>
        <time>2020-08-26T10:42:05.794Z</time>
      </trkpt>
      <trkpt lat="37.573135" lon="-4.179709">
        <ele>0.000000</ele>
        <time>2020-08-26T10:42:05.794Z</time>
      </trkpt>
      <trkpt lat="37.573216" lon="-4.180468">
        <ele>0.000000</ele>
        <time>2020-08-26T10:42:05.794Z</time>
      </trkpt>
      <trkpt lat="37.573507" lon="-4.181286">
        <ele>0.000000</ele>
        <time>2020-08-26T10:42:05.794Z</time>
      </trkpt>
      <trkpt lat="37.573488" lon="-4.183231">
        <ele>0.000000</ele>
        <time>2020-08-26T10:42:05.794Z</time>
      </trkpt>
      <trkpt lat="37.573560" lon="-4.183928">
        <ele>0.000000</ele>
        <time>2020-08-26T10:42:05.794Z</time>
      </trkpt>
      <trkpt lat="37.573925" lon="-4.185291">
        <ele>0.000000</ele>
        <time>2020-08-26T10:42:05.794Z</time>
      </trkpt>
      <trkpt lat="37.574100" lon="-4.185587">
        <ele>0.000000</ele>
        <time>2020-08-26T10:42:05.794Z</time>
      </trkpt>
      <trkpt lat="37.574696" lon="-4.187220">
        <ele>0.000000</ele>
        <time>2020-08-26T10:42:05.794Z</time>
      </trkpt>
      <trkpt lat="37.575718" lon="-4.189437">
        <ele>0.000000</ele>
        <time>2020-08-26T10:42:05.794Z</time>
      </trkpt>
      <trkpt lat="37.576179" lon="-4.190321">
        <ele>0.000000</ele>
        <time>2020-08-26T10:42:05.794Z</time>
      </trkpt>
      <trkpt lat="37.576924" lon="-4.190990">
        <ele>0.000000</ele>
        <time>2020-08-26T10:42:05.794Z</time>
      </trkpt>
      <trkpt lat="37.577530" lon="-4.192832">
        <ele>0.000000</ele>
        <time>2020-08-26T10:42:05.794Z</time>
      </trkpt>
      <trkpt lat="37.578133" lon="-4.195048">
        <ele>0.000000</ele>
        <time>2020-08-26T10:42:05.794Z</time>
      </trkpt>
      <trkpt lat="37.578154" lon="-4.195430">
        <ele>0.000000</ele>
        <time>2020-08-26T10:42:05.794Z</time>
      </trkpt>
      <trkpt lat="37.578082" lon="-4.195947">
        <ele>0.000000</ele>
        <time>2020-08-26T10:42:05.794Z</time>
      </trkpt>
      <trkpt lat="37.578123" lon="-4.196325">
        <ele>0.000000</ele>
        <time>2020-08-26T10:42:05.794Z</time>
      </trkpt>
      <trkpt lat="37.578520" lon="-4.196737">
        <ele>0.000000</ele>
        <time>2020-08-26T10:42:05.794Z</time>
      </trkpt>
      <trkpt lat="37.578706" lon="-4.197302">
        <ele>0.000000</ele>
        <time>2020-08-26T10:42:05.794Z</time>
      </trkpt>
      <trkpt lat="37.578830" lon="-4.198043">
        <ele>0.000000</ele>
        <time>2020-08-26T10:42:05.794Z</time>
      </trkpt>
      <trkpt lat="37.579059" lon="-4.198536">
        <ele>0.000000</ele>
        <time>2020-08-26T10:42:05.794Z</time>
      </trkpt>
      <trkpt lat="37.579543" lon="-4.199103">
        <ele>0.000000</ele>
        <time>2020-08-26T10:42:05.794Z</time>
      </trkpt>
      <trkpt lat="37.580648" lon="-4.200030">
        <ele>0.000000</ele>
        <time>2020-08-26T10:42:05.794Z</time>
      </trkpt>
      <trkpt lat="37.580885" lon="-4.200790">
        <ele>0.000000</ele>
        <time>2020-08-26T10:42:05.794Z</time>
      </trkpt>
      <trkpt lat="37.581254" lon="-4.201194">
        <ele>0.000000</ele>
        <time>2020-08-26T10:42:05.794Z</time>
      </trkpt>
      <trkpt lat="37.581675" lon="-4.202161">
        <ele>0.000000</ele>
        <time>2020-08-26T10:42:05.794Z</time>
      </trkpt>
      <trkpt lat="37.581779" lon="-4.202862">
        <ele>0.000000</ele>
        <time>2020-08-26T10:42:05.794Z</time>
      </trkpt>
      <trkpt lat="37.581687" lon="-4.203734">
        <ele>0.000000</ele>
        <time>2020-08-26T10:42:05.794Z</time>
      </trkpt>
      <trkpt lat="37.581845" lon="-4.204662">
        <ele>0.000000</ele>
        <time>2020-08-26T10:42:05.794Z</time>
      </trkpt>
      <trkpt lat="37.581808" lon="-4.205518">
        <ele>0.000000</ele>
        <time>2020-08-26T10:42:05.794Z</time>
      </trkpt>
      <trkpt lat="37.581828" lon="-4.206321">
        <ele>0.000000</ele>
        <time>2020-08-26T10:42:05.794Z</time>
      </trkpt>
      <trkpt lat="37.581893" lon="-4.206759">
        <ele>0.000000</ele>
        <time>2020-08-26T10:42:05.794Z</time>
      </trkpt>
      <trkpt lat="37.581525" lon="-4.207400">
        <ele>0.000000</ele>
        <time>2020-08-26T10:42:05.794Z</time>
      </trkpt>
      <trkpt lat="37.581382" lon="-4.207816">
        <ele>0.000000</ele>
        <time>2020-08-26T10:42:05.794Z</time>
      </trkpt>
      <trkpt lat="37.581348" lon="-4.208462">
        <ele>0.000000</ele>
        <time>2020-08-26T10:42:05.794Z</time>
      </trkpt>
      <trkpt lat="37.581062" lon="-4.209191">
        <ele>0.000000</ele>
        <time>2020-08-26T10:42:05.794Z</time>
      </trkpt>
      <trkpt lat="37.580582" lon="-4.209900">
        <ele>0.000000</ele>
        <time>2020-08-26T10:42:05.794Z</time>
      </trkpt>
      <trkpt lat="37.580623" lon="-4.211628">
        <ele>0.000000</ele>
        <time>2020-08-26T10:42:05.794Z</time>
      </trkpt>
      <trkpt lat="37.580845" lon="-4.212559">
        <ele>0.000000</ele>
        <time>2020-08-26T10:42:05.794Z</time>
      </trkpt>
      <trkpt lat="37.581178" lon="-4.214432">
        <ele>0.000000</ele>
        <time>2020-08-26T10:42:05.794Z</time>
      </trkpt>
      <trkpt lat="37.581533" lon="-4.215049">
        <ele>0.000000</ele>
        <time>2020-08-26T10:42:05.794Z</time>
      </trkpt>
      <trkpt lat="37.581778" lon="-4.215664">
        <ele>0.000000</ele>
        <time>2020-08-26T10:42:05.794Z</time>
      </trkpt>
      <trkpt lat="37.582260" lon="-4.216109">
        <ele>0.000000</ele>
        <time>2020-08-26T10:42:05.794Z</time>
      </trkpt>
      <trkpt lat="37.582588" lon="-4.216586">
        <ele>0.000000</ele>
        <time>2020-08-26T10:42:05.794Z</time>
      </trkpt>
      <trkpt lat="37.582569" lon="-4.217162">
        <ele>0.000000</ele>
        <time>2020-08-26T10:42:05.794Z</time>
      </trkpt>
      <trkpt lat="37.582799" lon="-4.217794">
        <ele>0.000000</ele>
        <time>2020-08-26T10:42:05.794Z</time>
      </trkpt>
      <trkpt lat="37.583174" lon="-4.217870">
        <ele>0.000000</ele>
        <time>2020-08-26T10:42:05.794Z</time>
      </trkpt>
      <trkpt lat="37.583708" lon="-4.218648">
        <ele>0.000000</ele>
        <time>2020-08-26T10:42:05.794Z</time>
      </trkpt>
      <trkpt lat="37.584175" lon="-4.219232">
        <ele>0.000000</ele>
        <time>2020-08-26T10:42:05.794Z</time>
      </trkpt>
      <trkpt lat="37.584497" lon="-4.220057">
        <ele>0.000000</ele>
        <time>2020-08-26T10:42:05.794Z</time>
      </trkpt>
      <trkpt lat="37.585669" lon="-4.222611">
        <ele>0.000000</ele>
        <time>2020-08-26T10:42:05.794Z</time>
      </trkpt>
      <trkpt lat="37.586086" lon="-4.224015">
        <ele>0.000000</ele>
        <time>2020-08-26T10:42:05.794Z</time>
      </trkpt>
      <trkpt lat="37.586756" lon="-4.225039">
        <ele>0.000000</ele>
        <time>2020-08-26T10:42:05.794Z</time>
      </trkpt>
      <trkpt lat="37.587811" lon="-4.226559">
        <ele>0.000000</ele>
        <time>2020-08-26T10:42:05.794Z</time>
      </trkpt>
      <trkpt lat="37.588356" lon="-4.227704">
        <ele>0.000000</ele>
        <time>2020-08-26T10:42:05.794Z</time>
      </trkpt>
      <trkpt lat="37.588844" lon="-4.228633">
        <ele>0.000000</ele>
        <time>2020-08-26T10:42:05.794Z</time>
      </trkpt>
      <trkpt lat="37.589321" lon="-4.229833">
        <ele>0.000000</ele>
        <time>2020-08-26T10:42:05.794Z</time>
      </trkpt>
      <trkpt lat="37.590565" lon="-4.231558">
        <ele>0.000000</ele>
        <time>2020-08-26T10:42:05.794Z</time>
      </trkpt>
      <trkpt lat="37.590850" lon="-4.232497">
        <ele>0.000000</ele>
        <time>2020-08-26T10:42:05.794Z</time>
      </trkpt>
      <trkpt lat="37.591202" lon="-4.233411">
        <ele>0.000000</ele>
        <time>2020-08-26T10:42:05.794Z</time>
      </trkpt>
      <trkpt lat="37.591356" lon="-4.234064">
        <ele>0.000000</ele>
        <time>2020-08-26T10:42:05.794Z</time>
      </trkpt>
      <trkpt lat="37.591635" lon="-4.237838">
        <ele>0.000000</ele>
        <time>2020-08-26T10:42:05.794Z</time>
      </trkpt>
      <trkpt lat="37.591643" lon="-4.238770">
        <ele>0.000000</ele>
        <time>2020-08-26T10:42:05.794Z</time>
      </trkpt>
      <trkpt lat="37.591584" lon="-4.239313">
        <ele>0.000000</ele>
        <time>2020-08-26T10:42:05.794Z</time>
      </trkpt>
      <trkpt lat="37.591859" lon="-4.240028">
        <ele>0.000000</ele>
        <time>2020-08-26T10:42:05.794Z</time>
      </trkpt>
      <trkpt lat="37.592397" lon="-4.241013">
        <ele>0.000000</ele>
        <time>2020-08-26T10:42:05.794Z</time>
      </trkpt>
      <trkpt lat="37.592693" lon="-4.241418">
        <ele>0.000000</ele>
        <time>2020-08-26T10:42:05.794Z</time>
      </trkpt>
      <trkpt lat="37.592873" lon="-4.241942">
        <ele>0.000000</ele>
        <time>2020-08-26T10:42:05.794Z</time>
      </trkpt>
      <trkpt lat="37.593445" lon="-4.243040">
        <ele>0.000000</ele>
        <time>2020-08-26T10:42:05.794Z</time>
      </trkpt>
      <trkpt lat="37.594182" lon="-4.244339">
        <ele>0.000000</ele>
        <time>2020-08-26T10:42:05.794Z</time>
      </trkpt>
      <trkpt lat="37.594571" lon="-4.244823">
        <ele>0.000000</ele>
        <time>2020-08-26T10:42:05.794Z</time>
      </trkpt>
      <trkpt lat="37.594725" lon="-4.245603">
        <ele>0.000000</ele>
        <time>2020-08-26T10:42:05.794Z</time>
      </trkpt>
      <trkpt lat="37.595064" lon="-4.246974">
        <ele>0.000000</ele>
        <time>2020-08-26T10:42:05.794Z</time>
      </trkpt>
      <trkpt lat="37.595264" lon="-4.247321">
        <ele>0.000000</ele>
        <time>2020-08-26T10:42:05.794Z</time>
      </trkpt>
      <trkpt lat="37.595471" lon="-4.248027">
        <ele>0.000000</ele>
        <time>2020-08-26T10:42:05.794Z</time>
      </trkpt>
      <trkpt lat="37.595517" lon="-4.249312">
        <ele>0.000000</ele>
        <time>2020-08-26T10:42:05.794Z</time>
      </trkpt>
      <trkpt lat="37.595822" lon="-4.250516">
        <ele>0.000000</ele>
        <time>2020-08-26T10:42:05.794Z</time>
      </trkpt>
      <trkpt lat="37.595936" lon="-4.251472">
        <ele>0.000000</ele>
        <time>2020-08-26T10:42:05.794Z</time>
      </trkpt>
      <trkpt lat="37.596154" lon="-4.252512">
        <ele>0.000000</ele>
        <time>2020-08-26T10:42:05.794Z</time>
      </trkpt>
      <trkpt lat="37.596341" lon="-4.254128">
        <ele>0.000000</ele>
        <time>2020-08-26T10:42:05.794Z</time>
      </trkpt>
      <trkpt lat="37.596378" lon="-4.256109">
        <ele>0.000000</ele>
        <time>2020-08-26T10:42:05.794Z</time>
      </trkpt>
      <trkpt lat="37.596248" lon="-4.256732">
        <ele>0.000000</ele>
        <time>2020-08-26T10:42:05.794Z</time>
      </trkpt>
      <trkpt lat="37.596446" lon="-4.258016">
        <ele>0.000000</ele>
        <time>2020-08-26T10:42:05.794Z</time>
      </trkpt>
      <trkpt lat="37.596509" lon="-4.260364">
        <ele>0.000000</ele>
        <time>2020-08-26T10:42:05.794Z</time>
      </trkpt>
      <trkpt lat="37.596605" lon="-4.262308">
        <ele>0.000000</ele>
        <time>2020-08-26T10:42:05.794Z</time>
      </trkpt>
      <trkpt lat="37.596818" lon="-4.264255">
        <ele>0.000000</ele>
        <time>2020-08-26T10:42:05.794Z</time>
      </trkpt>
      <trkpt lat="37.596701" lon="-4.265620">
        <ele>0.000000</ele>
        <time>2020-08-26T10:42:05.794Z</time>
      </trkpt>
      <trkpt lat="37.596723" lon="-4.266808">
        <ele>0.000000</ele>
        <time>2020-08-26T10:42:05.794Z</time>
      </trkpt>
      <trkpt lat="37.596678" lon="-4.268123">
        <ele>0.000000</ele>
        <time>2020-08-26T10:42:05.794Z</time>
      </trkpt>
      <trkpt lat="37.596758" lon="-4.268846">
        <ele>0.000000</ele>
        <time>2020-08-26T10:42:05.794Z</time>
      </trkpt>
      <trkpt lat="37.597327" lon="-4.271076">
        <ele>0.000000</ele>
        <time>2020-08-26T10:42:05.794Z</time>
      </trkpt>
      <trkpt lat="37.597601" lon="-4.272922">
        <ele>0.000000</ele>
        <time>2020-08-26T10:42:05.794Z</time>
      </trkpt>
      <trkpt lat="37.597644" lon="-4.273667">
        <ele>0.000000</ele>
        <time>2020-08-26T10:42:05.794Z</time>
      </trkpt>
      <trkpt lat="37.597785" lon="-4.274413">
        <ele>0.000000</ele>
        <time>2020-08-26T10:42:05.794Z</time>
      </trkpt>
      <trkpt lat="37.598695" lon="-4.276050">
        <ele>0.000000</ele>
        <time>2020-08-26T10:42:05.794Z</time>
      </trkpt>
      <trkpt lat="37.599763" lon="-4.278055">
        <ele>0.000000</ele>
        <time>2020-08-26T10:42:05.794Z</time>
      </trkpt>
      <trkpt lat="37.600266" lon="-4.280154">
        <ele>0.000000</ele>
        <time>2020-08-26T10:42:05.794Z</time>
      </trkpt>
      <trkpt lat="37.600677" lon="-4.282544">
        <ele>0.000000</ele>
        <time>2020-08-26T10:42:05.794Z</time>
      </trkpt>
      <trkpt lat="37.600729" lon="-4.283872">
        <ele>0.000000</ele>
        <time>2020-08-26T10:42:05.794Z</time>
      </trkpt>
      <trkpt lat="37.600677" lon="-4.284615">
        <ele>0.000000</ele>
        <time>2020-08-26T10:42:05.794Z</time>
      </trkpt>
      <trkpt lat="37.600994" lon="-4.286319">
        <ele>0.000000</ele>
        <time>2020-08-26T10:42:05.794Z</time>
      </trkpt>
      <trkpt lat="37.601240" lon="-4.287311">
        <ele>0.000000</ele>
        <time>2020-08-26T10:42:05.794Z</time>
      </trkpt>
      <trkpt lat="37.601438" lon="-4.287758">
        <ele>0.000000</ele>
        <time>2020-08-26T10:42:05.794Z</time>
      </trkpt>
      <trkpt lat="37.601733" lon="-4.289073">
        <ele>0.000000</ele>
        <time>2020-08-26T10:42:05.794Z</time>
      </trkpt>
      <trkpt lat="37.602018" lon="-4.289678">
        <ele>0.000000</ele>
        <time>2020-08-26T10:42:05.794Z</time>
      </trkpt>
      <trkpt lat="37.602950" lon="-4.290907">
        <ele>0.000000</ele>
        <time>2020-08-26T10:42:05.794Z</time>
      </trkpt>
      <trkpt lat="37.603503" lon="-4.292068">
        <ele>0.000000</ele>
        <time>2020-08-26T10:42:05.794Z</time>
      </trkpt>
      <trkpt lat="37.604038" lon="-4.292832">
        <ele>0.000000</ele>
        <time>2020-08-26T10:42:05.794Z</time>
      </trkpt>
      <trkpt lat="37.605126" lon="-4.294794">
        <ele>0.000000</ele>
        <time>2020-08-26T10:42:05.794Z</time>
      </trkpt>
      <trkpt lat="37.605770" lon="-4.296292">
        <ele>0.000000</ele>
        <time>2020-08-26T10:42:05.794Z</time>
      </trkpt>
      <trkpt lat="37.606234" lon="-4.297477">
        <ele>0.000000</ele>
        <time>2020-08-26T10:42:05.794Z</time>
      </trkpt>
      <trkpt lat="37.606858" lon="-4.298654">
        <ele>0.000000</ele>
        <time>2020-08-26T10:42:05.794Z</time>
      </trkpt>
      <trkpt lat="37.607189" lon="-4.299026">
        <ele>0.000000</ele>
        <time>2020-08-26T10:42:05.794Z</time>
      </trkpt>
      <trkpt lat="37.607548" lon="-4.299309">
        <ele>0.000000</ele>
        <time>2020-08-26T10:42:05.794Z</time>
      </trkpt>
      <trkpt lat="37.607992" lon="-4.299972">
        <ele>0.000000</ele>
        <time>2020-08-26T10:42:05.794Z</time>
      </trkpt>
      <trkpt lat="37.608495" lon="-4.301635">
        <ele>0.000000</ele>
        <time>2020-08-26T10:42:05.794Z</time>
      </trkpt>
      <trkpt lat="37.609038" lon="-4.302600">
        <ele>0.000000</ele>
        <time>2020-08-26T10:42:05.794Z</time>
      </trkpt>
      <trkpt lat="37.609521" lon="-4.303840">
        <ele>0.000000</ele>
        <time>2020-08-26T10:42:05.794Z</time>
      </trkpt>
      <trkpt lat="37.609846" lon="-4.304812">
        <ele>0.000000</ele>
        <time>2020-08-26T10:42:05.794Z</time>
      </trkpt>
      <trkpt lat="37.609948" lon="-4.305268">
        <ele>0.000000</ele>
        <time>2020-08-26T10:42:05.794Z</time>
      </trkpt>
      <trkpt lat="37.610413" lon="-4.306298">
        <ele>0.000000</ele>
        <time>2020-08-26T10:42:05.794Z</time>
      </trkpt>
      <trkpt lat="37.610734" lon="-4.306859">
        <ele>0.000000</ele>
        <time>2020-08-26T10:42:05.794Z</time>
      </trkpt>
      <trkpt lat="37.611152" lon="-4.307388">
        <ele>0.000000</ele>
        <time>2020-08-26T10:42:05.794Z</time>
      </trkpt>
      <trkpt lat="37.611766" lon="-4.307854">
        <ele>0.000000</ele>
        <time>2020-08-26T10:42:05.794Z</time>
      </trkpt>
      <trkpt lat="37.612025" lon="-4.308347">
        <ele>0.000000</ele>
        <time>2020-08-26T10:42:05.794Z</time>
      </trkpt>
      <trkpt lat="37.612305" lon="-4.309429">
        <ele>0.000000</ele>
        <time>2020-08-26T10:42:05.794Z</time>
      </trkpt>
      <trkpt lat="37.612776" lon="-4.309936">
        <ele>0.000000</ele>
        <time>2020-08-26T10:42:05.794Z</time>
      </trkpt>
      <trkpt lat="37.613046" lon="-4.310285">
        <ele>0.000000</ele>
        <time>2020-08-26T10:42:05.794Z</time>
      </trkpt>
      <trkpt lat="37.613182" lon="-4.310843">
        <ele>0.000000</ele>
        <time>2020-08-26T10:42:05.794Z</time>
      </trkpt>
      <trkpt lat="37.613127" lon="-4.312629">
        <ele>0.000000</ele>
        <time>2020-08-26T10:42:05.794Z</time>
      </trkpt>
      <trkpt lat="37.613238" lon="-4.312986">
        <ele>0.000000</ele>
        <time>2020-08-26T10:42:05.794Z</time>
      </trkpt>
      <trkpt lat="37.613513" lon="-4.313635">
        <ele>0.000000</ele>
        <time>2020-08-26T10:42:05.794Z</time>
      </trkpt>
      <trkpt lat="37.613734" lon="-4.314505">
        <ele>0.000000</ele>
        <time>2020-08-26T10:42:05.794Z</time>
      </trkpt>
      <trkpt lat="37.613717" lon="-4.315215">
        <ele>0.000000</ele>
        <time>2020-08-26T10:42:05.794Z</time>
      </trkpt>
      <trkpt lat="37.613819" lon="-4.315595">
        <ele>0.000000</ele>
        <time>2020-08-26T10:42:05.794Z</time>
      </trkpt>
      <trkpt lat="37.613345" lon="-4.316963">
        <ele>0.000000</ele>
        <time>2020-08-26T10:42:05.794Z</time>
      </trkpt>
      <trkpt lat="37.613293" lon="-4.317673">
        <ele>0.000000</ele>
        <time>2020-08-26T10:42:05.794Z</time>
      </trkpt>
      <trkpt lat="37.613294" lon="-4.318810">
        <ele>0.000000</ele>
        <time>2020-08-26T10:42:05.794Z</time>
      </trkpt>
      <trkpt lat="37.613062" lon="-4.320222">
        <ele>0.000000</ele>
        <time>2020-08-26T10:42:05.794Z</time>
      </trkpt>
      <trkpt lat="37.612643" lon="-4.321347">
        <ele>0.000000</ele>
        <time>2020-08-26T10:42:05.794Z</time>
      </trkpt>
      <trkpt lat="37.613683" lon="-4.321598">
        <ele>0.000000</ele>
        <time>2020-08-26T10:42:05.794Z</time>
      </trkpt>
      <trkpt lat="37.613931" lon="-4.321514">
        <ele>0.000000</ele>
        <time>2020-08-26T10:42:05.794Z</time>
      </trkpt>
      <trkpt lat="37.614464" lon="-4.321214">
        <ele>0.000000</ele>
        <time>2020-08-26T10:42:05.794Z</time>
      </trkpt>
      <trkpt lat="37.614756" lon="-4.321195">
        <ele>0.000000</ele>
        <time>2020-08-26T10:42:05.794Z</time>
      </trkpt>
      <trkpt lat="37.615077" lon="-4.321262">
        <ele>0.000000</ele>
        <time>2020-08-26T10:42:05.794Z</time>
      </trkpt>
      <trkpt lat="37.615174" lon="-4.321791">
        <ele>0.000000</ele>
        <time>2020-08-26T10:42:05.794Z</time>
      </trkpt>
      <trkpt lat="37.615336" lon="-4.322305">
        <ele>0.000000</ele>
        <time>2020-08-26T10:42:05.794Z</time>
      </trkpt>
      <trkpt lat="37.615648" lon="-4.322854">
        <ele>0.000000</ele>
        <time>2020-08-26T10:42:05.794Z</time>
      </trkpt>
      <trkpt lat="37.61567317482293" lon="-4.322733916789376">
        <ele>0</ele>
      </trkpt>
      <trkpt lat="37.616042961406841" lon="-4.323515977619542">
        <ele>0</ele>
      </trkpt>
      <trkpt lat="37.616813907066998" lon="-4.323638005377935">
        <ele>0</ele>
      </trkpt>
      <trkpt lat="37.617268174251834" lon="-4.324454896406814">
        <ele>0</ele>
      </trkpt>
      <trkpt lat="37.618734229710682" lon="-4.325375781906164">
        <ele>0</ele>
      </trkpt>
      <trkpt lat="37.621374118395849" lon="-4.327492978781832">
        <ele>0</ele>
      </trkpt>
      <trkpt lat="37.625021101437596" lon="-4.329997995144922">
        <ele>0</ele>
      </trkpt>
      <trkpt lat="37.626355001950841" lon="-4.330653829686975">
        <ele>0</ele>
      </trkpt>
      <trkpt lat="37.626930061607737" lon="-4.331730830828308">
        <ele>0</ele>
      </trkpt>
      <trkpt lat="37.629114200068948" lon="-4.334231894402429">
        <ele>0</ele>
      </trkpt>
      <trkpt lat="37.629756202230588" lon="-4.335212805020904">
        <ele>0</ele>
      </trkpt>
      <trkpt lat="37.630332002372924" lon="-4.335440804009713">
        <ele>0</ele>
      </trkpt>
      <trkpt lat="37.631940093850396" lon="-4.335564807508616">
        <ele>0</ele>
      </trkpt>
      <trkpt lat="37.633930075770941" lon="-4.3360837936331">
        <ele>0</ele>
      </trkpt>
      <trkpt lat="37.634619011109187" lon="-4.336436041726977">
        <ele>0</ele>
      </trkpt>
      <trkpt lat="37.635331166254851" lon="-4.337214891200321">
        <ele>0</ele>
      </trkpt>
      <trkpt lat="37.636360986494132" lon="-4.337941867141509">
        <ele>0</ele>
      </trkpt>
      <trkpt lat="37.637839887689701" lon="-4.337715845245906">
        <ele>0</ele>
      </trkpt>
      <trkpt lat="37.63819905222018" lon="-4.338116756945885">
        <ele>0</ele>
      </trkpt>
      <trkpt lat="37.639569018225508" lon="-4.339014916956681">
        <ele>0</ele>
      </trkpt>
      <trkpt lat="37.641217126150885" lon="-4.339049993024501">
        <ele>0</ele>
      </trkpt>
      <trkpt lat="37.643473147801721" lon="-4.339883927687555">
        <ele>0</ele>
      </trkpt>
      <trkpt lat="37.644760114802317" lon="-4.34081197676361">
        <ele>0</ele>
      </trkpt>
      <trkpt lat="37.646010029049002" lon="-4.341168919292539">
        <ele>0</ele>
      </trkpt>
      <trkpt lat="37.647800173498162" lon="-4.342695988006583">
        <ele>0</ele>
      </trkpt>
      <trkpt lat="37.648349049207489" lon="-4.34294992353388">
        <ele>0</ele>
      </trkpt>
      <trkpt lat="37.650025070440343" lon="-4.343104804820559">
        <ele>0</ele>
      </trkpt>
      <trkpt lat="37.650633230211959" lon="-4.343434080631401">
        <ele>0</ele>
      </trkpt>
      <trkpt lat="37.652664958978718" lon="-4.34391181465311">
        <ele>0</ele>
      </trkpt>
      <trkpt lat="37.654280214052058" lon="-4.345143943278485">
        <ele>0</ele>
      </trkpt>
      <trkpt lat="37.655136133368863" lon="-4.346059888680616">
        <ele>0</ele>
      </trkpt>
      <trkpt lat="37.655333007368498" lon="-4.346508968933532">
        <ele>0</ele>
      </trkpt>
      <trkpt lat="37.656539940594804" lon="-4.34741700940105">
        <ele>0</ele>
      </trkpt>
      <trkpt lat="37.657223194139775" lon="-4.347547928609863">
        <ele>0</ele>
      </trkpt>
      <trkpt lat="37.657853091767109" lon="-4.347976012142821">
        <ele>0</ele>
      </trkpt>
      <trkpt lat="37.658388133633451" lon="-4.348122000643603">
        <ele>0</ele>
      </trkpt>
      <trkpt lat="37.661203158587234" lon="-4.34862690627115">
        <ele>0</ele>
      </trkpt>
      <trkpt lat="37.66195607147791" lon="-4.34841175355404">
        <ele>0</ele>
      </trkpt>
      <trkpt lat="37.661796250063738" lon="-4.348797843541161">
        <ele>0</ele>
      </trkpt>
      <trkpt lat="37.661938039217496" lon="-4.350052944783887">
        <ele>0</ele>
      </trkpt>
      <trkpt lat="37.662647970757114" lon="-4.348950995222181">
        <ele>0</ele>
      </trkpt>
      <trkpt lat="37.663717067604289" lon="-4.348233899718607">
        <ele>0</ele>
      </trkpt>
      <trkpt lat="37.665889102703844" lon="-4.347687988238238">
        <ele>0</ele>
      </trkpt>
      <trkpt lat="37.666563216310635" lon="-4.347858924860192">
        <ele>0</ele>
      </trkpt>
      <trkpt lat="37.666856180075058" lon="-4.34808791153898">
        <ele>0</ele>
      </trkpt>
      <trkpt lat="37.666944119331703" lon="-4.348524887496463">
        <ele>0</ele>
      </trkpt>
      <trkpt lat="37.666850005177622" lon="-4.350276991266777">
        <ele>0</ele>
      </trkpt>
      <trkpt lat="37.667048114218453" lon="-4.352338855675918">
        <ele>0</ele>
      </trkpt>
      <trkpt lat="37.667412960560334" lon="-4.353860984137976">
        <ele>0</ele>
      </trkpt>
      <trkpt lat="37.66767998780248" lon="-4.354316981223223">
        <ele>0</ele>
      </trkpt>
      <trkpt lat="37.668085098622782" lon="-4.354665030187707">
        <ele>0</ele>
      </trkpt>
      <trkpt lat="37.669284126374869" lon="-4.355034817401695">
        <ele>0</ele>
      </trkpt>
      <trkpt lat="37.66976902421559" lon="-4.355116827034625">
        <ele>0</ele>
      </trkpt>
      <trkpt lat="37.670512056417977" lon="-4.354892781585985">
        <ele>0</ele>
      </trkpt>
      <trkpt lat="37.673843103233516" lon="-4.356937848530342">
        <ele>0</ele>
      </trkpt>
      <trkpt lat="37.674278102504928" lon="-4.359481894342717">
        <ele>0</ele>
      </trkpt>
      <trkpt lat="37.67440803455149" lon="-4.361567966480806">
        <ele>0</ele>
      </trkpt>
      <trkpt lat="37.673751212244284" lon="-4.363822999722988">
        <ele>0</ele>
      </trkpt>
      <trkpt lat="37.673397975360317" lon="-4.365758884733856">
        <ele>0</ele>
      </trkpt>
      <trkpt lat="37.673249023268561" lon="-4.368840936371639">
        <ele>0</ele>
      </trkpt>
      <trkpt lat="37.672908137367649" lon="-4.370924045178494">
        <ele>0</ele>
      </trkpt>
      <trkpt lat="37.671978112170372" lon="-4.374403055905542">
        <ele>0</ele>
      </trkpt>
      <trkpt lat="37.671190123106484" lon="-4.376461956173164">
        <ele>0</ele>
      </trkpt>
      <trkpt lat="37.671233104134721" lon="-4.376979954578337">
        <ele>0</ele>
      </trkpt>
      <trkpt lat="37.673202089979753" lon="-4.385471961789625">
        <ele>0</ele>
      </trkpt>
      <trkpt lat="37.673121067851689" lon="-4.386666791091647">
        <ele>0</ele>
      </trkpt>
      <trkpt lat="37.673970070695688" lon="-4.391443884829736">
        <ele>0</ele>
      </trkpt>
      <trkpt lat="37.674209184517821" lon="-4.392089838301373">
        <ele>0</ele>
      </trkpt>
      <trkpt lat="37.674890956216814" lon="-4.39281187369834">
        <ele>0</ele>
      </trkpt>
      <trkpt lat="37.675012983428289" lon="-4.394112921053433">
        <ele>0</ele>
      </trkpt>
      <trkpt lat="37.676524984559812" lon="-4.395862059717635">
        <ele>0</ele>
      </trkpt>
      <trkpt lat="37.677009141022815" lon="-4.397543763363507">
        <ele>0</ele>
      </trkpt>
      <trkpt lat="37.676684064583291" lon="-4.398949792945698">
        <ele>0</ele>
      </trkpt>
      <trkpt lat="37.675341023891612" lon="-4.401291036468298">
        <ele>0</ele>
      </trkpt>
      <trkpt lat="37.675186143704707" lon="-4.401817926463711">
        <ele>0</ele>
      </trkpt>
      <trkpt lat="37.675363997034211" lon="-4.402569111129364">
        <ele>0</ele>
      </trkpt>
      <trkpt lat="37.676949115142754" lon="-4.405693896407741">
        <ele>0</ele>
      </trkpt>
      <trkpt lat="37.677802071314723" lon="-4.40794497753577">
        <ele>0</ele>
      </trkpt>
      <trkpt lat="37.67898800757046" lon="-4.410300053712622">
        <ele>0</ele>
      </trkpt>
      <trkpt lat="37.679363228784325" lon="-4.411991883709833">
        <ele>0</ele>
      </trkpt>
      <trkpt lat="37.680142078764419" lon="-4.412935001341618">
        <ele>0</ele>
      </trkpt>
      <trkpt lat="37.680244097302186" lon="-4.413294907383929">
        <ele>0</ele>
      </trkpt>
      <trkpt lat="37.679848126603666" lon="-4.417775826236074">
        <ele>0</ele>
      </trkpt>
      <trkpt lat="37.679337044804363" lon="-4.419515824724093">
        <ele>0</ele>
      </trkpt>
      <trkpt lat="37.679554174365421" lon="-4.420566889104129">
        <ele>0</ele>
      </trkpt>
      <trkpt lat="37.680790996751966" lon="-4.422612945196497">
        <ele>0</ele>
      </trkpt>
      <trkpt lat="37.680741098538029" lon="-4.424168915523711">
        <ele>0</ele>
      </trkpt>
      <trkpt lat="37.68040120100104" lon="-4.425362015651947">
        <ele>0</ele>
      </trkpt>
      <trkpt lat="37.680562998419099" lon="-4.427327048979677">
        <ele>0</ele>
      </trkpt>
      <trkpt lat="37.680976013819588" lon="-4.428197789426792">
        <ele>0</ele>
      </trkpt>
      <trkpt lat="37.681632094966986" lon="-4.428474944247874">
        <ele>0</ele>
      </trkpt>
      <trkpt lat="37.681988048705342" lon="-4.428809902572223">
        <ele>0</ele>
      </trkpt>
      <trkpt lat="37.682462078248136" lon="-4.429599867487282">
        <ele>0</ele>
      </trkpt>
      <trkpt lat="37.682656975575519" lon="-4.430268793690367">
        <ele>0</ele>
      </trkpt>
      <trkpt lat="37.682517162603588" lon="-4.431727933436684">
        <ele>0</ele>
      </trkpt>
      <trkpt lat="37.682649070758337" lon="-4.432303980508674">
        <ele>0</ele>
      </trkpt>
      <trkpt lat="37.684166012434503" lon="-4.434644976256419">
        <ele>0</ele>
      </trkpt>
      <trkpt lat="37.685656029301654" lon="-4.437442956830334">
        <ele>0</ele>
      </trkpt>
      <trkpt lat="37.686615202362539" lon="-4.43882280314053">
        <ele>0</ele>
      </trkpt>
      <trkpt lat="37.686844188706793" lon="-4.439785929168694">
        <ele>0</ele>
      </trkpt>
      <trkpt lat="37.686576173581322" lon="-4.440488943720816">
        <ele>0</ele>
      </trkpt>
      <trkpt lat="37.68664113918085" lon="-4.440884914656768">
        <ele>0</ele>
      </trkpt>
      <trkpt lat="37.688971019565031" lon="-4.447107808861494">
        <ele>0</ele>
      </trkpt>
      <trkpt lat="37.690568982667521" lon="-4.450812841306499">
        <ele>0</ele>
      </trkpt>
      <trkpt lat="37.691352032304437" lon="-4.455321919798311">
        <ele>0</ele>
      </trkpt>
      <trkpt lat="37.691221111815331" lon="-4.45826490058843">
        <ele>0</ele>
      </trkpt>
      <trkpt lat="37.6909291357751" lon="-4.460145946950127">
        <ele>0</ele>
      </trkpt>
      <trkpt lat="37.690787100070779" lon="-4.464972938815284">
        <ele>0</ele>
      </trkpt>
      <trkpt lat="37.690543045661144" lon="-4.466639820932367">
        <ele>0</ele>
      </trkpt>
      <trkpt lat="37.690661121280264" lon="-4.470227767064459">
        <ele>0</ele>
      </trkpt>
      <trkpt lat="37.690955072884123" lon="-4.473181862307423">
        <ele>0</ele>
      </trkpt>
      <trkpt lat="37.691827049238256" lon="-4.476838973415021">
        <ele>0</ele>
      </trkpt>
      <trkpt lat="37.691141078407583" lon="-4.477914987517168">
        <ele>0</ele>
      </trkpt>
      <trkpt lat="37.690633207930439" lon="-4.480182864842583">
        <ele>0</ele>
      </trkpt>
      <trkpt lat="37.690372109224434" lon="-4.480684065577951">
        <ele>0</ele>
      </trkpt>
      <trkpt lat="37.690346172172589" lon="-4.481706970566317">
        <ele>0</ele>
      </trkpt>
      <trkpt lat="37.690327151770077" lon="-4.482102941238333">
        <ele>0</ele>
      </trkpt>
      <trkpt lat="37.690309119435689" lon="-4.482761740355276">
        <ele>0</ele>
      </trkpt>
      <trkpt lat="37.690498088846645" lon="-4.482954908443825">
        <ele>0</ele>
      </trkpt>
      <trkpt lat="37.690525014139617" lon="-4.483362983221269">
        <ele>0</ele>
      </trkpt>
      <trkpt lat="37.690148062933645" lon="-4.484089958916395">
        <ele>0</ele>
      </trkpt>
      <trkpt lat="37.690558113945684" lon="-4.484554848543386">
        <ele>0</ele>
      </trkpt>
      <trkpt lat="37.693855072475671" lon="-4.486337829046807">
        <ele>0</ele>
      </trkpt>
      <trkpt lat="37.694034160368808" lon="-4.486938825008958">
        <ele>0</ele>
      </trkpt>
      <trkpt lat="37.694561051450854" lon="-4.487318987611915">
        <ele>0</ele>
      </trkpt>
      <trkpt lat="37.694745080541942" lon="-4.487773995871933">
        <ele>0</ele>
      </trkpt>
      <trkpt lat="37.694705063225115" lon="-4.488295945789283">
        <ele>0</ele>
      </trkpt>
      <trkpt lat="37.693838275230881" lon="-4.48864201916401">
        <ele>0</ele>
      </trkpt>
      <trkpt lat="37.692063939896094" lon="-4.48776781972503">
        <ele>0</ele>
      </trkpt>
      <trkpt lat="37.691449110618422" lon="-4.486995886398039">
        <ele>0</ele>
      </trkpt>
      <trkpt lat="37.69089208340931" lon="-4.486900043916583">
        <ele>0</ele>
      </trkpt>
      <trkpt lat="37.689784946030947" lon="-4.489488058166258">
        <ele>0</ele>
      </trkpt>
      <trkpt lat="37.689610056831953" lon="-4.489779787056495">
        <ele>0</ele>
      </trkpt>
      <trkpt lat="37.689520142033373" lon="-4.490059906204865">
        <ele>0</ele>
      </trkpt>
      <trkpt lat="37.689460116050633" lon="-4.490400050972943">
        <ele>0</ele>
      </trkpt>
      <trkpt lat="37.689409971730228" lon="-4.490529735522068">
        <ele>0</ele>
      </trkpt>
      <trkpt lat="37.689213097521865" lon="-4.491620816888912">
        <ele>0</ele>
      </trkpt>
      <trkpt lat="37.689195065541739" lon="-4.491966890336326">
        <ele>0</ele>
      </trkpt>
      <trkpt lat="37.689150107497611" lon="-4.492233916890596">
        <ele>0</ele>
      </trkpt>
      <trkpt lat="37.689195065572534" lon="-4.492426838939121">
        <ele>0</ele>
      </trkpt>
      <trkpt lat="37.689179996869299" lon="-4.492889751645111">
        <ele>0</ele>
      </trkpt>
      <trkpt lat="37.689010048117318" lon="-4.493280041037163">
        <ele>0</ele>
      </trkpt>
      <trkpt lat="37.68866026965231" lon="-4.493839785255296">
        <ele>0</ele>
      </trkpt>
      <trkpt lat="37.688530091194572" lon="-4.494290100057243">
        <ele>0</ele>
      </trkpt>
      <trkpt lat="37.688510082276458" lon="-4.494569972849247">
        <ele>0</ele>
      </trkpt>
      <trkpt lat="37.688360142436821" lon="-4.495509878926998">
        <ele>0</ele>
      </trkpt>
      <trkpt lat="37.688410039694986" lon="-4.495769989217978">
        <ele>0</ele>
      </trkpt>
      <trkpt lat="37.688340133446246" lon="-4.496109887026785">
        <ele>0</ele>
      </trkpt>
      <trkpt lat="37.688300116829183" lon="-4.496459912505048">
        <ele>0</ele>
      </trkpt>
      <trkpt lat="37.688170185148728" lon="-4.497940048107736">
        <ele>0</ele>
      </trkpt>
      <trkpt lat="37.688130167602786" lon="-4.498669741689774">
        <ele>0</ele>
      </trkpt>
      <trkpt lat="37.688080023051491" lon="-4.499049902538875">
        <ele>0</ele>
      </trkpt>
      <trkpt lat="37.68806001489849" lon="-4.499720064914131">
        <ele>0</ele>
      </trkpt>
      <trkpt lat="37.688000236235744" lon="-4.500379851423325">
        <ele>0</ele>
      </trkpt>
      <trkpt lat="37.688040005724503" lon="-4.500749885088776">
        <ele>0</ele>
      </trkpt>
      <trkpt lat="37.68797998085391" lon="-4.501110038892972">
        <ele>0</ele>
      </trkpt>
      <trkpt lat="37.68793008242546" lon="-4.501259979138608">
        <ele>0</ele>
      </trkpt>
      <trkpt lat="37.687910073839952" lon="-4.501480072693135">
        <ele>0</ele>
      </trkpt>
      <trkpt lat="37.687910074379694" lon="-4.501859740283345">
        <ele>0</ele>
      </trkpt>
      <trkpt lat="37.688019997803067" lon="-4.502139859424518">
        <ele>0</ele>
      </trkpt>
      <trkpt lat="37.688789954694762" lon="-4.503089893378729">
        <ele>0</ele>
      </trkpt>
      <trkpt lat="37.689240022236326" lon="-4.503539961484706">
        <ele>0</ele>
      </trkpt>
      <trkpt lat="37.689389962829956" lon="-4.503729918392806">
        <ele>0</ele>
      </trkpt>
      <trkpt lat="37.68986003991369" lon="-4.504010037689813">
        <ele>0</ele>
      </trkpt>
      <trkpt lat="37.690080133320599" lon="-4.504329926184602">
        <ele>0</ele>
      </trkpt>
      <trkpt lat="37.689989971420708" lon="-4.504329927036959">
        <ele>0</ele>
      </trkpt>
      <trkpt lat="37.690010226968354" lon="-4.504349935184308">
        <ele>0</ele>
      </trkpt>
      <trkpt lat="37.69004011575953" lon="-4.504689833312042">
        <ele>0</ele>
      </trkpt>
      <trkpt lat="37.689650073563996" lon="-4.50503985875734">
        <ele>0</ele>
      </trkpt>
      <trkpt lat="37.689780252129871" lon="-4.505639867129727">
        <ele>0</ele>
      </trkpt>
      <trkpt lat="37.68992994566711" lon="-4.505719900419544">
        <ele>0</ele>
      </trkpt>
      <trkpt lat="37.690210065308698" lon="-4.505699892050361">
        <ele>0</ele>
      </trkpt>
      <trkpt lat="37.690400022058654" lon="-4.505769798117206">
        <ele>0</ele>
      </trkpt>
      <trkpt lat="37.690620115528738" lon="-4.505809815965567">
        <ele>0</ele>
      </trkpt>
      <trkpt lat="37.691109953866459" lon="-4.505790053814572">
        <ele>0</ele>
      </trkpt>
      <trkpt lat="37.691370064106813" lon="-4.505809815847517">
        <ele>0</ele>
      </trkpt>
      <trkpt lat="37.69191992782217" lon="-4.505999772521391">
        <ele>0</ele>
      </trkpt>
      <trkpt lat="37.692200047304908" lon="-4.506349797935354">
        <ele>0</ele>
      </trkpt>
      <trkpt lat="37.692220055625818" lon="-4.506479977086073">
        <ele>0</ele>
      </trkpt>
      <trkpt lat="37.692200047530818" lon="-4.506749967900125">
        <ele>0</ele>
      </trkpt>
      <trkpt lat="37.692010089596877" lon="-4.507399874506201">
        <ele>0</ele>
      </trkpt>
      <trkpt lat="37.69197007236167" lon="-4.508039900303791">
        <ele>0</ele>
      </trkpt>
      <trkpt lat="37.692030098417789" lon="-4.508359788981262">
        <ele>0</ele>
      </trkpt>
      <trkpt lat="37.69228996161587" lon="-4.508989933834471">
        <ele>0</ele>
      </trkpt>
      <trkpt lat="37.692380123933916" lon="-4.509270052514426">
        <ele>0</ele>
      </trkpt>
      <trkpt lat="37.692480166034827" lon="-4.509719873360461">
        <ele>0</ele>
      </trkpt>
      <trkpt lat="37.692570081525297" lon="-4.510569864766065">
        <ele>0</ele>
      </trkpt>
      <trkpt lat="37.69270001307428" lon="-4.511149864896307">
        <ele>0</ele>
      </trkpt>
      <trkpt lat="37.692850200443623" lon="-4.511389966702235">
        <ele>0</ele>
      </trkpt>
      <trkpt lat="37.693190097676791" lon="-4.511519898209389">
        <ele>0</ele>
      </trkpt>
      <trkpt lat="37.69406997811938" lon="-4.511749872840773">
        <ele>0</ele>
      </trkpt>
      <trkpt lat="37.694219918783844" lon="-4.511819779540912">
        <ele>0</ele>
      </trkpt>
      <trkpt lat="37.694440258925162" lon="-4.51187980497496">
        <ele>0</ele>
      </trkpt>
      <trkpt lat="37.694970114495362" lon="-4.511989974604681">
        <ele>0</ele>
      </trkpt>
      <trkpt lat="37.695590131014292" lon="-4.512029992261522">
        <ele>0</ele>
      </trkpt>
      <trkpt lat="37.695890011521954" lon="-4.512159924284676">
        <ele>0</ele>
      </trkpt>
      <trkpt lat="37.695999935185014" lon="-4.51222983052185">
        <ele>0</ele>
      </trkpt>
      <trkpt lat="37.696169883877502" lon="-4.512400026234024">
        <ele>0</ele>
      </trkpt>
      <trkpt lat="37.696169883972082" lon="-4.512359762480082">
        <ele>0</ele>
      </trkpt>
      <trkpt lat="37.696190139717942" lon="-4.512359762295721">
        <ele>0</ele>
      </trkpt>
      <trkpt lat="37.696450249924439" lon="-4.512529957886579">
        <ele>0</ele>
      </trkpt>
      <trkpt lat="37.696600190200535" lon="-4.512589736480691">
        <ele>0</ele>
      </trkpt>
      <trkpt lat="37.696730122044876" lon="-4.512679898554206">
        <ele>0</ele>
      </trkpt>
      <trkpt lat="37.697370147934272" lon="-4.513019795633608">
        <ele>0</ele>
      </trkpt>
      <trkpt lat="37.698299926128946" lon="-4.513339932022766">
        <ele>0</ele>
      </trkpt>
      <trkpt lat="37.698830027380758" lon="-4.513599795321357">
        <ele>0</ele>
      </trkpt>
      <trkpt lat="37.69930998513771" lon="-4.513898935218707">
        <ele>0</ele>
      </trkpt>
      <trkpt lat="37.69956021540213" lon="-4.514089880250004">
        <ele>0</ele>
      </trkpt>
      <trkpt lat="37.699820078311006" lon="-4.514239821070894">
        <ele>0</ele>
      </trkpt>
      <trkpt lat="37.700100197507282" lon="-4.514349990922852">
        <ele>0</ele>
      </trkpt>
      <trkpt lat="37.701090001262877" lon="-4.514819820482304">
        <ele>0</ele>
      </trkpt>
      <trkpt lat="37.70182018818597" lon="-4.515379811996731">
        <ele>0</ele>
      </trkpt>
      <trkpt lat="37.702310026686462" lon="-4.515829880123203">
        <ele>0</ele>
      </trkpt>
      <trkpt lat="37.702499983993619" lon="-4.516049974135087">
        <ele>0</ele>
      </trkpt>
      <trkpt lat="37.702740086403359" lon="-4.51625895145028">
        <ele>0</ele>
      </trkpt>
      <trkpt lat="37.702930043350996" lon="-4.516478798298772">
        <ele>0</ele>
      </trkpt>
      <trkpt lat="37.703210162915639" lon="-4.516749036535186">
        <ele>0</ele>
      </trkpt>
      <trkpt lat="37.703580196084538" lon="-4.517159087936496">
        <ele>0</ele>
      </trkpt>
      <trkpt lat="37.70422022159218" lon="-4.518169887509687">
        <ele>0</ele>
      </trkpt>
      <trkpt lat="37.704520102880124" lon="-4.518809913607268">
        <ele>0</ele>
      </trkpt>
      <trkpt lat="37.70463002543552" lon="-4.519110040947026">
        <ele>0</ele>
      </trkpt>
      <trkpt lat="37.705009940154397" lon="-4.519650024053158">
        <ele>0</ele>
      </trkpt>
      <trkpt lat="37.705310068260182" lon="-4.520169010128062">
        <ele>0</ele>
      </trkpt>
      <trkpt lat="37.705790025225987" lon="-4.520810022869537">
        <ele>0</ele>
      </trkpt>
      <trkpt lat="37.705959974495897" lon="-4.520999979964873">
        <ele>0</ele>
      </trkpt>
      <trkpt lat="37.706220084405373" lon="-4.521129912332335">
        <ele>0</ele>
      </trkpt>
      <trkpt lat="37.706490075933665" lon="-4.521199818971178">
        <ele>0</ele>
      </trkpt>
      <trkpt lat="37.706729931701233" lon="-4.521219826803464">
        <ele>0</ele>
      </trkpt>
      <trkpt lat="37.706900127262244" lon="-4.521259843694325">
        <ele>0</ele>
      </trkpt>
      <trkpt lat="37.706900126796647" lon="-4.521319869652092">
        <ele>0</ele>
      </trkpt>
      <trkpt lat="37.706710169799884" lon="-4.521449800990514">
        <ele>0</ele>
      </trkpt>
      <trkpt lat="37.706620007640083" lon="-4.521559971835726">
        <ele>0</ele>
      </trkpt>
      <trkpt lat="37.706520212869457" lon="-4.521779817963672">
        <ele>0</ele>
      </trkpt>
      <trkpt lat="37.706450059360463" lon="-4.522010040186586">
        <ele>0</ele>
      </trkpt>
      <trkpt lat="37.706410042104437" lon="-4.522609800599686">
        <ele>0</ele>
      </trkpt>
      <trkpt lat="37.706430050634197" lon="-4.523469919422287">
        <ele>0</ele>
      </trkpt>
      <trkpt lat="37.70637002488224" lon="-4.523989894394378">
        <ele>0</ele>
      </trkpt>
      <trkpt lat="37.706130170144093" lon="-4.524589902017236">
        <ele>0</ele>
      </trkpt>
      <trkpt lat="37.705760136162503" lon="-4.52526994532726">
        <ele>0</ele>
      </trkpt>
      <trkpt lat="37.705720118962446" lon="-4.525470030389504">
        <ele>0</ele>
      </trkpt>
      <trkpt lat="37.705590187528699" lon="-4.525739774094516">
        <ele>0</ele>
      </trkpt>
      <trkpt lat="37.705439999534079" lon="-4.525900089274995">
        <ele>0</ele>
      </trkpt>
      <trkpt lat="37.705060085683265" lon="-4.526469961693253">
        <ele>0</ele>
      </trkpt>
      <trkpt lat="37.704930153335695" lon="-4.526709816691858">
        <ele>0</ele>
      </trkpt>
      <trkpt lat="37.704350153643617" lon="-4.527480020991092">
        <ele>0</ele>
      </trkpt>
      <trkpt lat="37.703980119668387" lon="-4.527910079790717">
        <ele>0</ele>
      </trkpt>
      <trkpt lat="37.703770153571469" lon="-4.52803976452481">
        <ele>0</ele>
      </trkpt>
      <trkpt lat="37.703679992330329" lon="-4.528129927029623">
        <ele>0</ele>
      </trkpt>
      <trkpt lat="37.703470026562314" lon="-4.528279867543644">
        <ele>0</ele>
      </trkpt>
      <trkpt lat="37.703230171283622" lon="-4.528409798611254">
        <ele>0</ele>
      </trkpt>
      <trkpt lat="37.70274008592299" lon="-4.528769951642848">
        <ele>0</ele>
      </trkpt>
      <trkpt lat="37.701990137212405" lon="-4.529090088222442">
        <ele>0</ele>
      </trkpt>
      <trkpt lat="37.701800180364025" lon="-4.529239781688294">
        <ele>0</ele>
      </trkpt>
      <trkpt lat="37.70102009484193" lon="-4.529589807470848">
        <ele>0</ele>
      </trkpt>
      <trkpt lat="37.700510248571881" lon="-4.529949960483021">
        <ele>0</ele>
      </trkpt>
      <trkpt lat="37.700310163212897" lon="-4.529989730539143">
        <ele>0</ele>
      </trkpt>
      <trkpt lat="37.700059933324376" lon="-4.530289857388366">
        <ele>0</ele>
      </trkpt>
      <trkpt lat="37.699780061923917" lon="-4.530999789598836">
        <ele>0</ele>
      </trkpt>
      <trkpt lat="37.699610112822498" lon="-4.531620053797001">
        <ele>0</ele>
      </trkpt>
      <trkpt lat="37.699309984669704" lon="-4.53243990795642">
        <ele>0</ele>
      </trkpt>
      <trkpt lat="37.699160044586009" lon="-4.53275979712954">
        <ele>0</ele>
      </trkpt>
      <trkpt lat="37.698879925994952" lon="-4.533129831837479">
        <ele>0</ele>
      </trkpt>
      <trkpt lat="37.698660078597904" lon="-4.533380061003737">
        <ele>0</ele>
      </trkpt>
      <trkpt lat="37.698490130348276" lon="-4.533639924723262">
        <ele>0</ele>
      </trkpt>
      <trkpt lat="37.698359951419583" lon="-4.533939805477926">
        <ele>0</ele>
      </trkpt>
      <trkpt lat="37.698150232051596" lon="-4.534629975343981">
        <ele>0</ele>
      </trkpt>
      <trkpt lat="37.697980283646771" lon="-4.534949864439322">
        <ele>0</ele>
      </trkpt>
      <trkpt lat="37.69774018192674" lon="-4.535339907576721">
        <ele>0</ele>
      </trkpt>
      <trkpt lat="37.697549977238978" lon="-4.535510102564303">
        <ele>0</ele>
      </trkpt>
      <trkpt lat="37.696710113662299" lon="-4.536109864868174">
        <ele>0</ele>
      </trkpt>
      <trkpt lat="37.696070088320198" lon="-4.537009753171655">
        <ele>0</ele>
      </trkpt>
      <trkpt lat="37.695980173681107" lon="-4.536989991852673">
        <ele>0</ele>
      </trkpt>
      <trkpt lat="37.695890011879285" lon="-4.537249855901372">
        <ele>0</ele>
      </trkpt>
      <trkpt lat="37.695890011931859" lon="-4.537419804355951">
        <ele>0</ele>
      </trkpt>
      <trkpt lat="37.695850242064111" lon="-4.537569992214833">
        <ele>0</ele>
      </trkpt>
      <trkpt lat="37.695680046210001" lon="-4.537849863966198">
        <ele>0</ele>
      </trkpt>
      <trkpt lat="37.695310011758885" lon="-4.538210017325079">
        <ele>0</ele>
      </trkpt>
      <trkpt lat="37.695120054681304" lon="-4.538599812428211">
        <ele>0</ele>
      </trkpt>
      <trkpt lat="37.69499012284853" lon="-4.538959965626871">
        <ele>0</ele>
      </trkpt>
      <trkpt lat="37.694840182235289" lon="-4.539259846489697">
        <ele>0</ele>
      </trkpt>
      <trkpt lat="37.69421991876365" lon="-4.540039931388243">
        <ele>0</ele>
      </trkpt>
      <trkpt lat="37.694030208451402" lon="-4.540359820215965">
        <ele>0</ele>
      </trkpt>
      <trkpt lat="37.693660174268025" lon="-4.540869913456273">
        <ele>0</ele>
      </trkpt>
      <trkpt lat="37.693490225981883" lon="-4.541039862597346">
        <ele>0</ele>
      </trkpt>
      <trkpt lat="37.693230114985589" lon="-4.541069999366562">
        <ele>0</ele>
      </trkpt>
      <trkpt lat="37.692680004657554" lon="-4.540959828283483">
        <ele>0</ele>
      </trkpt>
      <trkpt lat="37.692440149012462" lon="-4.540940067294366">
        <ele>0</ele>
      </trkpt>
      <trkpt lat="37.692070115578851" lon="-4.541019853935019">
        <ele>0</ele>
      </trkpt>
      <trkpt lat="37.691840141062443" lon="-4.541110015413623">
        <ele>0</ele>
      </trkpt>
      <trkpt lat="37.691600038995752" lon="-4.54125995636702">
        <ele>0</ele>
      </trkpt>
      <trkpt lat="37.691390072655828" lon="-4.54142990512094">
        <ele>0</ele>
      </trkpt>
      <trkpt lat="37.691169979441995" lon="-4.541539828587311">
        <ele>0</ele>
      </trkpt>
      <trkpt lat="37.690640124829606" lon="-4.54172978551588">
        <ele>0</ele>
      </trkpt>
      <trkpt lat="37.690420031113291" lon="-4.54177004988044">
        <ele>0</ele>
      </trkpt>
      <trkpt lat="37.690140158278901" lon="-4.541879972605255">
        <ele>0</ele>
      </trkpt>
      <trkpt lat="37.689929945650583" lon="-4.542009905111678">
        <ele>0</ele>
      </trkpt>
      <trkpt lat="37.689780252116826" lon="-4.542139837204928">
        <ele>0</ele>
      </trkpt>
      <trkpt lat="37.689610056921623" lon="-4.542219870468348">
        <ele>0</ele>
      </trkpt>
      <trkpt lat="37.68896015089279" lon="-4.542700074842617">
        <ele>0</ele>
      </trkpt>
      <trkpt lat="37.688680031424141" lon="-4.542950057896349">
        <ele>0</ele>
      </trkpt>
      <trkpt lat="37.688559980421516" lon="-4.543099997992155">
        <ele>0</ele>
      </trkpt>
      <trkpt lat="37.688490073841095" lon="-4.543319845212376">
        <ele>0</ele>
      </trkpt>
      <trkpt lat="37.688559980421935" lon="-4.543509802380076">
        <ele>0</ele>
      </trkpt>
      <trkpt lat="37.688470065337427" lon="-4.543959869612672">
        <ele>0</ele>
      </trkpt>
      <trkpt lat="37.687979980301968" lon="-4.5440898018336">
        <ele>0</ele>
      </trkpt>
      <trkpt lat="37.687890065776216" lon="-4.544199971898704">
        <ele>0</ele>
      </trkpt>
      <trkpt lat="37.68770010847215" lon="-4.544369921131664">
        <ele>0</ele>
      </trkpt>
      <trkpt lat="37.687550168158914" lon="-4.54472982779521">
        <ele>0</ele>
      </trkpt>
      <trkpt lat="37.687270048499819" lon="-4.545250048108617">
        <ele>0</ele>
      </trkpt>
      <trkpt lat="37.687180133684578" lon="-4.545509912122848">
        <ele>0</ele>
      </trkpt>
      <trkpt lat="37.68716012577304" lon="-4.545809793401014">
        <ele>0</ele>
      </trkpt>
      <trkpt lat="37.687100100205519" lon="-4.546069903831478">
        <ele>0</ele>
      </trkpt>
      <trkpt lat="37.68702994675796" lon="-4.546189954637988">
        <ele>0</ele>
      </trkpt>
      <trkpt lat="37.686950159619457" lon="-4.546430057030027">
        <ele>0</ele>
      </trkpt>
      <trkpt lat="37.686470202803882" lon="-4.546769954422979">
        <ele>0</ele>
      </trkpt>
      <trkpt lat="37.685940100089432" lon="-4.547349953668975">
        <ele>0</ele>
      </trkpt>
      <trkpt lat="37.685530049339931" lon="-4.547739749546021">
        <ele>0</ele>
      </trkpt>
      <trkpt lat="37.685079981937065" lon="-4.548209826608055">
        <ele>0</ele>
      </trkpt>
      <trkpt lat="37.684820118036427" lon="-4.548399783476784">
        <ele>0</ele>
      </trkpt>
      <trkpt lat="37.684710195014944" lon="-4.548449928054428">
        <ele>0</ele>
      </trkpt>
      <trkpt lat="37.684539998692294" lon="-4.548659893679774">
        <ele>0</ele>
      </trkpt>
      <trkpt lat="37.684370049635049" lon="-4.548960021742991">
        <ele>0</ele>
      </trkpt>
      <trkpt lat="37.684390058080773" lon="-4.548940012767679">
        <ele>0</ele>
      </trkpt>
      <trkpt lat="37.684310024525324" lon="-4.549109961830709">
        <ele>0</ele>
      </trkpt>
      <trkpt lat="37.684220109764219" lon="-4.549239893518195">
        <ele>0</ele>
      </trkpt>
      <trkpt lat="37.694713215360252" lon="-4.487593671733382">
        <ele>0</ele>
      </trkpt>
      <trkpt lat="37.694820174290435" lon="-4.487674941464984">
        <ele>0</ele>
      </trkpt>
      <trkpt lat="37.694949364835509" lon="-4.48784810117622">
        <ele>0</ele>
      </trkpt>
      <trkpt lat="37.69505014799774" lon="-4.488016074021519">
        <ele>0</ele>
      </trkpt>
      <trkpt lat="37.695061263784318" lon="-4.488163050327549">
        <ele>0</ele>
      </trkpt>
      <trkpt lat="37.695306306716944" lon="-4.488527896967167">
        <ele>0</ele>
      </trkpt>
      <trkpt lat="37.6968941424132" lon="-4.489457922116509">
        <ele>0</ele>
      </trkpt>
      <trkpt lat="37.697182166216479" lon="-4.489596992775156">
        <ele>0</ele>
      </trkpt>
      <trkpt lat="37.697916305737259" lon="-4.490066822415978">
        <ele>0</ele>
      </trkpt>
      <trkpt lat="37.698135164242061" lon="-4.490288892231733">
        <ele>0</ele>
      </trkpt>
      <trkpt lat="37.69835130535408" lon="-4.490591984610601">
        <ele>0</ele>
      </trkpt>
      <trkpt lat="37.698733196678084" lon="-4.491264862545381">
        <ele>0</ele>
      </trkpt>
      <trkpt lat="37.698951314353067" lon="-4.491522009824545">
        <ele>0</ele>
      </trkpt>
      <trkpt lat="37.699343332754474" lon="-4.491820901983384">
        <ele>0</ele>
      </trkpt>
      <trkpt lat="37.699682242024195" lon="-4.492021728008395">
        <ele>0</ele>
      </trkpt>
      <trkpt lat="37.700127370079599" lon="-4.492222801476567">
        <ele>0</ele>
      </trkpt>
      <trkpt lat="37.700421321941626" lon="-4.492276898970446">
        <ele>0</ele>
      </trkpt>
      <trkpt lat="37.700711321563787" lon="-4.492296907007765">
        <ele>0</ele>
      </trkpt>
      <trkpt lat="37.701073204435822" lon="-4.492416957857256">
        <ele>0</ele>
      </trkpt>
      <trkpt lat="37.701923195688487" lon="-4.492539726386205">
        <ele>0</ele>
      </trkpt>
      <trkpt lat="37.702115375828214" lon="-4.492588882851875">
        <ele>0</ele>
      </trkpt>
      <trkpt lat="37.702350290313703" lon="-4.492753891692431">
        <ele>0</ele>
      </trkpt>
      <trkpt lat="37.70289422577882" lon="-4.493044880050858">
        <ele>0</ele>
      </trkpt>
      <trkpt lat="37.703111107841998" lon="-4.49321161748635">
        <ele>0</ele>
      </trkpt>
      <trkpt lat="37.703197318029517" lon="-4.493412937521928">
        <ele>0</ele>
      </trkpt>
      <trkpt lat="37.703241286529199" lon="-4.4937017021287">
        <ele>0</ele>
      </trkpt>
      <trkpt lat="37.703263271358047" lon="-4.494422749890854">
        <ele>0</ele>
      </trkpt>
      <trkpt lat="37.703353186389563" lon="-4.494698916897154">
        <ele>0</ele>
      </trkpt>
      <trkpt lat="37.703521159490599" lon="-4.494902953670038">
        <ele>0</ele>
      </trkpt>
      <trkpt lat="37.703671346155858" lon="-4.495435031952366">
        <ele>0</ele>
      </trkpt>
      <trkpt lat="37.703777317195616" lon="-4.4956378342296">
        <ele>0</ele>
      </trkpt>
      <trkpt lat="37.704062129595478" lon="-4.496023677342223">
        <ele>0</ele>
      </trkpt>
      <trkpt lat="37.704544310749476" lon="-4.496177817015711">
        <ele>0</ele>
      </trkpt>
      <trkpt lat="37.70472636315322" lon="-4.496279836102776">
        <ele>0</ele>
      </trkpt>
      <trkpt lat="37.705037112654772" lon="-4.496328004717886">
        <ele>0</ele>
      </trkpt>
      <trkpt lat="37.705175195789387" lon="-4.496418907607795">
        <ele>0</ele>
      </trkpt>
      <trkpt lat="37.705710238289257" lon="-4.497090798289317">
        <ele>0</ele>
      </trkpt>
      <trkpt lat="37.706225272432306" lon="-4.498038608796104">
        <ele>0</ele>
      </trkpt>
      <trkpt lat="37.706624207530957" lon="-4.498887858210073">
        <ele>0</ele>
      </trkpt>
      <trkpt lat="37.707024130807071" lon="-4.500025873923173">
        <ele>0</ele>
      </trkpt>
      <trkpt lat="37.707327222089887" lon="-4.50105594139157">
        <ele>0</ele>
      </trkpt>
      <trkpt lat="37.707597213428777" lon="-4.501778965112101">
        <ele>0</ele>
      </trkpt>
      <trkpt lat="37.708018380951152" lon="-4.502536818053017">
        <ele>0</ele>
      </trkpt>
      <trkpt lat="37.708449428583634" lon="-4.503249713784314">
        <ele>0</ele>
      </trkpt>
      <trkpt lat="37.709086242397916" lon="-4.50395791613475">
        <ele>0</ele>
      </trkpt>
      <trkpt lat="37.709618320623001" lon="-4.504784934741664">
        <ele>0</ele>
      </trkpt>
      <trkpt lat="37.709860151496329" lon="-4.5051339728122">
        <ele>0</ele>
      </trkpt>
      <trkpt lat="37.710025407190095" lon="-4.505322941204132">
        <ele>0</ele>
      </trkpt>
      <trkpt lat="37.710602195593566" lon="-4.505682107206551">
        <ele>0</ele>
      </trkpt>
      <trkpt lat="37.711934120054138" lon="-4.506395990239459">
        <ele>0</ele>
      </trkpt>
      <trkpt lat="37.71233602003305" lon="-4.506635845881277">
        <ele>0</ele>
      </trkpt>
      <trkpt lat="37.712587237799525" lon="-4.50684087090749">
        <ele>0</ele>
      </trkpt>
      <trkpt lat="37.713658063833414" lon="-4.508123886632075">
        <ele>0</ele>
      </trkpt>
      <trkpt lat="37.71414444319295" lon="-4.508657940309455">
        <ele>0</ele>
      </trkpt>
      <trkpt lat="37.714421350937393" lon="-4.508898042824336">
        <ele>0</ele>
      </trkpt>
      <trkpt lat="37.714717279415005" lon="-4.509005001726896">
        <ele>0</ele>
      </trkpt>
      <trkpt lat="37.715076197309564" lon="-4.509015869991574">
        <ele>0</ele>
      </trkpt>
      <trkpt lat="37.715684357210563" lon="-4.50886395374032">
        <ele>0</ele>
      </trkpt>
      <trkpt lat="37.716125285652687" lon="-4.508857779117465">
        <ele>0</ele>
      </trkpt>
      <trkpt lat="37.716785319241588" lon="-4.508954857045834">
        <ele>0</ele>
      </trkpt>
      <trkpt lat="37.71693921237398" lon="-4.509026986239636">
        <ele>0</ele>
      </trkpt>
      <trkpt lat="37.717538232886682" lon="-4.510200819276559">
        <ele>0</ele>
      </trkpt>
      <trkpt lat="37.717984348306373" lon="-4.511011780877896">
        <ele>0</ele>
      </trkpt>
      <trkpt lat="37.718072286591671" lon="-4.511115035281175">
        <ele>0</ele>
      </trkpt>
      <trkpt lat="37.718327210235572" lon="-4.511318084071662">
        <ele>0</ele>
      </trkpt>
      <trkpt lat="37.718686375583452" lon="-4.511768893032963">
        <ele>0</ele>
      </trkpt>
      <trkpt lat="37.719116188056354" lon="-4.512217972795058">
        <ele>0</ele>
      </trkpt>
      <trkpt lat="37.719407422341448" lon="-4.512732759850823">
        <ele>0</ele>
      </trkpt>
      <trkpt lat="37.719590216746596" lon="-4.512913825018222">
        <ele>0</ele>
      </trkpt>
      <trkpt lat="37.719863419347639" lon="-4.513099089187985">
        <ele>0</ele>
      </trkpt>
      <trkpt lat="37.720077090338279" lon="-4.513210988265334">
        <ele>0</ele>
      </trkpt>
      <trkpt lat="37.72026927032001" lon="-4.513277930541985">
        <ele>0</ele>
      </trkpt>
      <trkpt lat="37.720515301741827" lon="-4.513249770180527">
        <ele>0</ele>
      </trkpt>
      <trkpt lat="37.720785292818668" lon="-4.513184063179184">
        <ele>0</ele>
      </trkpt>
      <trkpt lat="37.721945292226081" lon="-4.513100076786039">
        <ele>0</ele>
      </trkpt>
      <trkpt lat="37.72249515623718" lon="-4.512935809663365">
        <ele>0</ele>
      </trkpt>
      <trkpt lat="37.722825172432998" lon="-4.512936797168882">
        <ele>0</ele>
      </trkpt>
      <trkpt lat="37.723117395951199" lon="-4.513031899563688">
        <ele>0</ele>
      </trkpt>
      <trkpt lat="37.722897302093237" lon="-4.51393203588283">
        <ele>0</ele>
      </trkpt>
      <trkpt lat="37.722873341546091" lon="-4.514284778665764">
        <ele>0</ele>
      </trkpt>
      <trkpt lat="37.725979353559772" lon="-4.513912768122799">
        <ele>0</ele>
      </trkpt>
      <trkpt lat="37.726307394550567" lon="-4.513930059748714">
        <ele>0</ele>
      </trkpt>
      <trkpt lat="37.726530205125336" lon="-4.513967853913419">
        <ele>0</ele>
      </trkpt>
      <trkpt lat="37.726836261713224" lon="-4.514063943970334">
        <ele>0</ele>
      </trkpt>
      <trkpt lat="37.729387223191438" lon="-4.5150369497269">
        <ele>0</ele>
      </trkpt>
      <trkpt lat="37.729607317243897" lon="-4.515154778587478">
        <ele>0</ele>
      </trkpt>
      <trkpt lat="37.729738236671039" lon="-4.51537783583947">
        <ele>0</ele>
      </trkpt>
      <trkpt lat="37.72983111613636" lon="-4.516081838583026">
        <ele>0</ele>
      </trkpt>
      <trkpt lat="37.730031200417933" lon="-4.516523014291865">
        <ele>0</ele>
      </trkpt>
      <trkpt lat="37.7304503915054" lon="-4.517246778804975">
        <ele>0</ele>
      </trkpt>
      <trkpt lat="37.730975306347766" lon="-4.51806194033286">
        <ele>0</ele>
      </trkpt>
      <trkpt lat="37.73156716295788" lon="-4.518892911868716">
        <ele>0</ele>
      </trkpt>
      <trkpt lat="37.732257333191448" lon="-4.519781931353866">
        <ele>0</ele>
      </trkpt>
      <trkpt lat="37.735222298155414" lon="-4.522688847348442">
        <ele>0</ele>
      </trkpt>
      <trkpt lat="37.735653344995235" lon="-4.523180907897927">
        <ele>0</ele>
      </trkpt>
      <trkpt lat="37.735781300696111" lon="-4.523444971014104">
        <ele>0</ele>
      </trkpt>
      <trkpt lat="37.7361483708655" lon="-4.524411802073128">
        <ele>0</ele>
      </trkpt>
      <trkpt lat="37.736376369080553" lon="-4.525306997234525">
        <ele>0</ele>
      </trkpt>
      <trkpt lat="37.736510253478301" lon="-4.525746938053715">
        <ele>0</ele>
      </trkpt>
      <trkpt lat="37.73685632584553" lon="-4.526499850624703">
        <ele>0</ele>
      </trkpt>
      <trkpt lat="37.737119400954185" lon="-4.526824926981888">
        <ele>0</ele>
      </trkpt>
      <trkpt lat="37.737626035932635" lon="-4.527363921683365">
        <ele>0</ele>
      </trkpt>
      <trkpt lat="37.737974332329877" lon="-4.527819918943831">
        <ele>0</ele>
      </trkpt>
      <trkpt lat="37.738077092689771" lon="-4.528027908476285">
        <ele>0</ele>
      </trkpt>
      <trkpt lat="37.738484179010882" lon="-4.529254850298337">
        <ele>0</ele>
      </trkpt>
      <trkpt lat="37.738657092270586" lon="-4.529705906047733">
        <ele>0</ele>
      </trkpt>
      <trkpt lat="37.739537219799161" lon="-4.530947915092704">
        <ele>0</ele>
      </trkpt>
      <trkpt lat="37.740749340581765" lon="-4.532485854026507">
        <ele>0</ele>
      </trkpt>
      <trkpt lat="37.740881989640606" lon="-4.532693843215935">
        <ele>0</ele>
      </trkpt>
      <trkpt lat="37.741015132474828" lon="-4.533000887546343">
        <ele>0</ele>
      </trkpt>
      <trkpt lat="37.741135183575985" lon="-4.533394882645194">
        <ele>0</ele>
      </trkpt>
      <trkpt lat="37.741265361920597" lon="-4.533631031686716">
        <ele>0</ele>
      </trkpt>
      <trkpt lat="37.741523249552976" lon="-4.533902752612494">
        <ele>0</ele>
      </trkpt>
      <trkpt lat="37.741647252876724" lon="-4.533956849670457">
        <ele>0</ele>
      </trkpt>
      <trkpt lat="37.74178632453971" lon="-4.533992914316721">
        <ele>0</ele>
      </trkpt>
      <trkpt lat="37.742308274526508" lon="-4.534014899275721">
        <ele>0</ele>
      </trkpt>
      <trkpt lat="37.742633351148726" lon="-4.534097897386106">
        <ele>0</ele>
      </trkpt>
      <trkpt lat="37.743426281605068" lon="-4.534560069363335">
        <ele>0</ele>
      </trkpt>
      <trkpt lat="37.743812124762762" lon="-4.534772999664313">
        <ele>0</ele>
      </trkpt>
      <trkpt lat="37.7439222947961" lon="-4.534813016681912">
        <ele>0</ele>
      </trkpt>
      <trkpt lat="37.744295293170609" lon="-4.535066951382393">
        <ele>0</ele>
      </trkpt>
      <trkpt lat="37.744425224385644" lon="-4.535195894840752">
        <ele>0</ele>
      </trkpt>
      <trkpt lat="37.744523291550699" lon="-4.53524406374645">
        <ele>0</ele>
      </trkpt>
      <trkpt lat="37.744920250350127" lon="-4.535711917534848">
        <ele>0</ele>
      </trkpt>
      <trkpt lat="37.745564227537919" lon="-4.536560920277396">
        <ele>0</ele>
      </trkpt>
      <trkpt lat="37.745958222578622" lon="-4.537023833582511">
        <ele>0</ele>
      </trkpt>
      <trkpt lat="37.74631121173627" lon="-4.53751589416681">
        <ele>0</ele>
      </trkpt>
      <trkpt lat="37.746441391334244" lon="-4.53776192561146">
        <ele>0</ele>
      </trkpt>
      <trkpt lat="37.7464653518171" lon="-4.538042785907613">
        <ele>0</ele>
      </trkpt>
      <trkpt lat="37.746573299197827" lon="-4.538418748220723">
        <ele>0</ele>
      </trkpt>
      <trkpt lat="37.746676059155732" lon="-4.538587955458485">
        <ele>0</ele>
      </trkpt>
      <trkpt lat="37.747626092184653" lon="-4.53975907117121">
        <ele>0</ele>
      </trkpt>
      <trkpt lat="37.747809133132883" lon="-4.539868005882171">
        <ele>0</ele>
      </trkpt>
      <trkpt lat="37.748258953815615" lon="-4.539891967026051">
        <ele>0</ele>
      </trkpt>
      <trkpt lat="37.748443229980012" lon="-4.53994285325368">
        <ele>0</ele>
      </trkpt>
      <trkpt lat="37.749618297890223" lon="-4.540939079502418">
        <ele>0</ele>
      </trkpt>
      <trkpt lat="37.750071082970834" lon="-4.541242912036887">
        <ele>0</ele>
      </trkpt>
      <trkpt lat="37.750244242828394" lon="-4.541463746120561">
        <ele>0</ele>
      </trkpt>
      <trkpt lat="37.750270427259196" lon="-4.541719904807529">
        <ele>0</ele>
      </trkpt>
      <trkpt lat="37.750261287891114" lon="-4.542016820899319">
        <ele>0</ele>
      </trkpt>
      <trkpt lat="37.750284260317805" lon="-4.542446881405473">
        <ele>0</ele>
      </trkpt>
      <trkpt lat="37.750383314904738" lon="-4.542786037551893">
        <ele>0</ele>
      </trkpt>
      <trkpt lat="37.750480145822074" lon="-4.542885832751241">
        <ele>0</ele>
      </trkpt>
      <trkpt lat="37.750867224148102" lon="-4.543120007262139">
        <ele>0</ele>
      </trkpt>
      <trkpt lat="37.751045324532861" lon="-4.543809929745274">
        <ele>0</ele>
      </trkpt>
      <trkpt lat="37.751144132130833" lon="-4.54461397600099">
        <ele>0</ele>
      </trkpt>
      <trkpt lat="37.751137215923336" lon="-4.545451863037463">
        <ele>0</ele>
      </trkpt>
      <trkpt lat="37.75121107396302" lon="-4.546412765416012">
        <ele>0</ele>
      </trkpt>
      <trkpt lat="37.75132840769372" lon="-4.547022901869718">
        <ele>0</ele>
      </trkpt>
      <trkpt lat="37.751538126885734" lon="-4.54774493657232">
        <ele>0</ele>
      </trkpt>
      <trkpt lat="37.751772300807765" lon="-4.548443011888514">
        <ele>0</ele>
      </trkpt>
      <trkpt lat="37.752006226791224" lon="-4.549415029836738">
        <ele>0</ele>
      </trkpt>
      <trkpt lat="37.752041304059297" lon="-4.549650933271372">
        <ele>0</ele>
      </trkpt>
      <trkpt lat="37.752072181631512" lon="-4.550309978587463">
        <ele>0</ele>
      </trkpt>
      <trkpt lat="37.752152214805882" lon="-4.550760787701742">
        <ele>0</ele>
      </trkpt>
      <trkpt lat="37.751959293626641" lon="-4.551033990763263">
        <ele>0</ele>
      </trkpt>
      <trkpt lat="37.751828126572903" lon="-4.551282984992344">
        <ele>0</ele>
      </trkpt>
      <trkpt lat="37.751847394179073" lon="-4.551470966267122">
        <ele>0</ele>
      </trkpt>
      <trkpt lat="37.751822198098957" lon="-4.551931903688249">
        <ele>0</ele>
      </trkpt>
      <trkpt lat="37.751709310920972" lon="-4.552040838485423">
        <ele>0</ele>
      </trkpt>
      <trkpt lat="37.751477360383127" lon="-4.552364926484997">
        <ele>0</ele>
      </trkpt>
      <trkpt lat="37.751268382156645" lon="-4.552595888909957">
        <ele>0</ele>
      </trkpt>
      <trkpt lat="37.75112338254992" lon="-4.552799926741863">
        <ele>0</ele>
      </trkpt>
      <trkpt lat="37.750980358922952" lon="-4.553089926379967">
        <ele>0</ele>
      </trkpt>
      <trkpt lat="37.750870188635297" lon="-4.553252959376785">
        <ele>0</ele>
      </trkpt>
      <trkpt lat="37.750888221004281" lon="-4.553424883647705">
        <ele>0</ele>
      </trkpt>
      <trkpt lat="37.75081905584441" lon="-4.553722788947424">
        <ele>0</ele>
      </trkpt>
      <trkpt lat="37.750853143708319" lon="-4.554313903486853">
        <ele>0</ele>
      </trkpt>
      <trkpt lat="37.750849192157752" lon="-4.554296859737065">
        <ele>0</ele>
      </trkpt>
      <trkpt lat="37.750676278838817" lon="-4.55488698719486">
        <ele>0</ele>
      </trkpt>
      <trkpt lat="37.750727411682163" lon="-4.555414865653365">
        <ele>0</ele>
      </trkpt>
      <trkpt lat="37.750617241293334" lon="-4.555745871459984">
        <ele>0</ele>
      </trkpt>
      <trkpt lat="37.750541159474501" lon="-4.556233980403663">
        <ele>0</ele>
      </trkpt>
      <trkpt lat="37.750537206830224" lon="-4.556823860668925">
        <ele>0</ele>
      </trkpt>
      <trkpt lat="37.750676278604857" lon="-4.557050871078671">
        <ele>0</ele>
      </trkpt>
      <trkpt lat="37.750951210594245" lon="-4.557102003762571">
        <ele>0</ele>
      </trkpt>
      <trkpt lat="37.751319268525236" lon="-4.557314933444993">
        <ele>0</ele>
      </trkpt>
      <trkpt lat="37.751421287333216" lon="-4.557522923121349">
        <ele>0</ele>
      </trkpt>
      <trkpt lat="37.751457104817938" lon="-4.557682991136975">
        <ele>0</ele>
      </trkpt>
      <trkpt lat="37.75150724923617" lon="-4.55846776929062">
        <ele>0</ele>
      </trkpt>
      <trkpt lat="37.751427215914227" lon="-4.559125827848746">
        <ele>0</ele>
      </trkpt>
      <trkpt lat="37.751280239362487" lon="-4.559683842894104">
        <ele>0</ele>
      </trkpt>
      <trkpt lat="37.751207369133176" lon="-4.560053875900021">
        <ele>0</ele>
      </trkpt>
      <trkpt lat="37.751081142583047" lon="-4.560198876419211">
        <ele>0</ele>
      </trkpt>
      <trkpt lat="37.7509793707301" lon="-4.560380929702614">
        <ele>0</ele>
      </trkpt>
      <trkpt lat="37.750869199933291" lon="-4.560713910842939">
        <ele>0</ele>
      </trkpt>
      <trkpt lat="37.750691346803755" lon="-4.561134088802009">
        <ele>0</ele>
      </trkpt>
      <trkpt lat="37.750624158275784" lon="-4.561439897821788">
        <ele>0</ele>
      </trkpt>
      <trkpt lat="37.750700239619484" lon="-4.5618109199141">
        <ele>0</ele>
      </trkpt>
      <trkpt lat="37.750917121615657" lon="-4.562178977451639">
        <ele>0</ele>
      </trkpt>
      <trkpt lat="37.750921321446214" lon="-4.562405741223496">
        <ele>0</ele>
      </trkpt>
      <trkpt lat="37.750976159591858" lon="-4.562787879384817">
        <ele>0</ele>
      </trkpt>
      <trkpt lat="37.751126346802891" lon="-4.563150748949348">
        <ele>0</ele>
      </trkpt>
      <trkpt lat="37.7512602307389" lon="-4.563369854513975">
        <ele>0</ele>
      </trkpt>
      <trkpt lat="37.75112017163007" lon="-4.563640834242015">
        <ele>0</ele>
      </trkpt>
      <trkpt lat="37.751084106700596" lon="-4.563877972197296">
        <ele>0</ele>
      </trkpt>
      <trkpt lat="37.751015188484672" lon="-4.564844061812678">
        <ele>0</ele>
      </trkpt>
      <trkpt lat="37.750853143827172" lon="-4.565379846054898">
        <ele>0</ele>
      </trkpt>
      <trkpt lat="37.750797317483013" lon="-4.565917852106093">
        <ele>0</ele>
      </trkpt>
      <trkpt lat="37.750809174419004" lon="-4.566076931746939">
        <ele>0</ele>
      </trkpt>
      <trkpt lat="37.750735069650325" lon="-4.566398056930453">
        <ele>0</ele>
      </trkpt>
      <trkpt lat="37.750596244569557" lon="-4.566712017611521">
        <ele>0</ele>
      </trkpt>
      <trkpt lat="37.750402335381196" lon="-4.567068959303025">
        <ele>0</ele>
      </trkpt>
      <trkpt lat="37.750233374108412" lon="-4.567471846401143">
        <ele>0</ele>
      </trkpt>
      <trkpt lat="37.74989915791253" lon="-4.569039921521711">
        <ele>0</ele>
      </trkpt>
      <trkpt lat="37.749800350715851" lon="-4.569314853246836">
        <ele>0</ele>
      </trkpt>
      <trkpt lat="37.749595325016521" lon="-4.569603864146811">
        <ele>0</ele>
      </trkpt>
      <trkpt lat="37.74951529091549" lon="-4.569933882054804">
        <ele>0</ele>
      </trkpt>
      <trkpt lat="37.749553085371112" lon="-4.570305892112022">
        <ele>0</ele>
      </trkpt>
      <trkpt lat="37.749669183850195" lon="-4.570508941265143">
        <ele>0</ele>
      </trkpt>
      <trkpt lat="37.749745265727356" lon="-4.570783872207191">
        <ele>0</ele>
      </trkpt>
      <trkpt lat="37.749666219513529" lon="-4.571238880675088">
        <ele>0</ele>
      </trkpt>
      <trkpt lat="37.749732173366596" lon="-4.572112832559011">
        <ele>0</ele>
      </trkpt>
      <trkpt lat="37.749690180349731" lon="-4.5723810950439">
        <ele>0</ele>
      </trkpt>
      <trkpt lat="37.74951701992898" lon="-4.572650839254897">
        <ele>0</ele>
      </trkpt>
      <trkpt lat="37.749395240307969" lon="-4.573134749731374">
        <ele>0</ele>
      </trkpt>
      <trkpt lat="37.749391287666761" lon="-4.574136903547552">
        <ele>0</ele>
      </trkpt>
      <trkpt lat="37.749228255443981" lon="-4.574770012619735">
        <ele>0</ele>
      </trkpt>
      <trkpt lat="37.749244311359419" lon="-4.575395957798979">
        <ele>0</ele>
      </trkpt>
      <trkpt lat="37.749381160080546" lon="-4.575623955802215">
        <ele>0</ele>
      </trkpt>
      <trkpt lat="37.749305078248568" lon="-4.576047840385972">
        <ele>0</ele>
      </trkpt>
      <trkpt lat="37.749250240292312" lon="-4.576734798983581">
        <ele>0</ele>
      </trkpt>
      <trkpt lat="37.749259379671599" lon="-4.577448929883386">
        <ele>0</ele>
      </trkpt>
      <trkpt lat="37.749467122842113" lon="-4.577889858672142">
        <ele>0</ele>
      </trkpt>
      <trkpt lat="37.749971287309165" lon="-4.578709959940576">
        <ele>0</ele>
      </trkpt>
      <trkpt lat="37.75006219045153" lon="-4.57894092264257">
        <ele>0</ele>
      </trkpt>
      <trkpt lat="37.75013728376517" lon="-4.57920078613241">
        <ele>0</ele>
      </trkpt>
      <trkpt lat="37.750343297795837" lon="-4.580402038082279">
        <ele>0</ele>
      </trkpt>
      <trkpt lat="37.750313161804762" lon="-4.580753792758452">
        <ele>0</ele>
      </trkpt>
      <trkpt lat="37.750382326992963" lon="-4.581234984859781">
        <ele>0</ele>
      </trkpt>
      <trkpt lat="37.750434200110135" lon="-4.582630886775076">
        <ele>0</ele>
      </trkpt>
      <trkpt lat="37.750392207137686" lon="-4.58318099762384">
        <ele>0</ele>
      </trkpt>
      <trkpt lat="37.750443340057103" lon="-4.583498910245138">
        <ele>0</ele>
      </trkpt>
      <trkpt lat="37.750450009950178" lon="-4.584200938127462">
        <ele>0</ele>
      </trkpt>
      <trkpt lat="37.750422096262085" lon="-4.584781925301014">
        <ele>0</ele>
      </trkpt>
      <trkpt lat="37.75047718162898" lon="-4.585074890082177">
        <ele>0</ele>
      </trkpt>
      <trkpt lat="37.750467301081535" lon="-4.585234958463353">
        <ele>0</ele>
      </trkpt>
      <trkpt lat="37.750496201813618" lon="-4.585384897858162">
        <ele>0</ele>
      </trkpt>
      <trkpt lat="37.750484345542752" lon="-4.585545954683513">
        <ele>0</ele>
      </trkpt>
      <trkpt lat="37.750665162955677" lon="-4.586132870211086">
        <ele>0</ele>
      </trkpt>
      <trkpt lat="37.750835358970143" lon="-4.586348023426071">
        <ele>0</ele>
      </trkpt>
      <trkpt lat="37.75110707972258" lon="-4.586565894113517">
        <ele>0</ele>
      </trkpt>
      <trkpt lat="37.75175426814932" lon="-4.586980885373523">
        <ele>0</ele>
      </trkpt>
      <trkpt lat="37.752009191568803" lon="-4.587086857206584">
        <ele>0</ele>
      </trkpt>
      <trkpt lat="37.752376260944509" lon="-4.587355859954656">
        <ele>0</ele>
      </trkpt>
      <trkpt lat="37.752798415879312" lon="-4.587767887592036">
        <ele>0</ele>
      </trkpt>
      <trkpt lat="37.753265281146888" lon="-4.588282921066501">
        <ele>0</ele>
      </trkpt>
      <trkpt lat="37.75337421656856" lon="-4.58849881547958">
        <ele>0</ele>
      </trkpt>
      <trkpt lat="37.753883321516327" lon="-4.589324104732959">
        <ele>0</ele>
      </trkpt>
      <trkpt lat="37.754324250253255" lon="-4.589939921809808">
        <ele>0</ele>
      </trkpt>
      <trkpt lat="37.75517918219898" lon="-4.591050024357712">
        <ele>0</ele>
      </trkpt>
      <trkpt lat="37.755420271976661" lon="-4.591458839398167">
        <ele>0</ele>
      </trkpt>
      <trkpt lat="37.755624062007371" lon="-4.59175501552849">
        <ele>0</ele>
      </trkpt>
      <trkpt lat="37.756194181126993" lon="-4.592436786505697">
        <ele>0</ele>
      </trkpt>
      <trkpt lat="37.75689620831475" lon="-4.593224035531911">
        <ele>0</ele>
      </trkpt>
      <trkpt lat="37.757621208205151" lon="-4.594162952580923">
        <ele>0</ele>
      </trkpt>
      <trkpt lat="37.758092273100807" lon="-4.594942790819729">
        <ele>0</ele>
      </trkpt>
      <trkpt lat="37.75876218754312" lon="-4.596216913035355">
        <ele>0</ele>
      </trkpt>
      <trkpt lat="37.7592752448111" lon="-4.597254886046655">
        <ele>0</ele>
      </trkpt>
      <trkpt lat="37.760751181693593" lon="-4.599816962628161">
        <ele>0</ele>
      </trkpt>
      <trkpt lat="37.760909273385217" lon="-4.600299884404538">
        <ele>0</ele>
      </trkpt>
      <trkpt lat="37.76108811471596" lon="-4.600636817895428">
        <ele>0</ele>
      </trkpt>
      <trkpt lat="37.761504341361167" lon="-4.601288947183249">
        <ele>0</ele>
      </trkpt>
      <trkpt lat="37.761573259344033" lon="-4.601444816032293">
        <ele>0</ele>
      </trkpt>
      <trkpt lat="37.761608089648512" lon="-4.601608836400938">
        <ele>0</ele>
      </trkpt>
      <trkpt lat="37.762405218251523" lon="-4.602597899005087">
        <ele>0</ele>
      </trkpt>
      <trkpt lat="37.762816998488212" lon="-4.60317394693802">
        <ele>0</ele>
      </trkpt>
      <trkpt lat="37.763540269123645" lon="-4.604321841618228">
        <ele>0</ele>
      </trkpt>
      <trkpt lat="37.764065183530676" lon="-4.605259772380689">
        <ele>0</ele>
      </trkpt>
      <trkpt lat="37.764562432214305" lon="-4.605970939041884">
        <ele>0</ele>
      </trkpt>
      <trkpt lat="37.764896154470577" lon="-4.606372837899562">
        <ele>0</ele>
      </trkpt>
      <trkpt lat="37.76557026836322" lon="-4.607277913909327">
        <ele>0</ele>
      </trkpt>
      <trkpt lat="37.766000080997408" lon="-4.607617811708033">
        <ele>0</ele>
      </trkpt>
      <trkpt lat="37.766206094821491" lon="-4.607678825149477">
        <ele>0</ele>
      </trkpt>
      <trkpt lat="37.766340225719439" lon="-4.607675861238168">
        <ele>0</ele>
      </trkpt>
      <trkpt lat="37.76746539577266" lon="-4.607467871835333">
        <ele>0</ele>
      </trkpt>
      <trkpt lat="37.767801340852536" lon="-4.607362888983592">
        <ele>0</ele>
      </trkpt>
      <trkpt lat="37.768325267852823" lon="-4.607284830949857">
        <ele>0</ele>
      </trkpt>
      <trkpt lat="37.768983325042974" lon="-4.6070669601154">
        <ele>0</ele>
      </trkpt>
      <trkpt lat="37.769436110672885" lon="-4.606966917509974">
        <ele>0</ele>
      </trkpt>
      <trkpt lat="37.769586050987691" lon="-4.606899728343235">
        <ele>0</ele>
      </trkpt>
      <trkpt lat="37.769730309475378" lon="-4.606902940553042">
        <ele>0</ele>
      </trkpt>
      <trkpt lat="37.77009317985118" lon="-4.606942956962497">
        <ele>0</ele>
      </trkpt>
      <trkpt lat="37.770621305762496" lon="-4.607183059201333">
        <ele>0</ele>
      </trkpt>
      <trkpt lat="37.770751237716603" lon="-4.607219864555688">
        <ele>0</ele>
      </trkpt>
      <trkpt lat="37.770852268550051" lon="-4.607192940410817">
        <ele>0</ele>
      </trkpt>
      <trkpt lat="37.771187225791898" lon="-4.607218876893384">
        <ele>0</ele>
      </trkpt>
      <trkpt lat="37.771288256194254" lon="-4.607237897086175">
        <ele>0</ele>
      </trkpt>
      <trkpt lat="37.771562199951674" lon="-4.607356960227024">
        <ele>0</ele>
      </trkpt>
      <trkpt lat="37.771875172889402" lon="-4.607373016406615">
        <ele>0</ele>
      </trkpt>
      <trkpt lat="37.772106135277916" lon="-4.607451815425798">
        <ele>0</ele>
      </trkpt>
      <trkpt lat="37.772302267475006" lon="-4.607540989602663">
        <ele>0</ele>
      </trkpt>
      <trkpt lat="37.772604124463726" lon="-4.607771952077219">
        <ele>0</ele>
      </trkpt>
      <trkpt lat="37.772964277545981" lon="-4.608070844433237">
        <ele>0</ele>
      </trkpt>
      <trkpt lat="37.773437318356571" lon="-4.608543885083834">
        <ele>0</ele>
      </trkpt>
      <trkpt lat="37.773735222915803" lon="-4.608765954450299">
        <ele>0</ele>
      </trkpt>
      <trkpt lat="37.774042267352328" lon="-4.609202931066816">
        <ele>0</ele>
      </trkpt>
      <trkpt lat="37.774316210548697" lon="-4.609643858864984">
        <ele>0</ele>
      </trkpt>
      <trkpt lat="37.774595341500692" lon="-4.60991879127756">
        <ele>0</ele>
      </trkpt>
      <trkpt lat="37.774913007909973" lon="-4.610159880611992">
        <ele>0</ele>
      </trkpt>
      <trkpt lat="37.77581931931843" lon="-4.610676891378185">
        <ele>0</ele>
      </trkpt>
      <trkpt lat="37.776251107887262" lon="-4.610957751541411">
        <ele>0</ele>
      </trkpt>
      <trkpt lat="37.777343177132792" lon="-4.611544914301385">
        <ele>0</ele>
      </trkpt>
      <trkpt lat="37.777916260523064" lon="-4.611783040795729">
        <ele>0</ele>
      </trkpt>
      <trkpt lat="37.778085221159159" lon="-4.611874932080953">
        <ele>0</ele>
      </trkpt>
      <trkpt lat="37.778213176676189" lon="-4.611977938395978">
        <ele>0</ele>
      </trkpt>
      <trkpt lat="37.778593338651682" lon="-4.612079709496148">
        <ele>0</ele>
      </trkpt>
    </trkseg>
  </trk>
</gpx>
